[[{"header":{"parameterUnit":"m.s-1","parameterCategory":1,"la1":31.0,"la2":29.5877,"lo1":-88.7671,"lo2":-86.6584,"dx":0.0162,"dy":0.0185,"nx":115,"ny":88,"refTime":"2022-12-09T18:00:00:Z","depth":0,"parameterNumber":2,"parameterNumberName":"U-component_of_WINDS"},"data":[0.0,0.0,0.0,0.0,0.0,0.0,0.0,0.0,0.0,0.0,0.0,0.0,0.0,0.0,0.0,0.0,0.0,0.0,0.0,0.0,0.0,0.0,0.0,0.0,0.0,0.0,0.0,0.0,0.0,0.0,0.0,0.0,0.0,0.0,0.0,0.0,0.0,0.0,0.0,0.0,0.0,0.0,0.0,0.0,0.0,0.0,0.0,0.0,0.0,0.0,0.0,0.0,0.0,0.0,0.0,0.0,0.0,0.0,0.0,0.0,0.0,0.0,0.0,0.0,0.0,0.0,0.0,0.0,0.0,0.0,0.0,0.0,0.0,0.0,0.0,0.0,0.0,0.0,0.0,0.0,0.0,0.0,0.0,0.0,0.0,0.0,0.0,0.0,0.0,0.0,0.0,0.0,0.0,0.0,0.0,0.0,0.0,0.0,0.0,0.0,0.0,0.0,0.0,0.0,0.0,0.0,0.0,0.0,0.0,0.0,0.0,0.0,0.0,0.0,0.0,0.0,0.0,0.0,0.0,0.0,0.0,0.0,0.0,0.0,0.0,0.0,0.0,0.0,0.0,0.0,0.0,0.0,0.0,0.0,0.0,0.0,0.0,0.0,0.0,0.0,0.0,0.0,0.0,0.0,0.0,0.0,0.0,0.0,0.0,0.0,0.0,0.0,0.0,0.0,0.0,0.0,0.0,0.0,0.0,0.0,0.0,0.0,0.0,0.0,0.0,0.0,0.0,0.0,0.0,0.0,0.0,0.0,0.0,0.0,0.0,0.0,0.0,0.0,0.0,0.0,0.0,0.0,0.0,0.0,0.0,0.0,0.0,0.0,0.0,0.0,0.0,0.0,0.0,0.0,0.0,0.0,0.0,0.0,0.0,0.0,0.0,0.0,0.0,0.0,0.0,0.0,0.0,0.0,0.0,0.0,0.0,0.0,0.0,0.0,0.0,0.0,0.0,0.0,0.0,0.0,0.0,0.0,0.0,0.0,0.0,0.0,0.0,0.0,0.0,0.0,0.0,0.0,0.0,0.0,0.0,0.0,0.0,0.0,0.0,0.0,0.0,0.0,0.0,0.0,0.0,0.0,0.0,0.0,0.0,0.0,0.0,0.0,0.0,0.0,0.0,0.0,0.0,0.0,0.0,0.0,0.0,0.0,0.0,0.0,0.0,0.0,0.0,0.0,0.0,0.0,0.0,0.0,0.0,0.0,0.0,0.0,0.0,0.0,0.0,0.0,0.0,0.0,0.0,0.0,0.0,0.0,0.0,0.0,0.0,0.0,0.0,0.0,0.0,0.0,0.0,0.0,0.0,0.0,0.0,0.0,0.0,0.0,0.0,0.0,0.0,0.0,0.0,0.0,0.0,0.0,0.0,0.0,0.0,0.0,0.0,0.0,0.0,0.0,0.0,0.0,0.0,0.0,0.0,0.0,0.0,0.0,0.0,0.0,0.0,0.0,0.0,0.0,0.0,0.0,0.0,0.0,0.0,0.0,0.0,0.0,0.0,0.0,0.0,0.0,0.0,0.0,0.0,0.0,0.0,0.0,0.0,0.0,0.0,0.0,0.0,0.0,0.0,0.0,0.0,0.0,0.0,0.0,0.0,0.0,0.0,0.0,0.0,0.0,0.0,0.0,0.0,0.0,0.0,0.0,0.0,0.0,0.0,0.0,0.0,0.0,0.0,0.0,0.0,0.0,0.0,0.0,0.0,0.0,0.0,0.0,0.0,0.0,0.0,0.0,0.0,0.0,0.0,0.0,0.0,0.0,0.0,0.0,0.0,0.0,0.0,0.0,0.0,0.0,0.0,0.0,0.0,0.0,0.0,0.0,0.0,0.0,0.0,0.0,0.0,0.0,0.0,0.0,0.0,0.0,0.0,0.0,0.0,0.0,0.0,0.0,0.0,0.0,0.0,0.0,0.0,0.0,0.0,0.0,0.0,0.0,0.0,0.0,0.0,0.0,0.0,0.0,0.0,0.0,0.0,0.0,0.0,0.0,0.0,0.0,0.0,0.0,0.0,0.0,0.0,0.0,0.0,0.0,0.0,0.0,0.0,0.0,0.0,0.0,0.0,0.0,0.0,0.0,0.0,0.0,0.0,0.0,0.0,0.0,0.0,0.0,0.0,0.0,0.0,0.0,0.0,0.0,0.0,0.0,0.0,0.0,0.0,0.0,0.0,0.0,0.0,0.0,0.0,0.0,0.0,0.0,0.0,0.0,0.0,0.0,0.0,0.0,0.0,0.0,0.0,0.0,0.0,0.0,0.0,0.0,0.0,0.0,0.0,0.0,0.0,0.0,0.0,0.0,0.0,0.0,0.0,0.0,0.0,0.0,0.0,0.0,0.0,0.0,0.0,0.0,0.0,0.0,0.0,0.0,0.0,0.0,0.0,0.0,0.0,0.0,0.0,0.0,0.0,0.0,0.0,0.0,0.0,0.0,0.0,0.0,0.0,0.0,0.0,0.0,0.0,0.0,0.0,0.0,0.0,0.0,0.0,0.0,0.0,0.0,0.0,0.0,0.0,0.0,0.0,0.0,0.0,0.0,0.0,0.0,0.0,0.0,0.0,0.0,0.0,0.0,0.0,0.0,0.0,0.0,0.0,0.0,0.0,0.0,0.0,0.0,0.0,0.0,0.0,0.0,0.0,0.0,0.0,0.0,0.0,0.0,0.0,0.0,0.0,0.0,0.0,0.0,0.0,0.0,0.0,0.0,0.0,0.0,0.0,0.0,0.0,0.0,0.0,0.0,0.0,0.0,0.0,0.0,0.0,0.0,0.0,0.0,0.0,0.0,0.0,0.0,0.0,0.0,0.0,0.0,0.0,0.0,0.0,0.0,0.0,0.0,0.0,0.0,0.0,0.0,0.0,0.0,0.0,0.0,0.0,0.0,0.0,0.0,0.0,0.0,0.0,0.0,0.0,0.0,0.0,0.0,0.0,0.0,0.0,0.0,0.0,0.0,0.0,0.0,0.0,0.0,0.0,0.0,0.0,0.0,0.0,0.0,0.0,0.0,0.0,0.0,0.0,0.0,0.0,0.0,0.0,0.0,0.0,0.0,0.0,0.0,0.0,0.0,0.0,0.0,0.0,0.0,0.0,0.0,0.0,0.0,0.0,0.0,0.0,0.0,0.0,0.0,0.0,0.0,0.0,0.0,0.0,0.0,0.0,0.0,0.0,0.0,0.0,0.0,0.0,0.0,0.0,0.0,0.0,0.0,0.0,0.0,0.0,0.0,0.0,0.0,0.0,0.0,0.0,0.0,0.0,0.0,0.0,0.0,0.0,0.0,0.0,0.0,0.0,0.0,0.0,0.0,0.0,0.0,0.0,0.0,0.0,0.0,0.0,0.0,0.0,0.0,0.0,0.0,0.0,0.0,0.0,0.0,0.0,0.0,0.0,0.0,0.0,0.0,0.0,0.0,0.0,0.0,0.0,0.0,0.0,0.0,0.0,0.0,0.0,0.0,0.0,0.0,0.0,0.0,0.0,0.0,0.0,0.0,0.0,0.0,0.0,0.0,0.0,0.0,0.0,0.0,0.0,0.0,0.0,0.0,0.0,0.0,0.0,0.0,0.0,0.0,0.0,0.0,0.0,0.0,0.0,0.0,0.0,0.0,0.0,0.0,0.0,0.0,0.0,0.0,0.0,0.0,0.0,0.0,0.0,0.0,0.0,0.0,0.0,0.0,0.0,0.0,0.0,0.0,0.0,0.0,0.0,0.0,0.0,0.0,0.0,0.0,0.0,0.0,0.0,0.0,0.0,0.0,0.0,0.0,0.0,0.0,0.0,0.0,0.0,0.0,0.0,0.0,0.0,0.0,0.0,0.0,0.0,0.0,0.0,0.0,0.0,0.0,0.0,0.0,0.0,0.0,0.0,0.0,0.0,0.0,0.0,0.0,0.0,0.0,0.0,0.0,0.0,0.0,0.0,0.0,0.0,0.0,0.0,0.0,0.0,0.0,0.0,0.0,0.0,0.0,0.0,0.0,0.0,0.0,0.0,0.0,0.0,0.0,0.0,0.0,0.0,0.0,0.0,0.0,0.0,0.0,0.0,0.0,0.0,0.0,0.0,0.0,0.0,0.0,0.0,0.0,0.0,0.0,0.0,0.0,0.0,0.0,0.0,0.0,0.0,0.0,0.0,0.0,0.0,0.0,0.0,0.0,0.0,0.0,0.0,0.0,0.0,0.0,0.0,0.0,0.0,0.0,0.0,0.0,0.0,0.0,0.0,0.0,0.0,0.0,0.0,0.0,-1.3866,0.0,0.0,0.0,-1.0201,0.0,0.0,0.0,0.0,0.0,0.0,0.0,0.0,0.0,0.0,0.0,0.0,0.0,0.0,0.0,0.0,0.0,0.0,0.0,0.0,0.0,0.0,0.0,0.0,0.0,0.0,0.0,0.0,0.0,0.0,0.0,0.0,0.0,0.0,0.0,0.0,0.0,0.0,0.0,0.0,0.0,0.0,0.0,0.0,0.0,0.0,0.0,0.0,0.0,0.0,0.0,0.0,0.0,0.0,0.0,0.0,0.0,0.0,0.0,0.0,0.0,0.0,0.0,0.0,0.0,0.0,0.0,0.0,0.0,0.0,0.0,0.0,0.0,0.0,0.0,0.0,0.0,0.0,0.0,0.0,0.0,0.0,0.0,0.0,0.0,0.0,0.0,0.0,0.0,0.0,0.0,0.0,0.0,0.0,0.0,0.0,0.0,0.0,0.0,0.0,0.0,0.0,0.0,0.0,0.0,0.0,0.0,0.0,0.0,0.0,-1.3378,-1.1798,-1.3369,-1.2865,-1.0006,0.0,0.0,0.0,0.0,0.0,0.0,0.0,0.0,0.0,0.0,0.0,0.0,0.0,0.0,0.0,0.0,0.0,0.0,0.0,0.0,0.0,0.0,0.0,0.0,0.0,0.0,0.0,0.0,0.0,0.0,0.0,0.0,0.0,0.0,0.0,0.0,0.0,0.0,0.0,0.0,0.0,0.0,0.0,0.0,0.0,0.0,0.0,0.0,0.0,0.0,0.0,0.0,0.0,0.0,0.0,0.0,0.0,0.0,0.0,0.0,0.0,0.0,0.0,0.0,0.0,0.0,0.0,0.0,0.0,0.0,0.0,0.0,0.0,0.0,0.0,0.0,0.0,0.0,0.0,0.0,0.0,0.0,0.0,0.0,0.0,0.0,0.0,0.0,0.0,0.0,0.0,0.0,0.0,0.0,0.0,0.0,0.0,0.0,0.0,0.0,0.0,0.0,0.0,0.0,0.0,0.0,0.0,0.0,0.0,0.0,0.0,0.0,-1.353,-1.3279,-1.0711,0.0,0.0,0.0,0.0,0.0,0.0,0.0,0.0,0.0,0.0,0.0,0.0,0.0,0.0,0.0,0.0,0.0,0.0,0.0,0.0,0.0,0.0,0.0,0.0,0.0,0.0,0.0,0.0,0.0,0.0,0.0,0.0,0.0,0.0,0.0,0.0,0.0,0.0,0.0,0.0,0.0,0.0,0.0,0.0,0.0,0.0,0.0,0.0,0.0,0.0,0.0,0.0,0.0,0.0,0.0,0.0,0.0,0.0,0.0,0.0,0.0,0.0,0.0,0.0,0.0,0.0,0.0,0.0,0.0,0.0,0.0,0.0,0.0,0.0,0.0,0.0,0.0,0.0,0.0,0.0,0.0,0.0,0.0,0.0,0.0,0.0,0.0,0.0,0.0,0.0,0.0,0.0,0.0,0.0,0.0,0.0,0.0,0.0,0.0,0.0,0.0,0.0,0.0,0.0,0.0,0.0,0.0,0.0,0.0,0.0,-1.1974,-1.333,-1.3566,0.0,-1.2816,0.0,0.0,0.0,0.0,0.0,0.0,0.0,0.0,0.0,0.0,0.0,0.0,0.0,0.0,0.0,0.0,0.0,0.0,0.0,0.0,0.0,0.0,0.0,0.0,0.0,0.0,0.0,0.0,0.0,0.0,0.0,0.0,0.0,0.0,0.0,0.0,0.0,0.0,0.0,0.0,0.0,0.0,0.0,0.0,0.0,0.0,0.0,0.0,0.0,0.0,0.0,0.0,0.0,0.0,0.0,0.0,0.0,0.0,0.0,0.0,0.0,0.0,0.0,0.0,0.0,0.0,0.0,0.0,0.0,0.0,0.0,0.0,0.0,0.0,0.0,0.0,0.0,0.0,0.0,0.0,0.0,0.0,0.0,0.0,0.0,0.0,0.0,0.0,0.0,0.0,0.0,0.0,0.0,0.0,0.0,0.0,0.0,0.0,0.0,0.0,0.0,0.0,0.0,0.0,0.0,0.0,0.0,0.0,0.0,0.0,-1.244,-1.2128,-1.2551,-1.2565,0.0,0.0,0.0,0.0,0.0,0.0,0.0,0.0,0.0,0.0,0.0,0.0,0.0,0.0,0.0,0.0,0.0,0.0,0.0,0.0,0.0,0.0,0.0,0.0,0.0,0.0,0.0,0.0,0.0,0.0,0.0,0.0,0.0,0.0,0.0,0.0,0.0,0.0,0.0,0.0,0.0,0.0,0.0,0.0,0.0,0.0,0.0,0.0,0.0,0.0,0.0,0.0,0.0,0.0,0.0,0.0,0.0,0.0,0.0,0.0,0.0,0.0,0.0,0.0,0.0,0.0,0.0,0.0,0.0,0.0,0.0,0.0,0.0,0.0,0.0,0.0,0.0,0.0,0.0,0.0,0.0,0.0,0.0,0.0,0.0,0.0,0.0,0.0,0.0,0.0,0.0,0.0,0.0,0.0,0.0,0.0,0.0,0.0,0.0,0.0,0.0,0.0,0.0,0.0,0.0,0.0,0.0,0.0,0.0,0.0,-1.2504,-1.3236,-1.2515,-1.2483,-1.2419,-1.2313,0.0,0.0,0.0,0.0,0.0,0.0,0.0,0.0,0.0,0.0,0.0,0.0,0.0,0.0,0.0,0.0,0.0,0.0,0.0,0.0,0.0,0.0,0.0,0.0,0.0,0.0,0.0,0.0,0.0,0.0,0.0,0.0,0.0,0.0,0.0,0.0,0.0,0.0,0.0,0.0,0.0,0.0,0.0,0.0,0.0,0.0,0.0,0.0,0.0,0.0,0.0,0.0,0.0,0.0,0.0,0.0,0.0,0.0,0.0,0.0,0.0,0.0,0.0,0.0,0.0,0.0,0.0,0.0,0.0,0.0,0.0,0.0,0.0,0.0,0.0,0.0,0.0,0.0,0.0,0.0,0.0,0.0,0.0,0.0,0.0,0.0,0.0,0.0,0.0,0.0,0.0,0.0,0.0,0.0,0.0,0.0,0.0,0.0,0.0,0.0,0.0,0.0,0.0,0.0,0.0,0.0,0.0,0.0,-1.4232,-1.3837,-1.4325,-1.5733,-1.4103,-1.3594,0.0,0.0,0.0,0.0,0.0,0.0,0.0,0.0,0.0,0.0,0.0,0.0,0.0,0.0,0.0,0.0,0.0,0.0,0.0,0.0,0.0,0.0,0.0,0.0,0.0,0.0,0.0,0.0,0.0,0.0,0.0,0.0,0.0,0.0,0.0,0.0,0.0,0.0,0.0,0.0,0.0,0.0,0.0,0.0,0.0,0.0,0.0,0.0,0.0,0.0,0.0,0.0,0.0,0.0,0.0,0.0,0.0,0.0,0.0,0.0,0.0,0.0,0.0,0.0,0.0,0.0,0.0,0.0,0.0,0.0,0.0,0.0,0.0,0.0,0.0,0.0,0.0,0.0,0.0,0.0,0.0,0.0,0.0,0.0,0.0,0.0,0.0,0.0,0.0,0.0,0.0,0.0,0.0,0.0,0.0,0.0,0.0,0.0,0.0,0.0,0.0,0.0,0.0,0.0,0.0,0.0,0.0,0.0,0.0,-1.0005,-1.0294,-1.253,-1.653,-1.3579,-1.3626,0.0,0.0,0.0,0.0,0.0,0.0,0.0,0.0,0.0,0.0,0.0,0.0,0.0,0.0,0.0,0.0,0.0,0.0,0.0,0.0,0.0,0.0,0.0,0.0,0.0,0.0,0.0,0.0,0.0,0.0,0.0,0.0,0.0,0.0,0.0,0.0,0.0,0.0,0.0,0.0,0.0,0.0,0.0,0.0,0.0,0.0,0.0,0.0,0.0,0.0,0.0,0.0,0.0,0.0,0.0,0.0,0.0,0.0,0.0,0.0,0.0,0.0,0.0,0.0,0.0,0.0,0.0,0.0,0.0,0.0,0.0,0.0,0.0,0.0,0.0,0.0,0.0,0.0,0.0,0.0,0.0,0.0,0.0,0.0,0.0,0.0,0.0,0.0,0.0,0.0,0.0,0.0,0.0,0.0,0.0,0.0,0.0,0.0,0.0,0.0,0.0,0.0,0.0,0.0,0.0,0.0,0.0,0.0,0.0,-1.0523,-1.1415,-1.3637,-1.6985,-1.399,-1.3458,0.0,0.0,0.0,0.0,0.0,0.0,0.0,0.0,0.0,0.0,0.0,0.0,0.0,0.0,0.0,0.0,0.0,0.0,0.0,0.0,0.0,0.0,0.0,0.0,0.0,0.0,0.0,0.0,0.0,0.0,0.0,0.0,0.0,0.0,0.0,0.0,0.0,0.0,0.0,0.0,0.0,0.0,0.0,0.0,0.0,0.0,0.0,0.0,0.0,0.0,0.0,0.0,0.0,0.0,0.0,0.0,0.0,0.0,0.0,0.0,0.0,0.0,0.0,0.0,0.0,0.0,0.0,0.0,0.0,0.0,0.0,0.0,0.0,0.0,0.0,0.0,0.0,0.0,0.0,0.0,0.0,0.0,0.0,0.0,0.0,0.0,0.0,0.0,0.0,0.0,0.0,0.0,0.0,0.0,0.0,0.0,0.0,0.0,0.0,0.0,0.0,0.0,0.0,0.0,0.0,0.0,0.0,0.0,-1.2094,-1.6816,-1.7734,-1.7726,-1.7387,-1.5444,-1.3046,0.0,0.0,0.0,0.0,0.0,0.0,0.0,0.0,0.0,0.0,0.0,0.0,0.0,0.0,0.0,0.0,0.0,0.0,0.0,0.0,0.0,0.0,0.0,0.0,0.0,0.0,0.0,0.0,0.0,0.0,0.0,0.0,0.0,0.0,0.0,0.0,0.0,0.0,0.0,0.0,0.0,0.0,0.0,0.0,0.0,0.0,0.0,0.0,0.0,0.0,0.0,0.0,0.0,0.0,0.0,0.0,0.0,0.0,0.0,0.0,0.0,0.0,0.0,0.0,0.0,0.0,0.0,0.0,0.0,0.0,0.0,0.0,0.0,0.0,0.0,0.0,0.0,0.0,0.0,0.0,0.0,0.0,0.0,0.0,0.0,0.0,0.0,0.0,0.0,0.0,0.0,0.0,0.0,0.0,0.0,0.0,0.0,0.0,0.0,0.0,0.0,0.0,0.0,0.0,0.0,0.0,0.0,0.0,0.0,-1.2121,-1.4418,-1.6179,-1.7098,-1.433,-1.2837,0.0,0.0,0.0,0.0,0.0,0.0,0.0,0.0,0.0,0.0,0.0,0.0,0.0,0.0,0.0,0.0,0.0,0.0,0.0,0.0,0.0,0.0,0.0,0.0,0.0,0.0,0.0,0.0,0.0,0.0,0.0,0.0,0.0,0.0,0.0,0.0,0.0,0.0,0.0,0.0,0.0,0.0,0.0,0.0,0.0,0.0,0.0,0.0,0.0,0.0,0.0,0.0,0.0,0.0,0.0,0.0,0.0,0.0,0.0,0.0,0.0,0.0,0.0,0.0,0.0,0.0,0.0,0.0,0.0,0.0,0.0,0.0,0.0,0.0,0.0,0.0,0.0,0.0,0.0,0.0,0.0,0.0,0.0,0.0,0.0,0.0,0.0,0.0,0.0,0.0,0.0,0.0,0.0,0.0,0.0,0.0,0.0,0.0,0.0,0.0,0.0,0.0,0.0,0.0,0.0,0.0,0.0,0.0,0.0,-1.3913,-1.6853,-1.8804,-1.9383,-1.5973,-1.3624,-1.2578,0.0,0.0,0.0,0.0,0.0,0.0,0.0,0.0,0.0,0.0,0.0,0.0,0.0,0.0,0.0,0.0,0.0,0.0,0.0,0.0,0.0,0.0,0.0,0.0,0.0,0.0,0.0,0.0,0.0,0.0,0.0,0.0,0.0,0.0,0.0,0.0,0.0,0.0,0.0,0.0,0.0,0.0,0.0,0.0,0.0,0.0,0.0,0.0,0.0,0.0,0.0,0.0,0.0,0.0,0.0,0.0,0.0,0.0,0.0,0.0,0.0,0.0,0.0,0.0,0.0,0.0,0.0,0.0,0.0,0.0,0.0,0.0,0.0,0.0,0.0,0.0,0.0,0.0,0.0,0.0,0.0,0.0,0.0,0.0,0.0,0.0,0.0,0.0,0.0,0.0,0.0,0.0,0.0,0.0,0.0,0.0,0.0,0.0,0.0,0.0,0.0,0.0,0.0,0.0,0.0,0.0,0.0,0.0,-2.0572,-2.3895,-2.4819,-2.3249,-1.9774,-1.5382,0.0,0.0,0.0,0.0,0.0,0.0,0.0,0.0,0.0,0.0,0.0,0.0,0.0,0.0,0.0,0.0,0.0,0.0,0.0,0.0,0.0,0.0,0.0,0.0,0.0,0.0,0.0,0.0,0.0,0.0,0.0,0.0,0.0,0.0,0.0,0.0,0.0,0.0,0.0,0.0,0.0,0.0,0.0,0.0,0.0,0.0,0.0,0.0,0.0,0.0,0.0,0.0,0.0,0.0,0.0,0.0,0.0,0.0,0.0,0.0,0.0,0.0,0.0,0.0,0.0,0.0,0.0,0.0,0.0,0.0,0.0,0.0,0.0,0.0,0.0,0.0,0.0,0.0,0.0,0.0,0.0,0.0,0.0,0.0,0.0,0.0,0.0,0.0,0.0,0.0,0.0,0.0,0.0,0.0,0.0,0.0,0.0,0.0,0.0,0.0,0.0,0.0,0.0,0.0,0.0,0.0,0.0,0.0,0.0,-2.4198,-2.6375,-2.6856,-2.558,-2.1043,-1.7909,0.0,0.0,0.0,0.0,0.0,0.0,0.0,0.0,0.0,0.0,0.0,0.0,0.0,0.0,0.0,0.0,0.0,0.0,0.0,0.0,0.0,0.0,0.0,0.0,0.0,0.0,0.0,0.0,0.0,0.0,0.0,0.0,0.0,0.0,0.0,0.0,0.0,0.0,0.0,0.0,0.0,0.0,0.0,0.0,0.0,0.0,0.0,0.0,0.0,0.0,0.0,0.0,0.0,0.0,0.0,0.0,0.0,0.0,0.0,0.0,0.0,0.0,0.0,0.0,0.0,0.0,0.0,0.0,0.0,0.0,0.0,0.0,0.0,0.0,0.0,0.0,0.0,0.0,0.0,0.0,0.0,0.0,0.0,0.0,0.0,0.0,0.0,0.0,0.0,0.0,0.0,0.0,0.0,0.0,0.0,0.0,0.0,0.0,0.0,0.0,0.0,0.0,0.0,0.0,0.0,0.0,0.0,0.0,-2.147,-2.6473,-2.8546,-2.9372,-2.8927,-2.3534,-2.0053,0.0,0.0,0.0,0.0,0.0,0.0,0.0,0.0,0.0,0.0,0.0,0.0,0.0,0.0,0.0,0.0,0.0,0.0,0.0,0.0,0.0,0.0,0.0,0.0,0.0,0.0,0.0,0.0,0.0,0.0,0.0,0.0,0.0,0.0,0.0,0.0,0.0,0.0,0.0,0.0,0.0,0.0,0.0,0.0,0.0,0.0,0.0,0.0,0.0,0.0,0.0,0.0,0.0,0.0,0.0,0.0,0.0,0.0,0.0,0.0,0.0,0.0,0.0,0.0,0.0,0.0,0.0,0.0,0.0,0.0,0.0,0.0,0.0,0.0,0.0,0.0,0.0,0.0,0.0,0.0,0.0,0.0,0.0,0.0,0.0,0.0,0.0,0.0,0.0,0.0,0.0,0.0,0.0,0.0,0.0,0.0,0.0,0.0,0.0,0.0,0.0,0.0,0.0,0.0,0.0,0.0,0.0,0.0,-2.3604,-2.7799,-3.0234,-3.1771,-3.2089,-2.6415,-2.1829,0.0,0.0,0.0,0.0,0.0,0.0,0.0,0.0,0.0,0.0,0.0,0.0,0.0,0.0,0.0,0.0,0.0,0.0,0.0,0.0,0.0,0.0,0.0,0.0,0.0,0.0,0.0,0.0,0.0,0.0,0.0,0.0,0.0,0.0,0.0,0.0,0.0,0.0,0.0,0.0,0.0,0.0,0.0,0.0,0.0,0.0,0.0,0.0,0.0,0.0,0.0,0.0,0.0,0.0,0.0,0.0,0.0,0.0,0.0,0.0,0.0,0.0,0.0,0.0,0.0,0.0,0.0,0.0,0.0,0.0,0.0,0.0,0.0,0.0,0.0,0.0,0.0,0.0,0.0,0.0,0.0,0.0,0.0,0.0,0.0,0.0,0.0,0.0,0.0,0.0,0.0,0.0,0.0,0.0,0.0,0.0,0.0,0.0,0.0,0.0,0.0,0.0,0.0,0.0,0.0,0.0,0.0,0.0,-2.4279,-2.8984,-3.0213,-3.1272,-3.223,-2.7,-2.2823,0.0,0.0,0.0,0.0,0.0,0.0,0.0,0.0,0.0,0.0,0.0,0.0,0.0,0.0,0.0,0.0,0.0,0.0,0.0,0.0,0.0,0.0,0.0,0.0,0.0,0.0,0.0,0.0,0.0,0.0,0.0,0.0,0.0,0.0,0.0,0.0,0.0,0.0,0.0,0.0,0.0,0.0,0.0,0.0,0.0,0.0,0.0,0.0,-0.9163,0.0,0.0,0.0,0.0,0.0,0.0,0.0,0.0,0.0,0.0,0.0,0.0,0.0,0.0,0.0,0.0,0.0,0.0,0.0,0.0,0.0,0.0,0.0,0.0,0.0,0.0,0.0,0.0,0.0,0.0,0.0,0.0,0.0,0.0,0.0,0.0,0.0,0.0,0.0,0.0,0.0,0.0,0.0,0.0,0.0,0.0,0.0,0.0,0.0,0.0,0.0,0.0,0.0,0.0,0.0,0.0,0.0,0.0,0.0,-2.4926,-2.8612,-3.0182,-3.119,-3.1502,-2.8395,-2.4656,0.0,0.0,0.0,0.0,0.0,0.0,0.0,0.0,0.0,0.0,0.0,0.0,0.0,0.0,0.0,0.0,0.0,0.0,0.0,0.0,0.0,0.0,0.0,0.0,0.0,0.0,0.0,0.0,0.0,0.0,0.0,0.0,0.0,0.0,0.0,0.0,0.0,0.0,0.0,0.0,0.0,0.0,0.0,0.0,0.0,0.0,0.0,0.0,0.0,0.0,0.0,0.0,0.0,0.0,0.0,0.0,0.0,0.0,0.0,0.0,0.0,0.0,0.0,0.0,0.0,0.0,0.0,0.0,0.0,0.0,0.0,0.0,0.0,0.0,0.0,0.0,0.0,0.0,0.0,0.0,0.0,0.0,0.0,0.0,0.0,0.0,0.0,0.0,0.0,0.0,0.0,0.0,0.0,0.0,0.0,0.0,0.0,0.0,0.0,0.0,0.0,0.0,0.0,0.0,0.0,0.0,0.0,-2.1579,-2.5351,-2.8086,-3.0218,-3.1235,-3.0948,-2.9736,-2.6262,-2.0399,0.0,0.0,0.0,0.0,0.0,0.0,0.0,0.0,0.0,0.0,0.0,0.0,0.0,0.0,0.0,0.0,0.0,0.0,0.0,0.0,0.0,0.0,0.0,0.0,0.0,0.0,0.0,0.0,0.0,0.0,0.0,0.0,0.0,0.0,0.0,0.0,0.0,0.0,-0.8359,-0.9125,0.0,0.0,0.0,0.0,0.0,0.0,0.0,0.0,-0.9697,0.0,0.0,0.0,0.0,0.0,0.0,0.0,0.0,0.0,0.0,0.0,0.0,0.0,0.0,0.0,0.0,0.0,0.0,0.0,0.0,0.0,0.0,0.0,0.0,0.0,0.0,0.0,0.0,0.0,0.0,0.0,0.0,0.0,0.0,0.0,0.0,0.0,0.0,0.0,0.0,0.0,0.0,0.0,0.0,0.0,0.0,0.0,0.0,0.0,0.0,0.0,0.0,0.0,0.0,0.0,0.0,-2.0974,-2.2551,-2.5207,-2.9046,-3.0435,-3.1139,-3.109,-2.94,-2.5926,-2.0742,0.0,0.0,0.0,0.0,0.0,0.0,0.0,0.0,0.0,0.0,0.0,0.0,0.0,0.0,0.0,0.0,0.0,0.0,0.0,0.0,0.0,0.0,0.0,0.0,0.0,0.0,0.0,0.0,0.0,0.0,0.0,0.0,0.0,0.0,0.0,0.0,0.0,0.0,0.0,-1.1882,-1.2063,0.0,0.0,0.0,0.0,0.0,0.0,0.0,0.0,-0.9897,0.0,0.0,0.0,0.0,0.0,0.0,0.0,0.0,0.0,0.0,0.0,0.0,0.0,0.0,0.0,0.0,0.0,0.0,0.0,0.0,0.0,0.0,0.0,0.0,0.0,0.0,0.0,0.0,0.0,0.0,0.0,0.0,0.0,0.0,0.0,0.0,0.0,0.0,0.0,0.0,0.0,0.0,0.0,0.0,0.0,0.0,0.0,0.0,0.0,0.0,0.0,0.0,0.0,0.0,0.0,-1.9825,-2.3588,-2.6718,-2.9265,-3.0466,-3.1037,-3.0973,-2.9281,-2.5697,0.0,0.0,0.0,0.0,0.0,0.0,0.0,0.0,0.0,0.0,0.0,0.0,0.0,0.0,0.0,0.0,0.0,0.0,0.0,0.0,0.0,0.0,0.0,0.0,0.0,0.0,0.0,0.0,0.0,0.0,0.0,0.0,0.0,0.0,0.0,0.0,0.0,0.0,0.0,0.0,-1.3203,-1.3604,-1.517,0.0,0.0,0.0,0.0,0.0,0.0,-0.9832,-0.9707,0.0,0.0,0.0,0.0,0.0,0.0,0.0,0.0,0.0,0.0,0.0,0.0,0.0,0.0,0.0,0.0,0.0,0.0,0.0,0.0,0.0,0.0,0.0,0.0,0.0,0.0,0.0,0.0,0.0,0.0,0.0,0.0,0.0,0.0,0.0,0.0,0.0,0.0,0.0,0.0,0.0,0.0,0.0,0.0,0.0,0.0,0.0,0.0,0.0,0.0,0.0,0.0,0.0,0.0,0.0,-1.7754,-2.3686,-2.7483,-2.8921,-3.0258,-3.0916,-3.0803,-2.887,-2.5187,0.0,0.0,0.0,0.0,0.0,0.0,0.0,0.0,0.0,0.0,0.0,0.0,0.0,0.0,0.0,0.0,0.0,0.0,0.0,0.0,0.0,0.0,0.0,0.0,0.0,0.0,0.0,0.0,0.0,0.0,0.0,0.0,0.0,0.0,0.0,0.0,0.0,0.0,0.0,0.0,0.0,-1.485,-1.623,-1.4221,0.0,0.0,0.0,0.0,-1.0435,-1.0439,0.0,0.0,0.0,0.0,0.0,0.0,0.0,0.0,0.0,0.0,0.0,0.0,0.0,0.0,0.0,0.0,0.0,0.0,0.0,0.0,0.0,0.0,0.0,0.0,0.0,0.0,0.0,0.0,0.0,0.0,0.0,0.0,0.0,0.0,0.0,0.0,0.0,0.0,0.0,0.0,0.0,0.0,0.0,0.0,0.0,0.0,0.0,0.0,0.0,0.0,0.0,0.0,0.0,0.0,0.0,0.0,-1.6698,-2.1369,-2.5091,-2.7632,-2.9768,-3.0852,-3.083,-2.7503,-2.3971,0.0,0.0,0.0,0.0,0.0,0.0,0.0,0.0,0.0,0.0,0.0,0.0,0.0,0.0,0.0,0.0,0.0,0.0,0.0,0.0,0.0,0.0,0.0,0.0,0.0,0.0,0.0,0.0,0.0,0.0,0.0,0.0,0.0,0.0,0.0,0.0,0.0,0.0,0.0,0.0,0.0,-1.5545,-1.5265,-1.4211,-1.3092,0.0,0.0,-1.3632,-1.4653,-1.505,0.0,0.0,0.0,0.0,0.0,0.0,0.0,0.0,0.0,0.0,0.0,0.0,0.0,0.0,0.0,0.0,0.0,0.0,0.0,0.0,0.0,0.0,0.0,0.0,0.0,0.0,0.0,0.0,0.0,0.0,0.0,0.0,0.0,0.0,0.0,0.0,0.0,0.0,0.0,0.0,0.0,0.0,0.0,0.0,0.0,0.0,0.0,0.0,0.0,0.0,0.0,0.0,0.0,0.0,0.0,-1.4768,-1.6476,-2.2318,-2.6036,-2.7328,-2.9305,-3.0309,-3.0251,-2.6885,-2.34,0.0,0.0,0.0,0.0,0.0,0.0,0.0,0.0,0.0,0.0,0.0,0.0,0.0,0.0,0.0,0.0,0.0,0.0,0.0,0.0,0.0,0.0,0.0,0.0,0.0,0.0,0.0,0.0,0.0,0.0,0.0,0.0,0.0,0.0,0.0,0.0,0.0,0.0,0.0,0.0,0.0,0.0,-1.6291,-1.4946,0.0,0.0,0.0,-1.3403,-1.3279,0.0,0.0,0.0,0.0,0.0,0.0,0.0,0.0,0.0,0.0,0.0,0.0,0.0,0.0,0.0,0.0,0.0,0.0,0.0,0.0,0.0,0.0,0.0,0.0,0.0,0.0,0.0,0.0,0.0,0.0,0.0,0.0,0.0,0.0,0.0,0.0,0.0,0.0,0.0,0.0,0.0,0.0,0.0,0.0,0.0,0.0,0.0,0.0,0.0,0.0,0.0,0.0,0.0,0.0,0.0,0.0,0.0,-1.587,-2.2958,-2.6788,-2.695,-2.8703,-2.958,-2.9414,-2.6505,0.0,0.0,0.0,0.0,0.0,0.0,0.0,0.0,0.0,0.0,0.0,0.0,0.0,0.0,0.0,0.0,0.0,0.0,0.0,0.0,0.0,0.0,0.0,0.0,0.0,0.0,0.0,-0.4611,0.0,0.0,0.0,0.0,0.0,0.0,0.0,0.0,0.0,0.0,0.0,0.0,0.0,0.0,-1.5643,-1.6559,-1.5547,-1.473,0.0,0.0,-1.3691,-1.3105,-1.48,-1.5083,0.0,0.0,0.0,0.0,0.0,0.0,0.0,0.0,0.0,0.0,0.0,0.0,0.0,0.0,0.0,0.0,0.0,0.0,0.0,0.0,0.0,0.0,0.0,0.0,0.0,0.0,0.0,0.0,0.0,0.0,0.0,0.0,0.0,0.0,0.0,0.0,0.0,0.0,0.0,0.0,0.0,0.0,0.0,0.0,0.0,0.0,0.0,0.0,0.0,0.0,0.0,0.0,0.0,0.0,-1.479,-1.4719,-2.1995,-2.5972,-2.6211,-2.7769,-2.862,-2.8515,-2.6104,-2.2631,0.0,0.0,0.0,0.0,0.0,0.0,0.0,0.0,0.0,0.0,0.0,0.0,0.0,0.0,0.0,0.0,0.0,0.0,0.0,0.0,0.0,0.0,0.0,0.0,0.0,0.0,0.0,0.0,0.0,0.0,0.0,0.0,0.0,0.0,0.0,0.0,0.0,0.0,0.0,0.0,0.0,-1.4084,-1.4936,-1.5554,-1.6127,0.0,-1.6517,-1.6327,-1.6757,-1.8054,-1.7376,-1.2464,0.0,0.0,0.0,0.0,0.0,0.0,0.0,0.0,0.0,0.0,0.0,0.0,0.0,0.0,0.0,0.0,0.0,0.0,0.0,0.0,0.0,0.0,0.0,0.0,0.0,0.0,0.0,0.0,0.0,0.0,0.0,0.0,0.0,0.0,0.0,0.0,0.0,0.0,0.0,0.0,0.0,0.0,0.0,0.0,0.0,0.0,0.0,0.0,0.0,0.0,0.0,0.0,0.0,-1.4425,-1.4575,-2.1415,-2.514,-2.5507,-2.6934,-2.7736,-2.7657,-2.5774,-2.3001,0.0,0.0,0.0,0.0,0.0,0.0,0.0,0.0,0.0,0.0,0.0,0.0,0.0,0.0,0.0,0.0,0.0,0.0,0.0,0.0,0.0,0.0,0.0,0.0,0.0,0.0,0.0,0.0,-0.78,-0.8115,-0.7062,0.0,0.0,0.0,0.0,0.0,0.0,0.0,0.0,0.0,0.0,-1.4892,-1.6751,-1.681,0.0,0.0,-1.7922,-1.749,-1.7071,-1.737,-1.6326,-1.2357,-1.0504,0.0,0.0,0.0,0.0,0.0,0.0,0.0,0.0,0.0,0.0,0.0,0.0,0.0,0.0,0.0,0.0,0.0,0.0,0.0,0.0,0.0,0.0,0.0,0.0,0.0,0.0,0.0,0.0,0.0,0.0,0.0,0.0,0.0,0.0,0.0,0.0,0.0,0.0,0.0,0.0,0.0,0.0,0.0,0.0,0.0,0.0,0.0,0.0,0.0,0.0,0.0,0.0,-1.4022,-1.4369,-2.0917,-2.456,-2.5099,-2.6219,-2.6837,-2.6786,-2.5498,-2.3334,0.0,0.0,0.0,0.0,0.0,0.0,0.0,0.0,0.0,0.0,0.0,0.0,0.0,0.0,0.0,0.0,0.0,0.0,0.0,0.0,0.0,0.0,0.0,0.0,0.0,0.0,0.0,0.0,-0.7684,-0.7878,-0.6768,0.0,0.0,0.0,0.0,0.0,0.0,0.0,0.0,0.0,0.0,-1.5177,-1.7122,-1.684,-1.6695,-1.7536,-1.7259,-1.6715,-1.5921,-1.5854,-1.4916,-1.1811,0.0,0.0,0.0,0.0,0.0,0.0,0.0,0.0,0.0,0.0,0.0,0.0,0.0,0.0,0.0,0.0,0.0,0.0,0.0,0.0,0.0,0.0,0.0,0.0,0.0,0.0,0.0,-0.6508,0.0,0.0,-0.8404,0.0,0.0,0.0,0.0,0.0,0.0,0.0,0.0,0.0,0.0,0.0,0.0,0.0,0.0,0.0,0.0,0.0,0.0,0.0,0.0,0.0,0.0,-1.3516,-1.3802,-2.044,-2.4288,-2.5056,-2.5628,-2.5898,-2.5886,-2.5357,-2.3526,-2.0281,0.0,0.0,0.0,0.0,0.0,0.0,0.0,0.0,0.0,0.0,0.0,0.0,0.0,0.0,0.0,0.0,0.0,0.0,0.0,0.0,0.0,0.0,0.0,0.0,0.0,0.0,-0.3762,-0.5183,-0.6448,0.0,0.0,0.0,0.0,0.0,0.0,0.0,0.0,0.0,-1.1417,-1.3057,-1.433,-1.5195,-1.5136,-1.5032,-1.4593,-1.4096,-1.3639,-1.3386,-1.384,-1.349,0.0,0.0,0.0,0.0,0.0,0.0,0.0,0.0,0.0,0.0,0.0,0.0,0.0,0.0,0.0,0.0,0.0,0.0,0.0,0.0,0.0,0.0,0.0,0.0,0.0,0.0,0.0,-0.9632,-1.0165,0.0,0.0,0.0,0.0,0.0,0.0,0.0,0.0,0.0,0.0,0.0,-1.4272,-1.5212,0.0,0.0,0.0,0.0,0.0,0.0,0.0,0.0,0.0,0.0,0.0,0.0,-1.3024,-1.3905,-2.0306,-2.3956,-2.4449,-2.5286,-2.5676,-2.5688,-2.5505,-2.4564,-2.258,0.0,0.0,0.0,0.0,0.0,0.0,0.0,0.0,0.0,0.0,0.0,0.0,0.0,0.0,0.0,0.0,0.0,0.0,0.0,0.0,0.0,0.0,0.0,0.0,0.0,-0.4808,0.0,0.0,0.0,0.0,0.0,0.0,0.0,0.0,0.0,0.0,-0.8713,-1.039,-1.2289,-1.327,-1.4373,-1.5854,-1.6002,-1.634,0.0,0.0,0.0,0.0,0.0,0.0,0.0,0.0,0.0,0.0,0.0,0.0,0.0,0.0,-0.3431,-0.1999,-0.1696,-0.1242,0.0138,0.0,0.0,0.0,0.0,0.0,0.0,0.0,0.0,0.0,0.0,0.0,0.0,0.0,0.0,-1.3,0.0,-1.3898,0.0,0.0,0.0,0.0,0.0,0.0,0.0,0.0,-1.5053,-1.6441,-1.7416,-1.8338,-1.8074,-1.6709,-1.5222,-1.3235,0.0,0.0,0.0,0.0,0.0,0.0,0.0,0.0,-1.2883,-1.4612,-2.0056,-2.3356,-2.4097,-2.4719,-2.5229,-2.5453,-2.5073,-2.4396,-2.3548,-1.8132,-1.3419,0.0,0.0,0.0,0.0,0.0,0.0,0.0,0.0,0.0,0.0,0.0,0.0,0.0,0.0,0.0,0.0,0.0,0.0,0.0,0.0,0.0,0.0,0.0,-0.5014,0.0,0.0,0.0,0.0,0.0,0.0,0.0,0.0,0.0,-0.9001,-1.0204,-1.1558,-1.311,-1.3802,-1.438,-1.4985,0.0,0.0,0.0,0.0,0.0,0.0,0.0,-1.0357,-0.9097,-0.8016,-0.7123,-0.6607,-0.5885,-0.5197,-0.4708,0.0,0.0,-0.3235,-0.2523,-0.1634,-0.0071,0.0197,0.0179,0.0182,0.2065,0.3533,0.0,0.0,0.0,0.0,-1.2014,0.0,0.0,0.0,-1.6546,-1.6233,0.0,-1.7348,0.0,0.0,0.0,0.0,-1.1048,-1.4117,0.0,0.0,-1.9407,-2.094,-2.0537,-2.0664,-2.09,-2.0989,-1.8471,-1.6693,-1.5449,-1.2606,0.0,0.0,0.0,0.0,0.0,0.0,-1.3199,-1.6093,-1.9891,-2.2499,-2.3975,-2.4036,-2.4409,-2.5146,-2.3967,-2.3254,-2.2831,-1.8835,-1.6655,-1.6698,-0.9928,0.0,0.0,0.0,0.0,0.0,0.0,0.0,0.0,0.0,0.0,0.0,0.0,0.0,0.0,0.0,0.0,0.0,0.0,0.0,0.0,-0.4435,0.0,0.0,0.0,0.0,0.0,0.0,0.0,0.0,0.0,-0.9098,-1.088,-1.1241,-1.1988,-1.3703,0.0,0.0,0.0,0.0,-1.3026,-1.0685,-0.9879,-0.9742,-0.9824,-1.0554,-1.084,-1.006,0.0,0.0,-0.7696,-0.6224,-0.5132,-0.4113,-0.4593,-0.4989,-0.4811,-0.3305,-0.1598,-0.0273,0.0164,0.0359,0.0573,0.3039,0.5677,-2.0659,0.0,0.0,0.0,0.0,-1.6398,-1.8026,-2.1306,-2.0535,-2.0122,-2.0005,-2.0552,0.0,0.0,0.0,0.0,0.0,0.0,-1.6143,-1.814,-1.8689,-1.995,-2.1877,-2.2187,-2.2363,-2.2283,-2.0873,-1.9913,-1.9378,-1.7493,-1.3884,-0.8836,0.0,0.0,0.0,0.0,-1.4785,-1.6597,-1.9971,-2.1983,-2.2424,-2.3021,-2.339,-2.3694,-2.2594,-2.2347,-2.2905,-1.9715,-1.7536,-1.6864,-1.4854,0.0,0.0,0.0,0.0,0.0,0.0,0.0,0.0,0.0,0.0,0.0,0.0,0.0,0.0,0.0,0.0,0.0,0.0,0.0,-0.3492,-0.4882,-0.5662,0.0,0.0,0.0,0.0,0.0,0.0,0.0,0.0,0.0,-1.1042,-1.1418,-1.1617,0.0,0.0,-1.1868,-1.1195,-1.2023,-1.2818,-1.3327,-1.2634,0.0,-1.3574,-1.2421,-1.1349,-1.1055,-1.0196,-0.8984,-0.7369,-0.6966,-0.6284,-0.4412,-0.5117,-0.5971,-0.5903,-0.5245,-0.3456,-0.0873,0.0093,0.0089,0.0183,0.111,0.2787,-2.5516,-2.2519,-2.0332,-2.0252,-2.1432,-2.0467,-2.2009,-2.5121,-2.4164,-2.3525,-2.3208,-2.3788,-2.2179,-1.8871,-1.799,0.0,0.0,0.0,-1.8249,-2.0131,-1.9625,-2.0299,-2.1942,-2.2265,-2.2459,-2.2412,-2.1235,-2.0661,-2.0794,-1.8839,-1.6656,-1.4199,0.0,-1.2181,-1.412,-1.4924,-1.6103,-1.7744,-2.0106,-2.1461,-2.1832,-2.2585,-2.2883,-2.251,-2.1832,-2.16,-2.1755,-1.9615,-1.7906,-1.6957,-1.692,-1.4689,0.0,0.0,0.0,0.0,0.0,0.0,0.0,0.0,0.0,0.0,0.0,-0.3185,-0.4078,0.0,0.0,0.0,-0.3509,-0.4368,-0.4476,-0.5605,0.0,0.0,0.0,0.0,0.0,0.0,0.0,-0.7492,-0.9176,-1.0533,-1.1228,-1.1539,-1.1877,-1.243,-1.2398,-1.206,-1.1533,0.0,-1.3205,-1.3712,-1.3156,-1.3035,-1.3893,-1.3199,-1.2394,-1.1601,-0.9685,-0.8007,-0.7219,-0.7413,-0.7065,-0.5555,-0.577,-0.6393,-0.639,-0.4864,-0.2848,-0.0,-0.0,-0.0,-0.0,-0.0,0.1293,-2.9136,-2.8647,-2.3538,-2.267,-2.4548,-2.4126,-2.5315,-2.753,-2.7108,-2.6344,-2.5408,-2.6728,-2.4934,-2.0793,-1.9797,0.0,-2.0145,-2.0901,-2.1431,-2.1822,-2.1576,-2.1394,-2.1237,-2.1446,-2.1617,-2.1832,-2.0286,-1.9795,-2.0167,-1.7853,-1.7772,-1.973,-1.6931,-1.6343,-1.7966,-1.6877,-1.7301,-1.9248,-2.0059,-2.0864,-2.168,-2.2435,-2.2424,-2.168,-2.1461,-2.0938,-1.9936,-1.8939,-1.8,-1.7081,-1.6951,-1.5872,-1.355,0.0,0.0,0.0,0.0,0.0,0.0,0.0,0.0,0.0,0.0,0.0,0.0,0.0,0.0,0.0,-0.485,0.0,-0.6344,-0.6377,0.0,0.0,0.0,-0.5346,-0.688,-0.7814,-0.8466,-0.8754,0.0,0.0,-1.1352,-1.1768,-1.255,-1.4155,-1.4177,-1.3691,-1.2734,-1.3445,-1.3796,-1.2796,-1.2499,-1.232,-1.2608,-1.3237,-1.3121,-1.1642,-0.9389,-0.7706,-0.7278,-0.7582,-0.7513,-0.5773,-0.5886,-0.5787,-0.5888,-0.2629,-0.0,-0.0,-0.0,-0.0,-0.0,-0.0,0.1417,-2.9136,-2.8979,-2.7252,-2.6642,-2.6826,-2.6729,-2.6991,-2.756,-2.761,-2.7229,-2.668,-2.7575,-2.7352,-2.6289,-2.5894,-2.5269,-2.4453,-2.3717,-2.294,-2.222,-2.1315,-2.0858,-2.0884,-2.1315,-2.126,-2.0779,-2.0497,-2.0171,-1.975,-1.9274,-1.8846,-1.8616,-1.8482,-1.8657,-1.8923,-1.8186,-1.8252,-1.9268,-1.9482,-2.0062,-2.0847,-2.1098,-2.1021,-2.0634,-2.0401,-2.0188,-1.9898,-1.906,-1.8375,-1.7806,-1.7213,-1.6165,-1.4555,-1.1688,0.0,0.0,0.0,0.0,0.0,0.0,0.0,0.0,0.0,-0.4029,-0.4089,0.0,-0.2948,0.0,-0.3289,-0.4818,-0.5211,-0.5762,0.0,0.0,-0.6832,-0.7197,-1.0277,-0.9295,-0.8722,-0.9461,-1.0182,-1.0792,-1.105,-1.2129,-1.291,-1.3288,-1.3034,-1.2603,-1.2172,-1.3404,-1.416,-1.3806,-1.3459,-1.3751,-1.4407,-1.3121,-1.1666,-1.0867,-0.9094,-0.784,-0.7714,-0.7912,-0.669,-0.2626,-0.1515,-0.1516,-0.1516,-0.0613,-0.0,-0.0,-0.0,-0.0,-0.0,0.0722,0.2069,-2.8854,-2.8811,-2.8286,-2.7944,-2.779,-2.764,-2.7625,-2.7675,-2.7575,-2.724,-2.6864,-2.7276,-2.7445,-2.7403,-2.7819,-2.7145,-2.5603,-2.4946,-2.3955,-2.2791,-2.1891,-2.1302,-2.1054,-2.1368,-2.1118,-2.0436,-2.022,-2.0026,-1.9783,-1.9626,-1.9474,-1.9323,-1.9947,-1.9991,-1.9539,-1.8726,-1.8251,-1.8223,-1.8916,-1.9707,-2.0527,-2.0576,-1.9944,-1.8711,-1.9144,-1.9551,-1.9917,-1.8133,-1.6564,-1.5254,-1.6587,-1.6178,-1.3397,-1.1076,-0.9578,0.0,0.0,0.0,0.0,0.0,0.0,0.0,0.0,0.0,0.0,0.0,-0.3796,-0.2712,-0.4085,-0.5031,-0.5143,-0.58,-0.667,-0.7949,-0.7393,-0.785,-1.0369,-0.977,-0.9365,-0.9901,-1.0376,-1.0711,-1.092,-1.1492,-1.189,-1.1905,-1.1818,-1.1736,-1.1769,-1.248,-1.3009,-1.3137,-1.2865,-1.2832,-1.3788,-1.1309,-0.9514,-0.9831,-0.8426,-0.7158,-0.7205,-0.5663,-0.3443,-0.0,-0.0,-0.0,0.2667,0.3222,0.2955,0.1915,0.1577,0.1975,0.2934,0.3044,0.3579,-2.8576,-2.8458,-2.802,-2.784,-2.7955,-2.7725,-2.7725,-2.779,-2.7393,-2.7019,-2.6602,-2.651,-2.6416,-2.649,-2.747,-2.6946,-2.5292,-2.5228,-2.4553,-2.3402,-2.275,-2.2126,-2.1642,-2.1551,-2.1184,-2.0532,-1.9805,-1.9622,-1.9907,-1.9587,-1.9802,-2.0526,-2.0793,-2.0514,-1.9576,-1.8704,-1.7816,-1.7061,-1.8389,-1.9404,-2.0127,-2.0049,-1.8844,-1.6635,-1.7678,-1.8666,-1.9155,-1.6656,-1.409,-1.1931,-1.5219,-1.5495,-1.1752,-1.0287,-0.9462,0.0,-0.7009,0.0,0.0,0.0,0.0,0.0,0.0,0.0,0.0,-0.4137,-0.4531,-0.4923,-0.5711,-0.6003,-0.5593,-0.6118,-0.6853,-0.7897,-0.7774,-0.7993,-0.912,-0.9672,-0.9861,-0.9957,-1.029,-1.0583,-1.0565,-1.0471,-1.0444,-1.0474,-1.0591,-1.0745,-1.1097,-1.1241,-1.1608,-1.1724,-1.125,-1.1078,-1.0746,-0.8601,-0.7479,-0.8834,-0.7769,-0.6196,-0.5484,-0.2542,-0.0,-0.0,-0.0,-0.0,0.632,0.7032,0.6345,0.4444,0.4093,0.471,0.6216,0.5667,0.5445,-2.8569,-2.8559,-2.8017,-2.779,-2.784,-2.7905,-2.7955,-2.7955,-2.7974,-2.7745,-2.7261,-2.6418,-2.624,-2.6674,-2.7202,-2.6769,-2.5525,-2.5393,-2.4696,-2.3468,-2.2855,-2.243,-2.2217,-2.1747,-2.1184,-2.0623,-2.0177,-1.9785,-1.9471,-1.989,-1.9948,-1.9557,-2.0006,-1.9417,-1.7978,0.0,0.0,0.0,-1.7754,-1.7812,-1.7852,-1.7079,-1.6383,-1.5685,-1.6296,0.0,-1.578,-1.5253,-1.4315,-1.2876,-1.2726,0.0,0.0,0.0,0.0,0.0,0.0,0.0,0.0,0.0,0.0,0.0,-0.4273,-0.407,-0.3703,-0.4198,-0.463,-0.4654,-0.5494,-0.6031,-0.6034,-0.6426,-0.7149,-0.8335,-0.8268,-0.8762,-1.0184,-0.9441,-0.8879,-0.9265,-0.9288,-0.9304,-0.9505,-0.9989,-1.0108,-0.9496,-0.9488,-0.9308,-0.8791,-1.0433,-1.1612,-1.1538,-1.0592,-0.9522,-0.8081,-0.7154,-0.6669,-0.7138,-0.6964,-0.5163,-0.2061,-0.0,-0.0,-0.0,-0.0,0.1598,0.6256,0.7183,0.7021,0.6554,0.6445,0.6641,0.7114,0.6423,0.6219,-2.9424,-2.9147,-2.8625,-2.844,0.0,-2.829,-2.8201,-2.8217,-2.8186,-2.7795,-2.7056,-2.6258,-2.6042,-2.6336,-2.6782,-2.6602,-2.5839,-2.5635,-2.501,-2.4206,-2.3705,-2.3289,-2.2929,-2.2559,-2.2042,-2.1514,-2.1027,-2.0613,-2.0296,-2.0683,-2.0625,-2.0112,-2.0807,-2.0502,-1.9353,-1.9412,-1.9206,-1.8511,-1.8298,-1.8305,-1.8538,-1.8094,-1.7148,-1.5813,-1.6752,0.0,0.0,0.0,0.0,0.0,0.0,0.0,0.0,-1.144,0.0,-0.9928,-0.8159,-0.696,-0.6621,-0.5817,-0.5512,-0.5956,-0.5482,-0.4801,-0.4175,-0.4865,-0.5264,-0.5146,-0.5764,-0.6168,-0.6154,-0.6377,-0.6839,-0.7628,-0.7694,-0.8031,-0.8715,-0.8428,-0.8137,-0.8333,-0.8127,-0.8024,-0.8226,-0.8312,-0.8299,-0.8014,-0.8014,-0.7921,-0.7692,-0.8826,-0.9654,-0.9475,-0.9089,-0.8257,-0.732,-0.6695,-0.6499,-0.6819,-0.6654,-0.4673,-0.0725,-0.0,-0.0,-0.0,0.1837,0.4233,0.4949,0.6311,0.7232,0.7157,0.7168,0.7265,0.7318,0.7188,0.7194,-3.0263,-2.9862,-2.9372,-2.9149,-2.9149,-2.8713,-2.8581,-2.8532,-2.8118,0.0,0.0,-2.6042,-2.5729,-2.577,-2.6336,-2.6312,-2.5882,-2.5729,-2.5342,-2.4929,-2.4505,-2.4055,-2.3576,-2.3332,-2.2923,-2.2387,-2.189,-2.1542,-2.1307,-2.1446,-2.1453,-2.1252,-2.1808,-2.1821,-2.1185,-2.0809,-2.0148,-1.9171,-1.886,-1.8858,-1.9288,-1.9174,-1.8056,-1.5908,-1.7223,-1.5634,-1.0877,-1.3081,-1.3346,-1.103,-1.0568,-1.0346,-1.0122,-1.1719,-1.2038,-1.0504,-0.9134,-0.8182,-0.7642,-0.6885,-0.6624,-0.6933,-0.6266,-0.5573,-0.4887,-0.5496,-0.5879,-0.5841,-0.6123,-0.6274,-0.6198,-0.638,-0.6539,-0.6745,-0.6845,-0.6942,-0.7138,-0.7341,-0.7444,-0.7444,-0.7238,-0.7138,-0.7238,-0.6833,-0.6483,-0.6603,-0.6832,-0.6861,-0.6994,-0.7442,-0.7721,-0.7502,-0.7573,-0.7381,-0.7119,-0.6167,-0.6233,-0.6841,-0.6687,-0.4812,-0.0,-0.0,-0.0,-0.0,-0.0,0.5865,0.4912,0.5933,0.7173,0.716,0.7268,0.7379,0.7604,0.7823,0.8042,-3.0447,-3.0328,-2.9877,-2.9448,-2.9042,-2.9037,-2.9158,-2.9127,-2.7616,-2.6849,-2.6625,-2.5577,-2.5118,-2.516,-2.5715,-2.5702,-2.5213,-2.5453,-2.5313,-2.474,-2.4474,-2.4208,-2.3968,-2.3459,-2.2936,-2.2411,-2.2229,-2.1831,-2.1485,-2.1663,-2.1777,-2.1827,-2.1808,-2.1553,-2.1058,-2.0886,-2.0527,-1.9743,-1.8123,-1.7206,-1.7058,-1.6234,-1.566,-1.5267,-1.5949,-1.5613,-1.4057,-1.3777,-1.3165,-1.1992,-1.2087,-1.2024,-1.179,-1.2349,-1.2172,-1.0879,-1.0085,-0.9271,-0.8381,-0.7534,-0.6877,-0.6514,-0.6361,-0.6062,-0.561,-0.5866,-0.6037,-0.624,-0.6314,-0.6309,-0.6399,-0.6628,-0.6745,-0.6745,-0.7039,-0.7039,-0.6842,-0.6945,-0.7045,-0.7241,-0.6839,-0.6736,-0.7036,-0.6736,-0.6478,-0.66,-0.6719,-0.6883,-0.707,-0.7265,-0.7268,-0.7135,-0.7059,-0.6967,-0.6765,-0.4971,-0.4504,-0.6231,-0.6233,-0.4598,-0.0,-0.0,-0.0,-0.0,0.4019,0.65,0.6515,0.6847,0.7173,0.7157,0.7379,0.7496,0.7607,0.8045,0.8374,-3.1536,-3.1389,-3.0633,-3.0196,-3.0054,-2.9898,-2.9899,-2.9833,-2.8757,-2.7842,-2.7215,-2.6412,-2.5644,-2.5075,-2.5286,-2.53,-2.4989,-2.5118,-2.4894,-2.4399,-2.4323,-2.4234,-2.4189,-2.3825,-2.3576,-2.3311,-2.3276,-2.2903,-2.2414,-2.2627,-2.2509,-2.1987,-2.17,-2.1439,-2.1098,-2.0974,-2.0654,-2.0079,-1.9069,-1.8439,-1.8073,-1.7631,-1.7224,-1.6722,-1.6954,-1.6428,-1.5048,-1.4743,-1.413,-1.3194,-1.3118,-1.3046,-1.2883,-1.2782,-1.2443,-1.1837,-1.0621,-0.9749,-0.9318,-0.7841,-0.67,-0.626,-0.6292,-0.6193,-0.5926,-0.6034,-0.6195,-0.641,-0.6388,-0.6377,-0.6431,-0.6539,-0.6542,-0.6539,-0.6736,-0.6736,-0.6639,-0.6745,-0.6842,-0.6942,-0.6739,-0.6742,-0.6942,-0.6639,-0.645,-0.6526,-0.6679,-0.6877,-0.6947,-0.6012,-0.5817,-0.6829,-0.7111,-0.7032,-0.6832,-0.3829,-0.2209,-0.2847,-0.2888,-0.2168,-0.0,-0.0,-0.0,0.3254,0.494,0.5723,0.6847,0.7176,0.7163,0.7271,0.7382,0.7604,0.7826,0.8266,0.8712,-3.2492,-3.2336,-3.146,-3.1061,-3.0989,-3.0547,-3.0452,-3.0575,-3.019,-2.9322,-2.8126,-2.7271,-2.6259,-2.5279,-2.5073,-2.5005,-2.4892,-2.4791,-2.4513,-2.4165,-2.4239,-2.4247,-2.4247,-2.4157,-2.406,-2.3955,-2.4047,-2.3682,-2.299,-2.3369,-2.3094,-2.2121,-2.1754,-2.1436,-2.1215,-2.1051,-2.0741,-2.0342,-2.0108,-1.9706,-1.9213,-1.9063,-1.8647,-1.7836,-1.7747,-1.6935,-1.556,-1.5394,-1.4985,-1.4166,-1.3737,-1.3555,-1.3555,-1.3045,-1.2528,-1.2009,-1.0707,-0.9662,-0.9144,-0.7577,-0.6542,-0.6218,-0.6244,-0.6174,-0.6083,-0.6222,-0.6339,-0.642,-0.6434,-0.6434,-0.6437,-0.6437,-0.6437,-0.6437,-0.6437,-0.6437,-0.6437,-0.6642,-0.6745,-0.6745,-0.6745,-0.6742,-0.6745,-0.6539,-0.6453,-0.6412,-0.6572,-0.6749,-0.6658,-0.5435,-0.5266,-0.5951,-0.6852,-0.7138,-0.6936,-0.3261,-0.0,-0.0,-0.0,-0.0,-0.0,-0.0,0.2689,0.596,0.5609,0.5603,0.6842,0.7282,0.7271,0.7379,0.7601,0.8045,0.8702,0.9037,0.9154,-3.2841,-3.2453,-3.2235,-3.1732,-3.098,-3.0456,-3.0676,-3.1274,-3.1236,-3.0563,-2.929,-2.7641,-2.6509,-2.5796,-2.5249,-2.4932,-2.4761,-2.4633,-2.4434,-2.4131,-2.4099,-2.4112,-2.4112,-2.4112,-2.3825,-2.3459,-2.3864,-2.3502,-2.2477,-2.3135,-2.3133,-2.2402,-2.1993,-2.1568,-2.1195,-2.1205,-2.0886,-2.0342,-2.0264,-1.9784,-1.8816,-1.8327,-1.7755,-1.7123,-1.6944,-1.637,-1.5394,-1.5394,-1.4985,-1.4166,-1.3652,-1.3392,-1.3392,-1.296,-1.1923,-1.0356,-1.0009,-0.9144,-0.7316,-0.6523,-0.6221,-0.6253,-0.6182,-0.6164,-0.6094,-0.6293,-0.6423,-0.6437,-0.6437,-0.6437,-0.6437,-0.6437,-0.6437,-0.6437,-0.6437,-0.6437,-0.6437,-0.6437,-0.6539,-0.6745,-0.6542,-0.6539,-0.6645,-0.6542,-0.638,-0.6047,-0.6297,-0.6544,-0.6983,-0.6785,-0.5506,-0.483,-0.562,-0.6707,-0.6284,-0.3158,-0.0,-0.0,-0.0,-0.0,-0.0,0.3356,0.6868,0.6522,0.6966,0.6844,0.6951,0.7396,0.7496,0.7598,0.8039,0.8806,1.0014,1.0425,1.0089,-3.361,-3.3351,-3.2672,-3.2053,-3.1445,-3.1283,-3.1479,-3.1873,-3.1888,-3.1231,-3.006,-2.8987,-2.7511,-2.5887,-2.5629,-2.5287,-2.4875,-2.4691,-2.4478,-2.4292,-2.4157,-2.4125,-2.4125,-2.4125,-2.3981,-2.3785,-2.4008,-2.3618,-2.2842,-2.2432,-2.2298,-2.2346,-2.1713,-2.136,-2.1151,-2.07,-2.0157,-1.9706,-1.9063,-1.8256,-1.7521,-1.7917,-1.7504,-1.6378,-1.6049,-1.5553,-1.4748,-1.4657,-1.4412,-1.4088,-1.3652,-1.3398,-1.3398,-1.296,-1.1832,-1.0091,-0.9222,-0.8181,-0.6523,-0.6171,-0.6048,-0.6082,-0.6112,-0.6086,-0.6097,-0.6301,-0.6437,-0.6437,-0.6437,-0.6437,-0.6437,-0.6437,-0.6437,-0.6437,-0.6437,-0.6437,-0.6437,-0.6437,-0.6439,-0.6553,-0.6456,-0.6356,-0.6561,-0.6461,-0.5869,-0.5112,-0.5439,-0.632,-0.6603,-0.6979,-0.5504,-0.258,-0.2355,-0.2797,-0.0,-0.1551,-0.0,-0.0,-0.0,-0.0,-0.0,0.4041,0.7094,0.7201,0.719,0.7176,0.7165,0.739,0.7607,0.7811,0.8613,0.9548,1.0301,1.0852,1.069,-3.425,-3.3901,-3.267,-3.2078,-3.1951,-3.1587,-3.1703,-3.2145,-3.1992,-3.1357,-3.0511,-3.0134,-2.8582,-2.6331,-2.5968,-2.5561,-2.5003,-2.4721,-2.4593,-2.4439,-2.4247,-2.4157,-2.4171,-2.4099,-2.4125,-2.4125,-2.4112,-2.3739,-2.296,-2.1717,-2.1393,-2.1832,-2.1301,-2.099,-2.0903,-2.0358,-1.9907,-1.9537,-1.8594,-1.7691,-1.7033,-1.7432,-1.7017,-1.5477,-1.5151,-1.4741,-1.4173,-1.4088,-1.4088,-1.3997,-1.3307,-1.3137,-1.3398,-1.2625,-1.1413,-0.9666,-0.8356,-0.7221,-0.6171,-0.6025,-0.6006,-0.5945,-0.6067,-0.6151,-0.6203,-0.6339,-0.6431,-0.6448,-0.6445,-0.6445,-0.6442,-0.6445,-0.6445,-0.6445,-0.6448,-0.6448,-0.6448,-0.6448,-0.6453,-0.6364,-0.5754,-0.5856,-0.6271,-0.6276,-0.5564,-0.3139,-0.3527,-0.4454,-0.4362,-0.4239,-0.3321,-0.0553,-0.0,-0.0,-0.0,-0.0,-0.0,-0.0,-0.0,-0.0,0.1681,0.5506,0.7086,0.7187,0.7179,0.7171,0.7274,0.7382,0.7796,0.8197,0.8988,1.0056,1.0763,1.1467,1.1714,-3.4546,-3.3887,-3.2238,-3.1952,-3.2439,-3.076,-3.0858,-3.2145,-3.1564,-3.0968,-3.0615,-3.0793,-2.9371,-2.6788,-2.6244,-2.5517,-2.4889,-2.4791,-2.4734,-2.4593,-2.4363,-2.4305,-2.4305,-2.4157,-2.4125,-2.4171,-2.4125,-2.3666,-2.2787,-2.1385,-2.0769,-2.0998,-2.0807,-2.0615,-2.0288,-2.0192,-2.0262,-1.9726,-1.9169,-1.8638,-1.7764,-1.687,-1.5884,-1.465,-1.4328,-1.4173,-1.4088,-1.4088,-1.3997,-1.3737,-1.2607,-1.2351,-1.3052,-1.1785,-1.0135,-0.8632,-0.7136,-0.626,-0.6094,-0.6006,-0.5937,-0.6059,-0.617,-0.6301,-0.6374,-0.6415,-0.6445,-0.6372,-0.6366,-0.6364,-0.6361,-0.6155,-0.616,-0.6168,-0.6271,-0.6268,-0.6271,-0.6065,-0.6374,-0.607,-0.4541,-0.4034,-0.5866,-0.6385,-0.4244,-0.1518,-0.0411,-0.0312,0.0209,0.0636,0.0536,0.0107,0.043,-0.0,-0.0,-0.0,-0.0,-0.0,0.157,0.2915,0.5502,0.7424,0.7184,0.7173,0.7276,0.7382,0.7376,0.768,0.8182,0.8777,0.9651,1.0509,1.1516,1.253,1.2751,-3.4167,-3.4002,-3.3013,-3.2531,-3.2321,-3.1324,-3.1332,-3.1894,-3.1794,-3.1327,-3.0793,-3.0896,-2.9651,-2.7367,-2.7145,-2.6263,-2.4989,-2.4835,-2.4778,-2.4734,-2.4549,-2.4492,-2.4492,-2.4447,-2.439,-2.439,-2.4261,-2.356,-2.2366,-2.127,-2.0632,-2.0425,-2.0318,-1.9484,-1.8152,-1.8294,-1.8233,-1.764,-1.6875,-1.6314,-1.6011,-1.5477,-1.4985,-1.4243,-1.4237,-1.4243,-1.4088,-1.4088,-1.373,-1.2851,-1.226,-1.1832,-1.1391,-0.9318,-0.8105,-0.7921,-0.6786,-0.5997,-0.5922,-0.5927,-0.5934,-0.6013,-0.6173,-0.6317,-0.641,-0.6437,-0.6448,-0.6369,-0.6385,-0.6385,-0.6075,-0.5251,-0.4334,-0.4336,-0.4338,-0.434,-0.434,-0.434,-0.4847,-0.5464,-0.3433,-0.1614,-0.0,-0.0,-0.1716,-0.0303,0.0616,0.114,0.1458,0.1582,0.1384,0.1066,0.0854,0.0857,-0.0,-0.0,-0.0,-0.0,0.2466,0.381,0.5944,0.7393,0.7601,0.7697,0.7805,0.7674,0.7656,0.7819,0.8425,0.9625,1.048,1.1156,1.2324,1.3179,1.338,-3.3736,-3.3519,-3.2841,-3.2468,-3.2091,-3.1011,-3.1027,-3.1679,-3.1456,-3.0994,-3.0514,-3.0514,-2.9449,-2.7804,-2.7595,-2.6903,-2.5644,-2.5227,-2.4962,-2.4835,-2.4721,-2.4677,-2.4677,-2.4607,-2.4549,-2.4434,-2.4047,-2.3255,-2.2163,-2.1325,-2.0691,-2.0117,-1.9931,-1.8694,-1.6836,-1.7162,-1.7173,-1.628,-1.5597,-1.5205,-1.4986,-1.4768,-1.4573,-1.4243,-1.4243,-1.4243,-1.4088,-1.3633,-1.3027,-1.2163,-1.1112,-1.0077,-0.9218,-0.7478,-0.6602,-0.6953,-0.6435,-0.5911,-0.5746,-0.5839,-0.5934,-0.601,-0.6168,-0.632,-0.642,-0.6437,-0.5842,-0.4847,-0.4351,-0.4354,-0.4452,-0.4244,-0.3734,-0.2621,-0.2116,-0.2218,-0.2218,-0.2117,-0.2825,-0.3435,-0.1817,-0.0,-0.0,-0.0,-0.0,0.0404,0.1227,0.1544,0.1548,0.1559,0.1573,0.1573,0.1673,0.2097,0.2535,0.2666,0.2715,0.3297,0.3765,0.4998,0.6015,0.7232,0.7996,0.81,0.8191,0.806,0.8019,0.8065,0.9051,1.0326,1.1021,1.147,1.2527,1.3562,1.3734,-3.3342,-3.271,-3.1646,-3.1584,-3.1571,-2.9894,-2.9948,-3.1237,-3.0565,-2.9985,-2.974,-2.9682,-2.8898,-2.7647,-2.7542,-2.713,-2.6539,-2.5841,-2.5313,-2.5018,-2.4892,-2.4778,-2.4778,-2.4677,-2.4549,-2.435,-2.3564,-2.2834,-2.2113,-2.1491,-2.0873,-2.0183,-1.9767,-1.8499,-1.6323,-1.7245,-1.7396,-1.6368,-1.5755,-1.5617,-1.5511,-1.4911,-1.4566,-1.4314,-1.4159,-1.3997,-1.3997,-1.2656,-1.1975,-1.1569,-0.9096,-0.7183,-0.7044,-0.652,-0.6254,-0.5985,-0.5727,-0.5733,-0.5744,-0.5839,-0.595,-0.6034,-0.6192,-0.6028,-0.5613,-0.6037,-0.483,-0.1613,-0.0,-0.0,-0.0,-0.3338,-0.4048,-0.0,-0.0,-0.0,-0.0,-0.0,-0.0,-0.0,-0.0,-0.0,-0.0,-0.0,0.0505,0.1213,0.1519,0.1623,0.1624,0.1731,0.1723,0.1925,0.2444,0.3282,0.4123,0.4777,0.4986,0.5293,0.5545,0.6228,0.6803,0.7795,0.7967,0.8167,0.8233,0.8103,0.822,0.8468,0.9172,1.0301,1.0887,1.1895,1.2975,1.3943,1.4226,-3.2448,-3.2595,-3.1981,-3.1565,-3.1303,-3.0713,-3.0478,-3.0206,-3.0043,-2.974,-2.9406,-2.9537,-2.9146,-2.8398,-2.828,-2.7725,-2.6764,-2.6092,-2.5633,-2.5313,-2.5075,-2.4948,-2.4948,-2.4892,-2.4778,-2.4492,-2.4247,-2.3399,-2.2298,-2.1854,-2.1233,-2.0238,-1.979,-1.8412,-1.6426,-1.6623,-1.6171,-1.4883,-1.4679,-1.4684,-1.4676,-1.4566,-1.4307,-1.3984,-1.3906,-1.3476,-1.2699,-1.2174,-1.1563,-1.088,-0.9213,-0.7914,-0.6874,-0.626,-0.5994,-0.5991,-0.5819,-0.5733,-0.5746,-0.5833,-0.588,-0.5909,-0.6013,-0.4636,-0.2912,-0.4738,-0.4234,-0.0,-0.0,-0.0,-0.0,-0.101,-0.0,-0.0,-0.0,-0.0,-0.0,-0.0,-0.0,-0.0,-0.0,-0.0,-0.0,0.0505,0.1111,0.1415,0.1617,0.1617,0.1717,0.222,0.2723,0.2823,0.3729,0.4433,0.4873,0.5618,0.6205,0.632,0.6701,0.6883,0.7565,0.7877,0.8043,0.8302,0.8367,0.8354,0.8469,0.9038,0.9819,1.0706,1.1697,1.2607,1.3534,1.41,1.449,-3.1719,-3.1803,-3.1374,-3.093,-3.0597,-3.0643,-3.01,-2.9348,-2.9595,-2.9131,-2.8367,-2.8483,-2.8412,-2.8038,-2.7975,-2.7677,-2.7031,-2.6299,-2.5798,-2.5592,-2.5188,-2.5005,-2.4948,-2.4892,-2.4791,-2.462,-2.4447,-2.3767,-2.2543,-2.2163,-2.1428,-2.0259,-1.9747,-1.8499,-1.6515,-1.6245,-1.5455,-1.3888,-1.3717,-1.3803,-1.387,-1.3919,-1.3697,-1.3275,-1.3045,-1.2443,-1.1408,-1.1068,-1.0544,-0.9753,-0.8798,-0.7753,-0.6792,-0.6174,-0.5822,-0.5997,-0.5911,-0.5733,-0.5741,-0.5795,-0.5841,-0.585,-0.5925,-0.5144,-0.3071,-0.4209,-0.2411,-0.0,-0.0,-0.0,-0.0,-0.0,-0.0,-0.0,-0.0,-0.0,-0.0,-0.0,-0.0,-0.0,-0.0,0.0505,0.0808,0.0808,0.1415,0.1516,0.1617,0.1919,0.212,0.2722,0.3224,0.3825,0.473,0.5231,0.5429,0.625,0.7175,0.7379,0.7689,0.7691,0.788,0.8141,0.8297,0.9017,0.9255,0.8845,0.8954,0.9835,1.0631,1.1614,1.2635,1.3125,1.3806,1.4298,1.4688,-3.1113,-3.0458,-3.005,-2.9893,-2.9681,-2.947,-2.916,-2.881,-2.8872,-2.8166,-2.7102,-2.7074,-2.7018,-2.6876,-2.7129,-2.7306,-2.7371,-2.6463,-2.5948,-2.5743,-2.5355,-2.5061,-2.5005,-2.4791,-2.4677,-2.4563,-2.4332,-2.3721,-2.2847,-2.2298,-2.1432,-2.0202,-1.9704,-1.8586,-1.695,-1.6394,-1.5259,-1.3558,-1.3297,-1.3306,-1.3265,-1.3144,-1.2895,-1.2263,-1.1866,-1.1198,-1.0274,-0.9419,-0.8903,-0.8632,-0.7753,-0.7139,-0.6704,-0.6086,-0.5908,-0.6086,-0.5819,-0.5733,-0.5733,-0.5749,-0.5784,-0.5869,-0.5831,-0.5818,-0.5514,-0.266,-0.0591,0.0095,-0.0,-0.0,-0.0,-0.0,-0.0,-0.0,-0.0,-0.0,-0.0,-0.0,-0.0,-0.0,0.0909,0.1516,0.1415,0.1212,0.1313,0.1717,0.1919,0.2321,0.3124,0.3725,0.4024,0.4826,0.5832,0.6625,0.6924,0.7425,0.8347,0.8977,0.9075,0.8962,0.8749,0.8896,0.9052,0.9742,1.0173,0.9747,0.9735,1.0739,1.2016,1.3244,1.3806,1.3806,1.4004,1.4592,1.4975,-3.0465,-2.9962,-2.9863,-2.9387,-2.8765,-2.8645,-2.872,-2.8579,-2.7555,-2.7369,-2.7314,-2.7046,-2.6891,-2.7185,-2.7317,-2.7469,-2.7219,-2.6529,-2.6042,-2.5839,-2.5536,-2.5257,-2.5075,-2.4948,-2.4791,-2.4607,-2.4376,-2.3767,-2.2408,-2.2051,-2.1325,-2.0129,-1.9615,-1.8926,-1.7909,-1.6778,-1.5534,-1.4095,-1.3486,-1.3224,-1.297,-1.2435,-1.205,-1.1767,-1.0884,-0.9952,-0.9039,-0.8105,-0.758,-0.758,-0.7316,-0.6874,-0.652,-0.6257,-0.6083,-0.5819,-0.5733,-0.5733,-0.5733,-0.5738,-0.5763,-0.5795,-0.5786,-0.5776,-0.573,-0.2295,-0.0,0.0662,-0.0,-0.0,-0.0,-0.0,-0.0,-0.0,-0.0,-0.0,-0.0,-0.0,-0.0,-0.0,-0.0,0.1616,0.1818,0.1717,0.1918,0.2825,0.3025,0.3123,0.4126,0.4931,0.5331,0.5932,0.6833,0.7826,0.852,0.8916,0.9513,1.0395,1.0632,1.056,1.0423,1.0406,1.0569,1.0801,1.1306,1.1091,1.1282,1.178,1.3318,1.4682,1.4688,1.449,1.4688,1.5172,1.5261,-3.0215,-2.9782,-2.9531,-2.8996,-2.836,-2.8388,-2.8141,-2.7633,-2.7102,-2.6651,-2.6621,-2.654,-2.6524,-2.6773,-2.7086,-2.7223,-2.7043,-2.6522,-2.6218,-2.6042,-2.5702,-2.5313,-2.5061,-2.4948,-2.4791,-2.4549,-2.4247,-2.3518,-2.2531,-2.1877,-2.1215,-2.0662,-1.9735,-1.8714,-1.7449,-1.6778,-1.5455,-1.3935,-1.3305,-1.3064,-1.2752,-1.1883,-1.1135,-1.0669,-0.9737,-0.875,-0.7982,-0.7369,-0.7139,-0.7139,-0.7051,-0.6962,-0.6612,-0.626,-0.5991,-0.5819,-0.5733,-0.5733,-0.5738,-0.5744,-0.5752,-0.5679,-0.5748,-0.4756,-0.3391,-0.111,0.0372,0.111,0.0806,0.0541,0.0466,0.0948,0.1435,-0.0,0.1467,0.1289,0.0806,-0.0,-0.0,0.1514,0.2119,0.2825,0.3226,0.3126,0.3325,0.3927,0.4026,0.4526,0.5229,0.6034,0.6637,0.7036,0.7534,0.8326,0.9114,0.9509,1.0583,1.1463,1.2247,1.215,1.1755,1.1755,1.1853,1.2052,1.2344,1.264,1.2732,1.3119,1.419,1.507,1.5172,1.5267,1.5458,1.5825,1.5913,-3.0156,-2.9677,-2.909,-2.8606,-2.825,-2.8173,-2.755,-2.6666,-2.6747,-2.6344,-2.556,-2.5702,-2.5937,-2.5948,-2.6562,-2.6756,-2.6823,-2.6568,-2.6351,-2.6136,-2.5729,-2.5244,-2.4935,-2.4835,-2.4664,-2.4363,-2.3623,-2.3088,-2.2347,-2.1388,-2.1047,-2.0738,-1.9735,-1.822,-1.6913,-1.6289,-1.5092,-1.3542,-1.3075,-1.2757,-1.2303,-1.1301,-1.041,-0.9722,-0.8595,-0.7852,-0.7336,-0.7114,-0.7017,-0.7119,-0.7136,-0.6962,-0.6704,-0.6086,-0.5822,-0.5911,-0.5824,-0.5738,-0.5746,-0.5752,-0.5668,-0.5684,-0.5233,-0.378,-0.0,-0.0,0.0362,0.1176,0.1556,0.1834,0.1631,0.28,0.3776,0.398,0.3987,0.3391,0.2384,0.1908,0.2511,0.3828,0.3929,0.4622,0.5233,0.5331,0.4824,0.4931,0.5129,0.5529,0.6129,0.6734,0.7238,0.7637,0.8134,0.8627,0.9414,1.01,1.1365,1.2533,1.3511,1.3613,1.2732,1.2635,1.2926,1.3221,1.3516,1.3811,1.4004,1.4586,1.535,1.6103,1.6574,1.6292,1.6008,1.6567,1.6749,-2.9661,-2.9212,-2.8638,-2.8174,-2.7725,-2.7233,-2.7316,-2.7608,-2.6353,-2.6106,-2.6204,-2.5855,-2.5702,-2.5879,-2.6258,-2.6539,-2.6779,-2.6659,-2.6592,-2.6244,-2.5577,-2.5077,-2.4808,-2.4708,-2.4421,-2.3872,-2.3386,-2.2531,-2.1502,-2.0869,-2.027,-1.9965,-1.9383,-1.8045,-1.656,-1.6035,-1.5384,-1.3897,-1.3185,-1.2553,-1.1783,-1.0458,-0.9483,-0.9048,-0.7837,-0.712,-0.7111,-0.6991,-0.6987,-0.7107,-0.7092,-0.6966,-0.6526,-0.5997,-0.5735,-0.5652,-0.5652,-0.5565,-0.5665,-0.5492,-0.5589,-0.5138,-0.3057,-0.0898,-0.0359,-0.0,0.0359,0.1247,0.3369,0.4124,0.3696,0.5131,0.5858,0.5931,0.6005,0.57,0.4712,0.405,0.4009,0.4478,0.4971,0.5447,0.5815,0.5415,0.5418,0.5829,0.6234,0.6634,0.7036,0.7437,0.7736,0.8038,0.8726,0.9217,1.0391,1.1268,1.2533,1.3414,1.4196,1.4694,1.3811,1.3703,1.3992,1.4292,1.4598,1.4885,1.4879,1.5812,1.656,1.7311,1.7963,1.7591,1.7397,1.7677,1.7677,-2.9377,-2.8685,-2.8432,-2.8027,-2.756,-2.7255,-2.7363,-2.7422,-2.6392,-2.6036,-2.6244,-2.5743,-2.5647,-2.5893,-2.619,-2.6472,-2.6659,-2.65,-2.615,-2.5687,-2.5077,-2.4496,-2.4034,-2.393,-2.3649,-2.3148,-2.2457,-2.1604,-2.0944,-2.0172,-1.9758,-1.9557,-1.9039,-1.7833,-1.6285,-1.587,-1.5013,-1.3528,-1.2666,-1.1922,-1.1093,-0.9669,-0.834,-0.7939,-0.6987,-0.66,-0.6699,-0.6672,-0.6753,-0.6994,-0.7051,-0.6897,-0.645,-0.5922,-0.5749,-0.557,-0.421,-0.3942,-0.3859,-0.3771,-0.3411,-0.3145,-0.0987,-0.009,0.0719,0.1168,0.1616,0.2322,0.3782,0.5127,0.5031,0.551,0.6407,0.6884,0.6926,0.6598,0.6028,0.532,0.4973,0.5264,0.5627,0.6147,0.6295,0.6046,0.6297,0.7003,0.7036,0.7335,0.7434,0.7736,0.7839,0.8233,0.9019,1.0002,1.1268,1.2538,1.3902,1.4394,1.4688,1.4981,1.4592,1.4682,1.4968,1.5166,1.5356,1.5363,1.554,1.656,1.7855,1.9155,1.9621,1.9163,1.8788,1.8511,1.8419,-2.9134,-2.8288,-2.8255,-2.7978,-2.7625,-2.7575,-2.7342,-2.7009,-2.654,-2.6077,-2.5761,-2.5519,-2.5536,-2.5853,-2.6042,-2.6312,-2.6379,-2.6165,-2.5756,-2.5245,-2.4553,-2.3917,-2.3327,-2.2847,-2.2494,-2.2372,-2.1592,-2.0921,-2.0442,-1.9736,-1.9142,-1.9106,-1.8761,-1.7201,-1.5765,-1.5404,-1.4665,-1.3105,-1.2077,-1.1254,-1.049,-0.9064,-0.7714,-0.6602,-0.6294,-0.6128,-0.6244,-0.6273,-0.6197,-0.6124,-0.6714,-0.6672,-0.5911,-0.5211,-0.5037,-0.4853,-0.2955,-0.1968,-0.1522,-0.1254,-0.0717,0.0179,0.009,0.0538,0.1346,0.2066,0.2604,0.3309,0.4164,0.5087,0.5726,0.599,0.626,0.6701,0.6844,0.681,0.6691,0.6102,0.586,0.6145,0.6352,0.6771,0.7152,0.7327,0.7703,0.7974,0.8004,0.8028,0.8021,0.8011,0.8089,0.847,0.9335,1.1234,1.2705,1.3284,1.4651,1.4949,1.5076,1.5214,1.5201,1.5451,1.5604,1.5778,1.592,1.5913,1.6379,1.7397,1.8872,2.0718,2.0997,2.0266,1.9712,1.9338,1.9322,-2.8873,-2.824,-2.7894,-2.766,-2.7625,-2.7575,-2.7174,-2.6533,-2.6383,-2.5867,-2.5225,-2.5116,-2.5313,-2.5536,-2.5605,-2.5688,-2.5784,-2.5729,-2.5425,-2.4851,-2.4092,-2.3339,-2.2725,-2.1877,-2.121,-2.0892,-2.0613,-2.0291,-1.9726,-1.9075,-1.8566,-1.7852,-1.7531,-1.6296,-1.4757,-1.4244,-1.4034,-1.2739,-1.1706,-1.0875,-1.004,-0.868,-0.7318,-0.6099,-0.5914,-0.5767,-0.5723,-0.5833,-0.4755,-0.2045,-0.5055,-0.5515,-0.4202,-0.222,-0.1973,-0.233,-0.2059,-0.0984,0.0179,0.0717,0.0987,0.1076,0.0807,0.0897,0.1436,0.1705,0.2511,0.3748,0.4676,0.5656,0.6586,0.6586,0.6724,0.7017,0.6956,0.6878,0.6847,0.6773,0.6662,0.6904,0.704,0.7178,0.7483,0.7685,0.7856,0.7931,0.799,0.8217,0.8329,0.8304,0.8279,0.8848,0.961,1.2001,1.4327,1.4512,1.5164,1.5158,1.5279,1.5593,1.5714,1.6012,1.6249,1.6649,1.6721,1.6713,1.7368,1.8303,1.948,2.1024,2.1221,2.1132,2.081,2.0552,2.0891,-2.867,-2.7944,-2.766,-2.756,-2.7625,-2.7675,-2.7358,-2.678,-2.6508,-2.6048,-2.5517,-2.5168,-2.5188,-2.5439,-2.5508,-2.5605,-2.5703,-2.5244,-2.4821,-2.4041,-2.3258,-2.2372,-2.1877,-2.0955,-2.0388,-1.9998,-1.9857,-1.9791,-1.9274,-1.9008,-1.8133,-1.7328,-1.7023,-1.5782,-1.4016,-1.3894,-1.331,-1.2298,-1.1105,-1.0126,-0.9286,-0.777,-0.6553,-0.6096,-0.564,-0.5171,-0.4555,-0.5241,-0.3758,-0.1359,-0.2182,-0.2554,-0.1777,-0.0874,-0.009,-0.0358,-0.0358,-0.0,0.1166,0.1436,0.1346,0.1346,0.1166,0.1705,0.2242,0.2422,0.2686,0.4723,0.5598,0.6508,0.6954,0.6976,0.697,0.6983,0.6912,0.6871,0.6905,0.7011,0.7232,0.7399,0.7344,0.7322,0.7349,0.7629,0.7799,0.7879,0.7959,0.8286,0.8605,0.8649,0.86,0.9621,1.0462,1.2283,1.4484,1.4971,1.5132,1.5153,1.5456,1.5756,1.6197,1.6528,1.7255,1.7968,1.7854,1.7751,1.811,1.8926,2.0225,2.1181,2.103,2.1117,2.1581,2.1858,2.1867,-2.848,-2.756,-2.756,-2.756,-2.7625,-2.774,-2.7484,-2.7006,-2.6619,-2.6159,-2.5717,-2.5236,-2.5131,-2.5383,-2.5466,-2.5605,-2.5701,-2.4748,-2.4041,-2.3128,-2.2494,-2.16,-2.0722,-2.027,-2.0009,-1.9539,-1.9341,-1.9218,-1.9085,-1.8664,-1.7775,-1.6858,-1.6688,-1.5536,-1.3705,-1.3491,-1.2652,-1.1545,-1.0196,-0.9069,-0.7778,-0.663,-0.5864,-0.5864,-0.5488,-0.4709,-0.4077,-0.2433,-0.1257,0.0393,0.0315,-0.0159,0.0082,0.0256,0.0615,0.124,0.1427,0.1434,0.1436,0.1436,0.1436,0.1436,0.1436,0.2422,0.3497,0.3494,0.3755,0.6337,0.7044,0.7037,0.7105,0.7041,0.7083,0.7049,0.6963,0.6958,0.714,0.7279,0.7393,0.7414,0.7453,0.7549,0.7768,0.7622,0.7784,0.7977,0.8153,0.8313,0.8702,0.8901,0.9225,1.0311,1.1446,1.2796,1.4185,1.4943,1.4982,1.4947,1.5424,1.5987,1.653,1.7071,1.7977,1.8803,1.911,1.895,1.9331,1.9554,2.0336,2.0857,2.0857,2.1128,2.1504,2.1712,2.1627,-2.8174,-2.756,-2.756,-2.756,-2.7625,-2.7725,-2.7284,-2.6504,-2.65,-2.5934,-2.5252,-2.5073,-2.5005,-2.5131,-2.5327,-2.4919,-2.439,-2.4144,-2.3471,-2.2359,-2.1975,-2.1388,-2.056,-2.0237,-1.9791,-1.9341,-1.9208,-1.9008,-1.8741,-1.8104,-1.7189,-1.6271,-1.5296,-1.4106,-1.3288,-1.3018,-1.2298,-1.1335,-1.0126,-0.8613,-0.7019,-0.6099,-0.5873,-0.5569,-0.5344,-0.4961,-0.3688,-0.0548,0.3219,0.3377,0.1491,0.0397,0.0484,0.0961,0.1149,0.1271,0.1401,0.1436,0.1432,0.1434,0.1436,0.1436,0.1524,0.2511,0.3764,0.4924,0.545,0.6782,0.7139,0.7143,0.7231,0.7305,0.7383,0.7418,0.7411,0.751,0.7625,0.7924,0.8041,0.8402,0.8661,0.844,0.8355,0.8093,0.7934,0.8046,0.8329,0.8666,0.9054,0.9604,1.0078,1.1138,1.2004,1.3338,1.4052,1.4705,1.4863,1.475,1.5568,1.6204,1.6814,1.7497,1.8507,1.92,1.9624,2.0003,2.0229,2.0364,2.0587,2.0564,2.0699,2.1009,2.1499,2.1453,2.137,-2.7576,-2.761,-2.756,-2.756,-2.7625,-2.7725,-2.7357,-2.6707,-2.6443,-2.6028,-2.5384,-2.5005,-2.4948,-2.5005,-2.4948,-2.4518,-2.3949,-2.3603,-2.264,-2.1667,-2.1313,-2.088,-2.0183,-1.9857,-1.9594,-1.9198,-1.9075,-1.8942,-1.8462,-1.7765,-1.6922,-1.5939,-1.4887,-1.3905,-1.3046,-1.2746,-1.1774,-1.0496,-0.8908,-0.7314,-0.6167,-0.5712,-0.5485,-0.494,-0.4878,-0.4724,-0.3217,0.1332,0.4724,0.48,0.3219,0.2598,0.2309,0.2481,0.2849,0.3205,0.3223,0.2689,0.1671,0.1513,0.1521,0.1614,0.1972,0.3045,0.4563,0.5808,0.6609,0.7051,0.7139,0.7143,0.7323,0.7415,0.7595,0.765,0.7941,0.8269,0.8492,0.8763,0.9057,0.9502,0.9947,0.973,0.9676,0.9689,0.9529,0.9504,0.9744,0.9944,1.0494,1.1149,1.1614,1.2181,1.2898,1.3741,1.406,1.4536,1.4663,1.4829,1.5963,1.6589,1.7064,1.7861,1.8886,1.9539,1.986,2.0361,2.0912,2.0808,2.0604,2.0575,2.0483,2.0851,2.1211,2.1269,2.1269,-2.6826,-2.7111,-2.7475,-2.756,-2.7625,-2.7725,-2.7357,-2.6707,-2.6443,-2.6028,-2.5495,-2.5061,-2.4892,-2.4948,-2.4664,-2.4416,-2.4066,-2.315,-2.2015,-2.1192,-2.0666,-2.0313,-1.9868,-1.9539,-1.9264,-1.8865,-1.8931,-1.8529,-1.7833,-1.7276,-1.6558,-1.5869,-1.4752,-1.376,-1.2966,-1.2224,-1.1248,-0.9513,-0.7923,-0.6472,-0.5389,-0.5004,-0.454,-0.3999,-0.3454,-0.2904,-0.1722,0.1799,0.4873,0.4951,0.4792,0.4084,0.3542,0.3978,0.4088,0.4203,0.3955,0.3522,0.265,0.2262,0.2037,0.2315,0.3221,0.4565,0.5092,0.6425,0.7143,0.7231,0.7231,0.7415,0.7595,0.7683,0.8028,0.8288,0.8536,0.8978,0.9492,0.9808,1.0053,1.0408,1.0935,1.1466,1.1402,1.1483,1.1397,1.1042,1.1117,1.1268,1.1724,1.2283,1.2711,1.296,1.3363,1.3906,1.4176,1.4374,1.4467,1.5036,1.6141,1.6968,1.7585,1.847,1.9608,2.002,2.0186,2.0428,2.0761,2.0675,2.0579,2.0603,2.0585,2.0643,2.0878,2.1035,2.1094,-2.6031,-2.5839,-2.71,-2.75,-2.755,-2.7725,-2.7159,-2.6179,-2.6304,-2.5753,-2.4829,-2.4881,-2.4786,-2.484,-2.4646,-2.4399,-2.404,-2.3378,-2.2115,-2.1106,-2.0484,-2.0129,-1.9681,-1.9274,-1.8931,-1.8317,-1.8385,-1.7755,-1.6862,-1.6567,-1.6009,-1.5384,-1.433,-1.3462,-1.2512,-1.1477,-1.0265,-0.868,-0.7238,-0.616,-0.4916,-0.4062,-0.3209,-0.235,0.0078,0.2668,0.4088,0.4711,0.5021,0.5021,0.5021,0.5093,0.4779,0.5196,0.5213,0.4836,0.4412,0.4151,0.3792,0.3481,0.3552,0.4017,0.4858,0.5994,0.5983,0.6605,0.7143,0.7411,0.7496,0.7944,0.8032,0.8116,0.8803,0.9244,0.968,1.0111,1.0631,1.0971,1.1219,1.1402,1.1837,1.2443,1.2705,1.2699,1.2522,1.2174,1.202,1.2082,1.2407,1.2966,1.3313,1.3568,1.3828,1.4122,1.4277,1.4635,1.5252,1.5914,1.682,1.7513,1.8141,1.9116,2.0098,2.0264,2.042,2.0498,2.0576,2.0546,2.0595,2.0566,2.0615,2.0684,2.0703,2.0771,2.0762,-2.5621,-2.5659,-2.6168,-2.6363,-2.6363,-2.6426,-2.6007,-2.5409,-2.514,-2.457,-2.3743,-2.3811,-2.3865,-2.3825,-2.3552,-2.3444,-2.3187,-2.2209,-2.1398,-2.0871,-2.0344,-1.9933,-1.9473,-1.889,-1.8385,-1.7949,-1.7668,-1.7198,-1.6437,-1.586,-1.4988,-1.4291,-1.3535,-1.2813,-1.1781,-1.0426,-0.8983,-0.7757,-0.6538,-0.5384,-0.3906,-0.3287,-0.2272,-0.0706,0.0941,0.3297,0.4557,0.4867,0.5021,0.5018,0.5018,0.5321,0.5699,0.6093,0.6089,0.5928,0.5608,0.5314,0.5039,0.4634,0.4176,0.5031,0.5818,0.6609,0.6688,0.7316,0.7316,0.758,0.8105,0.864,0.9906,0.996,1.0188,1.0544,1.089,1.1327,1.1757,1.2015,1.2363,1.2528,1.296,1.3483,1.3659,1.3743,1.3483,1.3215,1.3049,1.2999,1.325,1.347,1.3822,1.3913,1.4082,1.4615,1.4768,1.5523,1.6273,1.6806,1.7349,1.7992,1.8611,1.9441,2.0264,2.042,2.0498,2.0576,2.0566,2.0576,2.0566,2.0566,2.0566,2.0586,2.0586,2.0654,2.0654,-2.507,-2.5153,-2.5122,-2.5317,-2.5585,-2.5661,-2.5283,-2.4722,-2.4469,-2.3821,-2.3083,-2.3136,-2.3189,-2.307,-2.2777,-2.2797,-2.2647,-2.174,-2.0781,-2.0222,-1.9871,-1.9458,-1.8864,-1.8284,-1.7715,-1.7214,-1.6601,-1.5964,-1.5084,-1.5067,-1.3901,-1.2837,-1.2365,-1.1868,-1.0881,-0.9291,-0.7846,-0.6762,-0.5687,-0.4295,-0.2738,-0.2349,-0.1567,0.0314,0.1881,0.3372,0.4553,0.5021,0.5018,0.5171,0.5479,0.6093,0.6553,0.7011,0.7242,0.7399,0.7407,0.6949,0.6393,0.574,0.5204,0.6117,0.6458,0.6984,0.7474,0.776,0.7669,0.7625,0.8603,0.9956,1.1321,1.1094,1.1144,1.1494,1.1671,1.2015,1.2705,1.3137,1.3398,1.3737,1.4004,1.4004,1.4082,1.4166,1.4237,1.3977,1.3866,1.3736,1.3853,1.4068,1.4237,1.4328,1.4334,1.4844,1.5427,1.6017,1.6604,1.7029,1.7683,1.8512,1.9201,1.9896,2.0333,2.0498,2.0576,2.0576,2.0644,2.0722,2.0644,2.0634,2.0644,2.0722,2.0809,2.0809,2.0741,-2.4322,-2.407,-2.4088,-2.467,-2.5467,-2.5678,-2.5132,-2.4148,-2.4191,-2.3806,-2.3038,-2.3013,-2.3026,-2.2894,-2.2445,-2.2417,-2.2308,-2.1287,-2.0146,-1.9213,-1.923,-1.8657,-1.7955,-1.7397,-1.6732,-1.5586,-1.5044,-1.4447,-1.3179,-1.3259,-1.2164,-1.1149,-1.0726,-1.0351,-0.9981,-0.8456,-0.7,-0.5922,-0.4846,-0.3361,-0.1955,-0.1408,-0.047,0.1017,0.227,0.368,0.4626,0.5171,0.5246,0.5398,0.624,0.6853,0.7165,0.8389,0.8851,0.8775,0.8623,0.8241,0.7799,0.7115,0.7001,0.6986,0.7066,0.7527,0.7636,0.7845,0.7998,0.8032,0.9191,1.0549,1.1354,1.1871,1.2192,1.2357,1.2619,1.279,1.3483,1.3743,1.3913,1.4082,1.4088,1.4173,1.425,1.4412,1.4643,1.4643,1.465,1.465,1.4566,1.4727,1.4977,1.5228,1.5228,1.5659,1.633,1.6566,1.6996,1.7403,1.7993,1.8819,1.9514,2.0072,2.0401,2.0547,2.0654,2.0731,2.0731,2.0799,2.1021,2.1231,2.0944,2.0944,2.1041,2.1118,2.1118,-2.4704,-2.4354,-2.4094,-2.4197,-2.446,-2.4253,-2.3727,-2.306,-2.2595,-2.2232,-2.2034,-2.2034,-2.182,-2.1605,-2.1546,-2.1407,-2.1075,-2.0766,-1.9455,-1.8471,-1.8648,-1.8224,-1.7502,-1.6421,-1.5584,-1.473,-1.4114,-1.3222,-1.2114,-1.1873,-1.1279,-1.0282,-0.8822,-0.7584,-0.6958,-0.6203,-0.5767,-0.4453,-0.3521,-0.2504,-0.0782,-0.0235,0.0626,0.2192,0.3049,0.391,0.501,0.5473,0.578,0.6009,0.6927,0.7464,0.8075,0.9301,0.976,0.9836,0.9679,0.8922,0.8775,0.8562,0.8134,0.7744,0.772,0.8064,0.8177,0.8899,0.8848,0.9061,1.0398,1.194,1.3132,1.3253,1.3483,1.3476,1.3652,1.3652,1.3997,1.3997,1.4088,1.4166,1.4166,1.4901,1.5228,1.5636,1.5869,1.5703,1.5718,1.5553,1.5462,1.5628,1.5794,1.6281,1.6519,1.6879,1.7263,1.7432,1.7734,1.8252,1.8731,1.9298,1.9812,2.0236,2.0469,2.0644,2.0731,2.0819,2.0964,2.1262,2.1766,2.1983,2.1907,2.1766,2.1776,2.1787,2.1711,-2.5137,-2.4887,-2.4477,-2.4302,-2.4245,-2.3797,-2.326,-2.2572,-2.1684,-2.1313,-2.1402,-2.1388,-2.1304,-2.1046,-2.0686,-2.0423,-2.0039,-1.9685,-1.8963,-1.7983,-1.8121,-1.7374,-1.6311,-1.544,-1.4401,-1.3581,-1.2714,-1.1784,-1.1185,-1.0731,-1.0149,-0.905,-0.7057,-0.5357,-0.4503,-0.4203,-0.4215,-0.2973,-0.2112,-0.0939,0.0391,0.1331,0.2111,0.3439,0.4297,0.4761,0.5619,0.6237,0.6696,0.7003,0.754,0.8152,0.8988,0.975,1.0582,1.1019,1.087,1.004,0.982,0.9528,0.8952,0.836,0.8431,0.8573,0.8884,0.952,1.0459,1.1043,1.2043,1.2875,1.3874,1.4082,1.4062,1.4055,1.4055,1.4055,1.3981,1.3981,1.425,1.4243,1.4992,1.5636,1.6355,1.6846,1.7253,1.7017,1.678,1.6609,1.6527,1.6601,1.6846,1.7334,1.7624,1.7886,1.817,1.8394,1.8704,1.9099,1.9363,1.962,1.9916,2.0264,2.043,2.0731,2.0886,2.1041,2.1349,2.1711,2.2435,2.3021,2.339,2.3169,2.2734,2.2446,2.2295,-2.5443,-2.5427,-2.5044,-2.4863,-2.4744,-2.4276,-2.361,-2.2799,-2.1841,-2.1375,-2.141,-2.141,-2.1264,-2.1118,-2.0523,-2.0055,-1.9683,-1.9182,-1.8344,-1.7645,-1.76,-1.6293,-1.5175,-1.425,-1.3424,-1.2208,-1.1281,-1.0999,-1.0416,-0.915,-0.8524,-0.7965,-0.601,-0.3639,-0.241,-0.1952,-0.2188,-0.1642,-0.0704,0.047,0.1802,0.266,0.3671,0.4838,0.5613,0.6227,0.6846,0.7306,0.7536,0.7918,0.8609,0.8912,0.9442,1.0346,1.1675,1.2485,1.2265,1.1527,1.0932,1.064,1.0201,0.9829,1.006,0.9663,0.9428,1.008,1.1321,1.2343,1.3199,1.3497,1.388,1.3937,1.4001,1.4001,1.4008,1.3948,1.3841,1.3971,1.428,1.4824,1.5906,1.6714,1.7407,1.7971,1.847,1.8461,1.831,1.823,1.806,1.7738,1.806,1.855,1.8815,1.8873,1.9019,1.9145,1.9199,1.9447,1.9543,1.98,2.0012,2.0377,2.0881,2.1098,2.1118,2.1349,2.1873,2.2521,2.3243,2.3829,2.4348,2.4204,2.3694,2.3043,2.2756,-2.5726,-2.5465,-2.5044,-2.4775,-2.441,-2.3994,-2.326,-2.2342,-2.165,-2.141,-2.141,-2.141,-2.1166,-2.0523,-2.0283,-1.9837,-1.9254,-1.8608,-1.797,-1.7401,-1.6914,-1.5944,-1.4949,-1.3857,-1.2849,-1.194,-1.1043,-1.0062,-0.889,-0.7543,-0.6668,-0.6125,-0.4704,-0.2067,-0.0233,0.0391,-0.0078,-0.0156,0.0626,0.18,0.2971,0.3826,0.4913,0.5922,0.6769,0.7383,0.7689,0.8071,0.83,0.8912,0.9518,0.997,1.0576,1.1539,1.2712,1.365,1.3288,1.2712,1.2572,1.1983,1.1545,1.1471,1.1571,1.0784,1.042,1.0805,1.2225,1.2982,1.3718,1.3915,1.4011,1.4081,1.4095,1.4038,1.4142,1.4129,1.4047,1.4331,1.4803,1.6162,1.7163,1.7836,1.8532,1.9186,1.9599,1.9756,1.9756,1.9678,1.952,1.9116,1.9116,1.9599,1.9747,1.974,1.9744,1.9829,1.9694,1.972,1.9932,2.0105,2.0315,2.0701,2.1283,2.1756,2.2069,2.2306,2.2553,2.3338,2.4204,2.4564,2.5016,2.4874,2.4659,2.3925,2.3486,-2.5611,-2.505,-2.4531,-2.402,-2.3462,-2.2998,-2.2394,-2.178,-2.1713,-2.1616,-2.141,-2.141,-2.1131,-2.0772,-2.0385,-1.9978,-1.95,-1.8578,-1.7786,-1.7169,-1.6291,-1.5264,-1.4323,-1.3295,-1.202,-1.1157,-1.0206,-0.9199,-0.7822,-0.6452,-0.5483,-0.4533,-0.332,-0.0527,0.1529,0.2156,0.186,0.1791,0.2189,0.3125,0.4135,0.5065,0.5996,0.7073,0.7918,0.8228,0.8604,0.8983,0.9291,0.9755,1.0351,1.0657,1.1545,1.2778,1.389,1.476,1.4537,1.4106,1.381,1.3448,1.3237,1.3098,1.2879,1.2096,1.1683,1.1786,1.2459,1.3092,1.3653,1.4042,1.4214,1.4303,1.4269,1.4151,1.4205,1.426,1.4504,1.4837,1.6041,1.7498,1.8379,1.9045,1.9668,2.0323,2.0566,2.0401,2.0323,2.0333,2.0333,2.0089,2.0167,2.0479,2.0576,2.0547,2.0544,2.0503,2.0338,2.0335,2.0727,2.0873,2.0823,2.1391,2.2275,2.285,2.3305,2.3401,2.3423,2.4299,2.5087,2.5382,2.5581,2.5639,2.5358,2.4647,2.4276,-2.515,-2.4402,-2.3652,-2.3032,-2.2286,-2.1937,-2.1499,-2.1119,-2.1707,-2.1782,-2.1254,-2.1301,-2.1191,-2.0686,-2.0344,-2.0067,-1.9384,-1.8459,-1.7644,-1.7079,-1.6016,-1.4923,-1.3777,-1.2565,-1.1384,-0.9806,-0.8753,-0.8419,-0.7047,-0.5681,-0.4253,-0.3083,-0.1288,0.0954,0.3078,0.3711,0.3665,0.3857,0.4044,0.4686,0.5764,0.6612,0.7456,0.8675,0.9216,0.9604,1.0132,1.0357,1.0351,1.0588,1.0818,1.0974,1.2412,1.4291,1.5417,1.5584,1.5417,1.5117,1.4752,1.4386,1.4314,1.4171,1.3954,1.3018,1.2452,1.2032,1.2364,1.2359,1.2755,1.3967,1.4388,1.4367,1.4317,1.4407,1.4483,1.449,1.4552,1.5403,1.7033,1.8388,1.9259,1.9766,2.0079,2.0576,2.0576,2.0576,2.0654,2.0741,2.0896,2.0809,2.0964,2.1195,2.1051,2.1051,2.1221,2.1131,2.0941,2.1094,2.139,2.1532,2.1525,2.2381,2.3419,2.3891,2.4264,2.4264,2.442,2.5158,2.5664,2.5804,2.6082,2.6333,2.5951,2.5214,2.5181,-2.4551,-2.3967,-2.3224,-2.2682,-2.2324,-2.2171,-2.1659,-2.1017,-2.1167,-2.0823,-2.0266,-2.0435,-2.0401,-1.9934,-1.9988,-1.9711,-1.9012,-1.7917,-1.7434,-1.6522,-1.5496,-1.4464,-1.3485,-1.2258,-1.0947,-0.9996,-0.8913,-0.7497,-0.5947,-0.4593,-0.363,-0.2933,-0.0847,0.1643,0.4413,0.4902,0.5196,0.5339,0.5711,0.5909,0.6465,0.7842,0.8988,0.9448,0.9755,1.0207,1.0588,1.0513,1.0663,1.0968,1.1372,1.2164,1.3506,1.5666,1.6551,1.6491,1.6123,1.5895,1.5675,1.5305,1.5163,1.4816,1.4386,1.3455,1.2722,1.2165,1.1823,1.1845,1.2208,1.3519,1.4524,1.4482,1.4522,1.4634,1.4761,1.4802,1.4766,1.6382,1.8023,1.8993,1.9872,2.0245,2.0479,2.0566,2.0576,2.0654,2.0819,2.0896,2.1118,2.1195,2.1349,2.1502,2.1272,2.1349,2.17,2.1918,2.1832,2.1821,2.2167,2.2253,2.236,2.3463,2.4564,2.4921,2.5146,2.5075,2.5288,2.5791,2.622,2.6302,2.6321,2.6557,2.627,2.561,2.5816,-2.3901,-2.3209,-2.259,-2.2086,-2.1666,-2.1435,-2.0903,-2.0186,-1.9826,-1.9308,-1.8879,-1.9418,-1.9602,-1.9025,-1.9043,-1.8833,-1.8057,-1.6824,-1.6157,-1.5497,-1.4821,-1.3824,-1.2849,-1.1796,-1.0368,-0.9227,-0.7683,-0.6129,-0.4878,-0.409,-0.3394,-0.2749,-0.055,0.2155,0.4867,0.5532,0.5991,0.6247,0.6716,0.7015,0.7134,0.8376,0.9377,0.976,1.0438,1.0887,1.1031,1.1031,1.1105,1.1335,1.1577,1.2921,1.4346,1.6061,1.6769,1.6899,1.6821,1.6802,1.6645,1.654,1.6253,1.6123,1.5703,1.5122,1.4816,1.4299,1.3611,1.3368,1.1948,1.2856,1.4279,1.463,1.5031,1.5322,1.5799,1.6078,1.6708,1.7963,1.9054,1.9775,2.0285,2.0256,2.043,2.0498,2.0469,2.0379,2.0505,2.0924,2.1242,2.1628,2.18,2.192,2.1858,2.2167,2.2798,2.2936,2.2787,2.285,2.2837,2.3599,2.412,2.4874,2.5606,2.5746,2.5873,2.5943,2.622,2.644,2.6658,2.6794,2.6786,2.6764,2.633,2.5921,2.6031,-2.3325,-2.2394,-2.1991,-2.1433,-2.0827,-2.041,-1.9884,-1.9093,-1.8425,-1.7882,-1.7633,-1.839,-1.8726,-1.8341,-1.7904,-1.7424,-1.6807,-1.5918,-1.5211,-1.468,-1.3998,-1.2981,-1.1964,-1.1029,-0.9548,-0.7862,-0.6264,-0.5209,-0.4217,-0.3689,-0.3157,-0.2487,-0.0337,0.2441,0.4219,0.5269,0.5782,0.6244,0.6737,0.7447,0.8059,0.8756,0.9528,1.0363,1.1111,1.1632,1.1626,1.1545,1.1539,1.17,1.1848,1.3121,1.4466,1.5895,1.6531,1.6858,1.73,1.7532,1.7833,1.8235,1.8275,1.818,1.761,1.6977,1.6513,1.6049,1.5367,1.4534,1.3076,1.2962,1.4343,1.4911,1.5431,1.5953,1.6557,1.7243,1.8214,1.907,1.9747,2.0391,2.0469,2.0342,2.0361,2.043,2.0273,2.0174,2.0365,2.0801,2.1293,2.1913,2.2295,2.2637,2.2817,2.3239,2.3781,2.3595,2.341,2.3421,2.3544,2.4778,2.5664,2.5816,2.6037,2.6314,2.6452,2.6427,2.6508,2.6658,2.6943,2.7146,2.693,2.671,2.6232,2.591,2.5948,-2.2944,-2.2224,-2.1965,-2.1462,-2.0827,-2.0563,-1.9929,-1.9087,-1.8475,-1.7908,-1.7418,-1.6863,-1.6866,-1.6959,-1.7303,-1.6951,-1.6101,-1.5212,-1.4789,-1.4413,-1.3186,-1.2077,-1.0996,-0.9907,-0.8433,-0.6919,-0.5481,-0.4556,-0.382,-0.3422,-0.2956,-0.2287,-0.0134,0.222,0.4131,0.4956,0.554,0.5962,0.6259,0.6834,0.7505,0.8491,1.0045,1.0743,1.1117,1.149,1.1552,1.1372,1.1533,1.1842,1.2178,1.3064,1.4337,1.5622,1.6242,1.6924,1.7418,1.7895,1.8314,1.8812,1.8952,1.9026,1.8299,1.7588,1.7235,1.706,1.6589,1.6298,1.536,1.5092,1.5848,1.5458,1.5617,1.6246,1.6851,1.7691,1.8556,1.9104,1.9681,2.0178,2.0498,2.041,2.0371,2.0283,2.0,2.0033,2.0386,2.0802,2.1311,2.1996,2.2739,2.3058,2.3468,2.393,2.4243,2.3925,2.3739,2.3798,2.4032,2.4848,2.5509,2.607,2.6302,2.6425,2.6557,2.6526,2.6688,2.6875,2.7134,2.7271,2.6961,2.6596,2.6128,2.5792,2.5728]},{"header":{"parameterUnit":"m.s-1","parameterCategory":1,"la1":31.0,"la2":29.5877,"lo1":-88.7671,"lo2":-86.6584,"dx":0.0162,"dy":0.0185,"nx":115,"ny":88,"refTime":"2022-12-09T18:00:00:Z","depth":0,"parameterNumber":3,"parameterNumberName":"V-component_of_WINDS"},"data":[0.0,0.0,0.0,0.0,0.0,0.0,0.0,0.0,0.0,0.0,0.0,0.0,0.0,0.0,0.0,0.0,0.0,0.0,0.0,0.0,0.0,0.0,0.0,0.0,0.0,0.0,0.0,0.0,0.0,0.0,0.0,0.0,0.0,0.0,0.0,0.0,0.0,0.0,0.0,0.0,0.0,0.0,0.0,0.0,0.0,0.0,0.0,0.0,0.0,0.0,0.0,0.0,0.0,0.0,0.0,0.0,0.0,0.0,0.0,0.0,0.0,0.0,0.0,0.0,0.0,0.0,0.0,0.0,0.0,0.0,0.0,0.0,0.0,0.0,0.0,0.0,0.0,0.0,0.0,0.0,0.0,0.0,0.0,0.0,0.0,0.0,0.0,0.0,0.0,0.0,0.0,0.0,0.0,0.0,0.0,0.0,0.0,0.0,0.0,0.0,0.0,0.0,0.0,0.0,0.0,0.0,0.0,0.0,0.0,0.0,0.0,0.0,0.0,0.0,0.0,0.0,0.0,0.0,0.0,0.0,0.0,0.0,0.0,0.0,0.0,0.0,0.0,0.0,0.0,0.0,0.0,0.0,0.0,0.0,0.0,0.0,0.0,0.0,0.0,0.0,0.0,0.0,0.0,0.0,0.0,0.0,0.0,0.0,0.0,0.0,0.0,0.0,0.0,0.0,0.0,0.0,0.0,0.0,0.0,0.0,0.0,0.0,0.0,0.0,0.0,0.0,0.0,0.0,0.0,0.0,0.0,0.0,0.0,0.0,0.0,0.0,0.0,0.0,0.0,0.0,0.0,0.0,0.0,0.0,0.0,0.0,0.0,0.0,0.0,0.0,0.0,0.0,0.0,0.0,0.0,0.0,0.0,0.0,0.0,0.0,0.0,0.0,0.0,0.0,0.0,0.0,0.0,0.0,0.0,0.0,0.0,0.0,0.0,0.0,0.0,0.0,0.0,0.0,0.0,0.0,0.0,0.0,0.0,0.0,0.0,0.0,0.0,0.0,0.0,0.0,0.0,0.0,0.0,0.0,0.0,0.0,0.0,0.0,0.0,0.0,0.0,0.0,0.0,0.0,0.0,0.0,0.0,0.0,0.0,0.0,0.0,0.0,0.0,0.0,0.0,0.0,0.0,0.0,0.0,0.0,0.0,0.0,0.0,0.0,0.0,0.0,0.0,0.0,0.0,0.0,0.0,0.0,0.0,0.0,0.0,0.0,0.0,0.0,0.0,0.0,0.0,0.0,0.0,0.0,0.0,0.0,0.0,0.0,0.0,0.0,0.0,0.0,0.0,0.0,0.0,0.0,0.0,0.0,0.0,0.0,0.0,0.0,0.0,0.0,0.0,0.0,0.0,0.0,0.0,0.0,0.0,0.0,0.0,0.0,0.0,0.0,0.0,0.0,0.0,0.0,0.0,0.0,0.0,0.0,0.0,0.0,0.0,0.0,0.0,0.0,0.0,0.0,0.0,0.0,0.0,0.0,0.0,0.0,0.0,0.0,0.0,0.0,0.0,0.0,0.0,0.0,0.0,0.0,0.0,0.0,0.0,0.0,0.0,0.0,0.0,0.0,0.0,0.0,0.0,0.0,0.0,0.0,0.0,0.0,0.0,0.0,0.0,0.0,0.0,0.0,0.0,0.0,0.0,0.0,0.0,0.0,0.0,0.0,0.0,0.0,0.0,0.0,0.0,0.0,0.0,0.0,0.0,0.0,0.0,0.0,0.0,0.0,0.0,0.0,0.0,0.0,0.0,0.0,0.0,0.0,0.0,0.0,0.0,0.0,0.0,0.0,0.0,0.0,0.0,0.0,0.0,0.0,0.0,0.0,0.0,0.0,0.0,0.0,0.0,0.0,0.0,0.0,0.0,0.0,0.0,0.0,0.0,0.0,0.0,0.0,0.0,0.0,0.0,0.0,0.0,0.0,0.0,0.0,0.0,0.0,0.0,0.0,0.0,0.0,0.0,0.0,0.0,0.0,0.0,0.0,0.0,0.0,0.0,0.0,0.0,0.0,0.0,0.0,0.0,0.0,0.0,0.0,0.0,0.0,0.0,0.0,0.0,0.0,0.0,0.0,0.0,0.0,0.0,0.0,0.0,0.0,0.0,0.0,0.0,0.0,0.0,0.0,0.0,0.0,0.0,0.0,0.0,0.0,0.0,0.0,0.0,0.0,0.0,0.0,0.0,0.0,0.0,0.0,0.0,0.0,0.0,0.0,0.0,0.0,0.0,0.0,0.0,0.0,0.0,0.0,0.0,0.0,0.0,0.0,0.0,0.0,0.0,0.0,0.0,0.0,0.0,0.0,0.0,0.0,0.0,0.0,0.0,0.0,0.0,0.0,0.0,0.0,0.0,0.0,0.0,0.0,0.0,0.0,0.0,0.0,0.0,0.0,0.0,0.0,0.0,0.0,0.0,0.0,0.0,0.0,0.0,0.0,0.0,0.0,0.0,0.0,0.0,0.0,0.0,0.0,0.0,0.0,0.0,0.0,0.0,0.0,0.0,0.0,0.0,0.0,0.0,0.0,0.0,0.0,0.0,0.0,0.0,0.0,0.0,0.0,0.0,0.0,0.0,0.0,0.0,0.0,0.0,0.0,0.0,0.0,0.0,0.0,0.0,0.0,0.0,0.0,0.0,0.0,0.0,0.0,0.0,0.0,0.0,0.0,0.0,0.0,0.0,0.0,0.0,0.0,0.0,0.0,0.0,0.0,0.0,0.0,0.0,0.0,0.0,0.0,0.0,0.0,0.0,0.0,0.0,0.0,0.0,0.0,0.0,0.0,0.0,0.0,0.0,0.0,0.0,0.0,0.0,0.0,0.0,0.0,0.0,0.0,0.0,0.0,0.0,0.0,0.0,0.0,0.0,0.0,0.0,0.0,0.0,0.0,0.0,0.0,0.0,0.0,0.0,0.0,0.0,0.0,0.0,0.0,0.0,0.0,0.0,0.0,0.0,0.0,0.0,0.0,0.0,0.0,0.0,0.0,0.0,0.0,0.0,0.0,0.0,0.0,0.0,0.0,0.0,0.0,0.0,0.0,0.0,0.0,0.0,0.0,0.0,0.0,0.0,0.0,0.0,0.0,0.0,0.0,0.0,0.0,0.0,0.0,0.0,0.0,0.0,0.0,0.0,0.0,0.0,0.0,0.0,0.0,0.0,0.0,0.0,0.0,0.0,0.0,0.0,0.0,0.0,0.0,0.0,0.0,0.0,0.0,0.0,0.0,0.0,0.0,0.0,0.0,0.0,0.0,0.0,0.0,0.0,0.0,0.0,0.0,0.0,0.0,0.0,0.0,0.0,0.0,0.0,0.0,0.0,0.0,0.0,0.0,0.0,0.0,0.0,0.0,0.0,0.0,0.0,0.0,0.0,0.0,0.0,0.0,0.0,0.0,0.0,0.0,0.0,0.0,0.0,0.0,0.0,0.0,0.0,0.0,0.0,0.0,0.0,0.0,0.0,0.0,0.0,0.0,0.0,0.0,0.0,0.0,0.0,0.0,0.0,0.0,0.0,0.0,0.0,0.0,0.0,0.0,0.0,0.0,0.0,0.0,0.0,0.0,0.0,0.0,0.0,0.0,0.0,0.0,0.0,0.0,0.0,0.0,0.0,0.0,0.0,0.0,0.0,0.0,0.0,0.0,0.0,0.0,0.0,0.0,0.0,0.0,0.0,0.0,0.0,0.0,0.0,0.0,0.0,0.0,0.0,0.0,0.0,0.0,0.0,0.0,0.0,0.0,0.0,0.0,0.0,0.0,0.0,0.0,0.0,0.0,0.0,0.0,0.0,0.0,0.0,0.0,0.0,0.0,0.0,0.0,0.0,0.0,0.0,0.0,0.0,0.0,0.0,0.0,0.0,0.0,0.0,0.0,0.0,0.0,0.0,0.0,0.0,0.0,0.0,0.0,0.0,0.0,0.0,0.0,0.0,0.0,0.0,0.0,0.0,0.0,0.0,0.0,0.0,0.0,0.0,0.0,0.0,0.0,0.0,0.0,0.0,0.0,0.0,0.0,0.0,0.0,0.0,0.0,0.0,0.0,0.0,0.0,0.0,0.0,0.0,0.0,0.0,0.0,0.0,0.0,0.0,0.0,0.0,0.0,0.0,0.0,0.0,0.0,0.0,0.0,0.0,0.0,0.0,0.0,0.0,0.0,0.0,0.0,0.0,0.0,0.0,0.0,0.0,0.0,0.0,0.0,0.0,0.0,0.0,0.0,0.0,0.0,0.0,0.0,0.0,0.0,0.0,0.0,-0.4009,0.0,0.0,0.0,-0.2901,0.0,0.0,0.0,0.0,0.0,0.0,0.0,0.0,0.0,0.0,0.0,0.0,0.0,0.0,0.0,0.0,0.0,0.0,0.0,0.0,0.0,0.0,0.0,0.0,0.0,0.0,0.0,0.0,0.0,0.0,0.0,0.0,0.0,0.0,0.0,0.0,0.0,0.0,0.0,0.0,0.0,0.0,0.0,0.0,0.0,0.0,0.0,0.0,0.0,0.0,0.0,0.0,0.0,0.0,0.0,0.0,0.0,0.0,0.0,0.0,0.0,0.0,0.0,0.0,0.0,0.0,0.0,0.0,0.0,0.0,0.0,0.0,0.0,0.0,0.0,0.0,0.0,0.0,0.0,0.0,0.0,0.0,0.0,0.0,0.0,0.0,0.0,0.0,0.0,0.0,0.0,0.0,0.0,0.0,0.0,0.0,0.0,0.0,0.0,0.0,0.0,0.0,0.0,0.0,0.0,0.0,0.0,0.0,0.0,0.0,-0.3868,-0.3355,-0.3897,-0.3811,-0.3011,0.0,0.0,0.0,0.0,0.0,0.0,0.0,0.0,0.0,0.0,0.0,0.0,0.0,0.0,0.0,0.0,0.0,0.0,0.0,0.0,0.0,0.0,0.0,0.0,0.0,0.0,0.0,0.0,0.0,0.0,0.0,0.0,0.0,0.0,0.0,0.0,0.0,0.0,0.0,0.0,0.0,0.0,0.0,0.0,0.0,0.0,0.0,0.0,0.0,0.0,0.0,0.0,0.0,0.0,0.0,0.0,0.0,0.0,0.0,0.0,0.0,0.0,0.0,0.0,0.0,0.0,0.0,0.0,0.0,0.0,0.0,0.0,0.0,0.0,0.0,0.0,0.0,0.0,0.0,0.0,0.0,0.0,0.0,0.0,0.0,0.0,0.0,0.0,0.0,0.0,0.0,0.0,0.0,0.0,0.0,0.0,0.0,0.0,0.0,0.0,0.0,0.0,0.0,0.0,0.0,0.0,0.0,0.0,0.0,0.0,0.0,0.0,-0.3976,-0.3996,-0.3377,0.0,0.0,0.0,0.0,0.0,0.0,0.0,0.0,0.0,0.0,0.0,0.0,0.0,0.0,0.0,0.0,0.0,0.0,0.0,0.0,0.0,0.0,0.0,0.0,0.0,0.0,0.0,0.0,0.0,0.0,0.0,0.0,0.0,0.0,0.0,0.0,0.0,0.0,0.0,0.0,0.0,0.0,0.0,0.0,0.0,0.0,0.0,0.0,0.0,0.0,0.0,0.0,0.0,0.0,0.0,0.0,0.0,0.0,0.0,0.0,0.0,0.0,0.0,0.0,0.0,0.0,0.0,0.0,0.0,0.0,0.0,0.0,0.0,0.0,0.0,0.0,0.0,0.0,0.0,0.0,0.0,0.0,0.0,0.0,0.0,0.0,0.0,0.0,0.0,0.0,0.0,0.0,0.0,0.0,0.0,0.0,0.0,0.0,0.0,0.0,0.0,0.0,0.0,0.0,0.0,0.0,0.0,0.0,0.0,0.0,-0.3519,-0.3822,-0.3922,0.0,-0.4041,0.0,0.0,0.0,0.0,0.0,0.0,0.0,0.0,0.0,0.0,0.0,0.0,0.0,0.0,0.0,0.0,0.0,0.0,0.0,0.0,0.0,0.0,0.0,0.0,0.0,0.0,0.0,0.0,0.0,0.0,0.0,0.0,0.0,0.0,0.0,0.0,0.0,0.0,0.0,0.0,0.0,0.0,0.0,0.0,0.0,0.0,0.0,0.0,0.0,0.0,0.0,0.0,0.0,0.0,0.0,0.0,0.0,0.0,0.0,0.0,0.0,0.0,0.0,0.0,0.0,0.0,0.0,0.0,0.0,0.0,0.0,0.0,0.0,0.0,0.0,0.0,0.0,0.0,0.0,0.0,0.0,0.0,0.0,0.0,0.0,0.0,0.0,0.0,0.0,0.0,0.0,0.0,0.0,0.0,0.0,0.0,0.0,0.0,0.0,0.0,0.0,0.0,0.0,0.0,0.0,0.0,0.0,0.0,0.0,0.0,-0.3596,-0.3478,-0.3837,-0.3992,0.0,0.0,0.0,0.0,0.0,0.0,0.0,0.0,0.0,0.0,0.0,0.0,0.0,0.0,0.0,0.0,0.0,0.0,0.0,0.0,0.0,0.0,0.0,0.0,0.0,0.0,0.0,0.0,0.0,0.0,0.0,0.0,0.0,0.0,0.0,0.0,0.0,0.0,0.0,0.0,0.0,0.0,0.0,0.0,0.0,0.0,0.0,0.0,0.0,0.0,0.0,0.0,0.0,0.0,0.0,0.0,0.0,0.0,0.0,0.0,0.0,0.0,0.0,0.0,0.0,0.0,0.0,0.0,0.0,0.0,0.0,0.0,0.0,0.0,0.0,0.0,0.0,0.0,0.0,0.0,0.0,0.0,0.0,0.0,0.0,0.0,0.0,0.0,0.0,0.0,0.0,0.0,0.0,0.0,0.0,0.0,0.0,0.0,0.0,0.0,0.0,0.0,0.0,0.0,0.0,0.0,0.0,0.0,0.0,0.0,-0.3585,-0.3795,-0.3618,-0.4056,-0.4186,-0.3882,0.0,0.0,0.0,0.0,0.0,0.0,0.0,0.0,0.0,0.0,0.0,0.0,0.0,0.0,0.0,0.0,0.0,0.0,0.0,0.0,0.0,0.0,0.0,0.0,0.0,0.0,0.0,0.0,0.0,0.0,0.0,0.0,0.0,0.0,0.0,0.0,0.0,0.0,0.0,0.0,0.0,0.0,0.0,0.0,0.0,0.0,0.0,0.0,0.0,0.0,0.0,0.0,0.0,0.0,0.0,0.0,0.0,0.0,0.0,0.0,0.0,0.0,0.0,0.0,0.0,0.0,0.0,0.0,0.0,0.0,0.0,0.0,0.0,0.0,0.0,0.0,0.0,0.0,0.0,0.0,0.0,0.0,0.0,0.0,0.0,0.0,0.0,0.0,0.0,0.0,0.0,0.0,0.0,0.0,0.0,0.0,0.0,0.0,0.0,0.0,0.0,0.0,0.0,0.0,0.0,0.0,0.0,0.0,-0.4148,-0.3968,-0.4108,-0.4511,-0.4753,-0.4614,0.0,0.0,0.0,0.0,0.0,0.0,0.0,0.0,0.0,0.0,0.0,0.0,0.0,0.0,0.0,0.0,0.0,0.0,0.0,0.0,0.0,0.0,0.0,0.0,0.0,0.0,0.0,0.0,0.0,0.0,0.0,0.0,0.0,0.0,0.0,0.0,0.0,0.0,0.0,0.0,0.0,0.0,0.0,0.0,0.0,0.0,0.0,0.0,0.0,0.0,0.0,0.0,0.0,0.0,0.0,0.0,0.0,0.0,0.0,0.0,0.0,0.0,0.0,0.0,0.0,0.0,0.0,0.0,0.0,0.0,0.0,0.0,0.0,0.0,0.0,0.0,0.0,0.0,0.0,0.0,0.0,0.0,0.0,0.0,0.0,0.0,0.0,0.0,0.0,0.0,0.0,0.0,0.0,0.0,0.0,0.0,0.0,0.0,0.0,0.0,0.0,0.0,0.0,0.0,0.0,0.0,0.0,0.0,0.0,-0.3083,-0.3001,-0.3563,-0.4779,-0.4347,-0.4329,0.0,0.0,0.0,0.0,0.0,0.0,0.0,0.0,0.0,0.0,0.0,0.0,0.0,0.0,0.0,0.0,0.0,0.0,0.0,0.0,0.0,0.0,0.0,0.0,0.0,0.0,0.0,0.0,0.0,0.0,0.0,0.0,0.0,0.0,0.0,0.0,0.0,0.0,0.0,0.0,0.0,0.0,0.0,0.0,0.0,0.0,0.0,0.0,0.0,0.0,0.0,0.0,0.0,0.0,0.0,0.0,0.0,0.0,0.0,0.0,0.0,0.0,0.0,0.0,0.0,0.0,0.0,0.0,0.0,0.0,0.0,0.0,0.0,0.0,0.0,0.0,0.0,0.0,0.0,0.0,0.0,0.0,0.0,0.0,0.0,0.0,0.0,0.0,0.0,0.0,0.0,0.0,0.0,0.0,0.0,0.0,0.0,0.0,0.0,0.0,0.0,0.0,0.0,0.0,0.0,0.0,0.0,0.0,0.0,-0.3192,-0.3273,-0.3814,-0.475,-0.4344,-0.4276,0.0,0.0,0.0,0.0,0.0,0.0,0.0,0.0,0.0,0.0,0.0,0.0,0.0,0.0,0.0,0.0,0.0,0.0,0.0,0.0,0.0,0.0,0.0,0.0,0.0,0.0,0.0,0.0,0.0,0.0,0.0,0.0,0.0,0.0,0.0,0.0,0.0,0.0,0.0,0.0,0.0,0.0,0.0,0.0,0.0,0.0,0.0,0.0,0.0,0.0,0.0,0.0,0.0,0.0,0.0,0.0,0.0,0.0,0.0,0.0,0.0,0.0,0.0,0.0,0.0,0.0,0.0,0.0,0.0,0.0,0.0,0.0,0.0,0.0,0.0,0.0,0.0,0.0,0.0,0.0,0.0,0.0,0.0,0.0,0.0,0.0,0.0,0.0,0.0,0.0,0.0,0.0,0.0,0.0,0.0,0.0,0.0,0.0,0.0,0.0,0.0,0.0,0.0,0.0,0.0,0.0,0.0,0.0,-0.3988,-0.4703,-0.5043,-0.4999,-0.4537,-0.4796,-0.4524,0.0,0.0,0.0,0.0,0.0,0.0,0.0,0.0,0.0,0.0,0.0,0.0,0.0,0.0,0.0,0.0,0.0,0.0,0.0,0.0,0.0,0.0,0.0,0.0,0.0,0.0,0.0,0.0,0.0,0.0,0.0,0.0,0.0,0.0,0.0,0.0,0.0,0.0,0.0,0.0,0.0,0.0,0.0,0.0,0.0,0.0,0.0,0.0,0.0,0.0,0.0,0.0,0.0,0.0,0.0,0.0,0.0,0.0,0.0,0.0,0.0,0.0,0.0,0.0,0.0,0.0,0.0,0.0,0.0,0.0,0.0,0.0,0.0,0.0,0.0,0.0,0.0,0.0,0.0,0.0,0.0,0.0,0.0,0.0,0.0,0.0,0.0,0.0,0.0,0.0,0.0,0.0,0.0,0.0,0.0,0.0,0.0,0.0,0.0,0.0,0.0,0.0,0.0,0.0,0.0,0.0,0.0,0.0,0.0,-0.3968,-0.4859,-0.5257,-0.5065,-0.4934,-0.4928,0.0,0.0,0.0,0.0,0.0,0.0,0.0,0.0,0.0,0.0,0.0,0.0,0.0,0.0,0.0,0.0,0.0,0.0,0.0,0.0,0.0,0.0,0.0,0.0,0.0,0.0,0.0,0.0,0.0,0.0,0.0,0.0,0.0,0.0,0.0,0.0,0.0,0.0,0.0,0.0,0.0,0.0,0.0,0.0,0.0,0.0,0.0,0.0,0.0,0.0,0.0,0.0,0.0,0.0,0.0,0.0,0.0,0.0,0.0,0.0,0.0,0.0,0.0,0.0,0.0,0.0,0.0,0.0,0.0,0.0,0.0,0.0,0.0,0.0,0.0,0.0,0.0,0.0,0.0,0.0,0.0,0.0,0.0,0.0,0.0,0.0,0.0,0.0,0.0,0.0,0.0,0.0,0.0,0.0,0.0,0.0,0.0,0.0,0.0,0.0,0.0,0.0,0.0,0.0,0.0,0.0,0.0,0.0,0.0,-0.5341,-0.6176,-0.6521,-0.6204,-0.5853,-0.5643,-0.5699,0.0,0.0,0.0,0.0,0.0,0.0,0.0,0.0,0.0,0.0,0.0,0.0,0.0,0.0,0.0,0.0,0.0,0.0,0.0,0.0,0.0,0.0,0.0,0.0,0.0,0.0,0.0,0.0,0.0,0.0,0.0,0.0,0.0,0.0,0.0,0.0,0.0,0.0,0.0,0.0,0.0,0.0,0.0,0.0,0.0,0.0,0.0,0.0,0.0,0.0,0.0,0.0,0.0,0.0,0.0,0.0,0.0,0.0,0.0,0.0,0.0,0.0,0.0,0.0,0.0,0.0,0.0,0.0,0.0,0.0,0.0,0.0,0.0,0.0,0.0,0.0,0.0,0.0,0.0,0.0,0.0,0.0,0.0,0.0,0.0,0.0,0.0,0.0,0.0,0.0,0.0,0.0,0.0,0.0,0.0,0.0,0.0,0.0,0.0,0.0,0.0,0.0,0.0,0.0,0.0,0.0,0.0,0.0,-0.8364,-0.8815,-0.8667,-0.7949,-0.7344,-0.6649,0.0,0.0,0.0,0.0,0.0,0.0,0.0,0.0,0.0,0.0,0.0,0.0,0.0,0.0,0.0,0.0,0.0,0.0,0.0,0.0,0.0,0.0,0.0,0.0,0.0,0.0,0.0,0.0,0.0,0.0,0.0,0.0,0.0,0.0,0.0,0.0,0.0,0.0,0.0,0.0,0.0,0.0,0.0,0.0,0.0,0.0,0.0,0.0,0.0,0.0,0.0,0.0,0.0,0.0,0.0,0.0,0.0,0.0,0.0,0.0,0.0,0.0,0.0,0.0,0.0,0.0,0.0,0.0,0.0,0.0,0.0,0.0,0.0,0.0,0.0,0.0,0.0,0.0,0.0,0.0,0.0,0.0,0.0,0.0,0.0,0.0,0.0,0.0,0.0,0.0,0.0,0.0,0.0,0.0,0.0,0.0,0.0,0.0,0.0,0.0,0.0,0.0,0.0,0.0,0.0,0.0,0.0,0.0,0.0,-1.0522,-1.1195,-1.085,-0.9437,-0.8449,-0.7694,0.0,0.0,0.0,0.0,0.0,0.0,0.0,0.0,0.0,0.0,0.0,0.0,0.0,0.0,0.0,0.0,0.0,0.0,0.0,0.0,0.0,0.0,0.0,0.0,0.0,0.0,0.0,0.0,0.0,0.0,0.0,0.0,0.0,0.0,0.0,0.0,0.0,0.0,0.0,0.0,0.0,0.0,0.0,0.0,0.0,0.0,0.0,0.0,0.0,0.0,0.0,0.0,0.0,0.0,0.0,0.0,0.0,0.0,0.0,0.0,0.0,0.0,0.0,0.0,0.0,0.0,0.0,0.0,0.0,0.0,0.0,0.0,0.0,0.0,0.0,0.0,0.0,0.0,0.0,0.0,0.0,0.0,0.0,0.0,0.0,0.0,0.0,0.0,0.0,0.0,0.0,0.0,0.0,0.0,0.0,0.0,0.0,0.0,0.0,0.0,0.0,0.0,0.0,0.0,0.0,0.0,0.0,0.0,-1.0646,-1.2274,-1.2859,-1.2924,-1.2428,-1.0478,-0.8981,0.0,0.0,0.0,0.0,0.0,0.0,0.0,0.0,0.0,0.0,0.0,0.0,0.0,0.0,0.0,0.0,0.0,0.0,0.0,0.0,0.0,0.0,0.0,0.0,0.0,0.0,0.0,0.0,0.0,0.0,0.0,0.0,0.0,0.0,0.0,0.0,0.0,0.0,0.0,0.0,0.0,0.0,0.0,0.0,0.0,0.0,0.0,0.0,0.0,0.0,0.0,0.0,0.0,0.0,0.0,0.0,0.0,0.0,0.0,0.0,0.0,0.0,0.0,0.0,0.0,0.0,0.0,0.0,0.0,0.0,0.0,0.0,0.0,0.0,0.0,0.0,0.0,0.0,0.0,0.0,0.0,0.0,0.0,0.0,0.0,0.0,0.0,0.0,0.0,0.0,0.0,0.0,0.0,0.0,0.0,0.0,0.0,0.0,0.0,0.0,0.0,0.0,0.0,0.0,0.0,0.0,0.0,0.0,-1.2353,-1.3709,-1.4098,-1.4731,-1.5564,-1.267,-1.0354,0.0,0.0,0.0,0.0,0.0,0.0,0.0,0.0,0.0,0.0,0.0,0.0,0.0,0.0,0.0,0.0,0.0,0.0,0.0,0.0,0.0,0.0,0.0,0.0,0.0,0.0,0.0,0.0,0.0,0.0,0.0,0.0,0.0,0.0,0.0,0.0,0.0,0.0,0.0,0.0,0.0,0.0,0.0,0.0,0.0,0.0,0.0,0.0,0.0,0.0,0.0,0.0,0.0,0.0,0.0,0.0,0.0,0.0,0.0,0.0,0.0,0.0,0.0,0.0,0.0,0.0,0.0,0.0,0.0,0.0,0.0,0.0,0.0,0.0,0.0,0.0,0.0,0.0,0.0,0.0,0.0,0.0,0.0,0.0,0.0,0.0,0.0,0.0,0.0,0.0,0.0,0.0,0.0,0.0,0.0,0.0,0.0,0.0,0.0,0.0,0.0,0.0,0.0,0.0,0.0,0.0,0.0,0.0,-1.3527,-1.5088,-1.5561,-1.5762,-1.572,-1.2806,-1.0947,0.0,0.0,0.0,0.0,0.0,0.0,0.0,0.0,0.0,0.0,0.0,0.0,0.0,0.0,0.0,0.0,0.0,0.0,0.0,0.0,0.0,0.0,0.0,0.0,0.0,0.0,0.0,0.0,0.0,0.0,0.0,0.0,0.0,0.0,0.0,0.0,0.0,0.0,0.0,0.0,0.0,0.0,0.0,0.0,0.0,0.0,0.0,0.0,-1.0357,0.0,0.0,0.0,0.0,0.0,0.0,0.0,0.0,0.0,0.0,0.0,0.0,0.0,0.0,0.0,0.0,0.0,0.0,0.0,0.0,0.0,0.0,0.0,0.0,0.0,0.0,0.0,0.0,0.0,0.0,0.0,0.0,0.0,0.0,0.0,0.0,0.0,0.0,0.0,0.0,0.0,0.0,0.0,0.0,0.0,0.0,0.0,0.0,0.0,0.0,0.0,0.0,0.0,0.0,0.0,0.0,0.0,0.0,0.0,-1.4829,-1.677,-1.6816,-1.6847,-1.6927,-1.4781,-1.2699,0.0,0.0,0.0,0.0,0.0,0.0,0.0,0.0,0.0,0.0,0.0,0.0,0.0,0.0,0.0,0.0,0.0,0.0,0.0,0.0,0.0,0.0,0.0,0.0,0.0,0.0,0.0,0.0,0.0,0.0,0.0,0.0,0.0,0.0,0.0,0.0,0.0,0.0,0.0,0.0,0.0,0.0,0.0,0.0,0.0,0.0,0.0,0.0,0.0,0.0,0.0,0.0,0.0,0.0,0.0,0.0,0.0,0.0,0.0,0.0,0.0,0.0,0.0,0.0,0.0,0.0,0.0,0.0,0.0,0.0,0.0,0.0,0.0,0.0,0.0,0.0,0.0,0.0,0.0,0.0,0.0,0.0,0.0,0.0,0.0,0.0,0.0,0.0,0.0,0.0,0.0,0.0,0.0,0.0,0.0,0.0,0.0,0.0,0.0,0.0,0.0,0.0,0.0,0.0,0.0,0.0,0.0,-1.3747,-1.615,-1.8502,-1.8157,-1.8125,-1.8687,-1.7168,-1.4783,-1.1541,0.0,0.0,0.0,0.0,0.0,0.0,0.0,0.0,0.0,0.0,0.0,0.0,0.0,0.0,0.0,0.0,0.0,0.0,0.0,0.0,0.0,0.0,0.0,0.0,0.0,0.0,0.0,0.0,0.0,0.0,0.0,0.0,0.0,0.0,0.0,0.0,0.0,0.0,-0.7932,-0.8967,0.0,0.0,0.0,0.0,0.0,0.0,0.0,0.0,-1.077,0.0,0.0,0.0,0.0,0.0,0.0,0.0,0.0,0.0,0.0,0.0,0.0,0.0,0.0,0.0,0.0,0.0,0.0,0.0,0.0,0.0,0.0,0.0,0.0,0.0,0.0,0.0,0.0,0.0,0.0,0.0,0.0,0.0,0.0,0.0,0.0,0.0,0.0,0.0,0.0,0.0,0.0,0.0,0.0,0.0,0.0,0.0,0.0,0.0,0.0,0.0,0.0,0.0,0.0,0.0,0.0,-1.455,-1.5499,-1.7324,-2.015,-2.0049,-1.9933,-1.9902,-1.8371,-1.6043,-1.3024,0.0,0.0,0.0,0.0,0.0,0.0,0.0,0.0,0.0,0.0,0.0,0.0,0.0,0.0,0.0,0.0,0.0,0.0,0.0,0.0,0.0,0.0,0.0,0.0,0.0,0.0,0.0,0.0,0.0,0.0,0.0,0.0,0.0,0.0,0.0,0.0,0.0,0.0,0.0,-1.2742,-1.3106,0.0,0.0,0.0,0.0,0.0,0.0,0.0,0.0,-1.2442,0.0,0.0,0.0,0.0,0.0,0.0,0.0,0.0,0.0,0.0,0.0,0.0,0.0,0.0,0.0,0.0,0.0,0.0,0.0,0.0,0.0,0.0,0.0,0.0,0.0,0.0,0.0,0.0,0.0,0.0,0.0,0.0,0.0,0.0,0.0,0.0,0.0,0.0,0.0,0.0,0.0,0.0,0.0,0.0,0.0,0.0,0.0,0.0,0.0,0.0,0.0,0.0,0.0,0.0,0.0,-1.494,-1.7375,-1.968,-2.1754,-2.1731,-2.1632,-2.1587,-1.9843,-1.7333,0.0,0.0,0.0,0.0,0.0,0.0,0.0,0.0,0.0,0.0,0.0,0.0,0.0,0.0,0.0,0.0,0.0,0.0,0.0,0.0,0.0,0.0,0.0,0.0,0.0,0.0,0.0,0.0,0.0,0.0,0.0,0.0,0.0,0.0,0.0,0.0,0.0,0.0,0.0,0.0,-1.4472,-1.5242,-1.784,0.0,0.0,0.0,0.0,0.0,0.0,-1.3595,-1.3299,0.0,0.0,0.0,0.0,0.0,0.0,0.0,0.0,0.0,0.0,0.0,0.0,0.0,0.0,0.0,0.0,0.0,0.0,0.0,0.0,0.0,0.0,0.0,0.0,0.0,0.0,0.0,0.0,0.0,0.0,0.0,0.0,0.0,0.0,0.0,0.0,0.0,0.0,0.0,0.0,0.0,0.0,0.0,0.0,0.0,0.0,0.0,0.0,0.0,0.0,0.0,0.0,0.0,0.0,0.0,-1.503,-1.901,-2.1861,-2.3315,-2.3323,-2.3297,-2.3317,-2.1072,-1.8299,0.0,0.0,0.0,0.0,0.0,0.0,0.0,0.0,0.0,0.0,0.0,0.0,0.0,0.0,0.0,0.0,0.0,0.0,0.0,0.0,0.0,0.0,0.0,0.0,0.0,0.0,0.0,0.0,0.0,0.0,0.0,0.0,0.0,0.0,0.0,0.0,0.0,0.0,0.0,0.0,0.0,-1.7008,-2.0132,-1.7562,0.0,0.0,0.0,0.0,-1.4363,-1.5622,0.0,0.0,0.0,0.0,0.0,0.0,0.0,0.0,0.0,0.0,0.0,0.0,0.0,0.0,0.0,0.0,0.0,0.0,0.0,0.0,0.0,0.0,0.0,0.0,0.0,0.0,0.0,0.0,0.0,0.0,0.0,0.0,0.0,0.0,0.0,0.0,0.0,0.0,0.0,0.0,0.0,0.0,0.0,0.0,0.0,0.0,0.0,0.0,0.0,0.0,0.0,0.0,0.0,0.0,0.0,0.0,-1.6055,-1.9927,-2.2892,-2.4771,-2.4868,-2.4872,-2.4743,-2.1488,-1.8394,0.0,0.0,0.0,0.0,0.0,0.0,0.0,0.0,0.0,0.0,0.0,0.0,0.0,0.0,0.0,0.0,0.0,0.0,0.0,0.0,0.0,0.0,0.0,0.0,0.0,0.0,0.0,0.0,0.0,0.0,0.0,0.0,0.0,0.0,0.0,0.0,0.0,0.0,0.0,0.0,0.0,-1.8444,-1.9278,-1.7945,-1.6985,0.0,0.0,-2.0793,-2.0927,-2.3852,0.0,0.0,0.0,0.0,0.0,0.0,0.0,0.0,0.0,0.0,0.0,0.0,0.0,0.0,0.0,0.0,0.0,0.0,0.0,0.0,0.0,0.0,0.0,0.0,0.0,0.0,0.0,0.0,0.0,0.0,0.0,0.0,0.0,0.0,0.0,0.0,0.0,0.0,0.0,0.0,0.0,0.0,0.0,0.0,0.0,0.0,0.0,0.0,0.0,0.0,0.0,0.0,0.0,0.0,0.0,-1.5226,-1.6476,-2.2124,-2.5474,-2.6275,-2.6619,-2.6815,-2.6881,-2.3165,-1.9635,0.0,0.0,0.0,0.0,0.0,0.0,0.0,0.0,0.0,0.0,0.0,0.0,0.0,0.0,0.0,0.0,0.0,0.0,0.0,0.0,0.0,0.0,0.0,0.0,0.0,0.0,0.0,0.0,0.0,0.0,0.0,0.0,0.0,0.0,0.0,0.0,0.0,0.0,0.0,0.0,0.0,0.0,-2.1619,-2.0016,0.0,0.0,0.0,-2.145,-2.0254,0.0,0.0,0.0,0.0,0.0,0.0,0.0,0.0,0.0,0.0,0.0,0.0,0.0,0.0,0.0,0.0,0.0,0.0,0.0,0.0,0.0,0.0,0.0,0.0,0.0,0.0,0.0,0.0,0.0,0.0,0.0,0.0,0.0,0.0,0.0,0.0,0.0,0.0,0.0,0.0,0.0,0.0,0.0,0.0,0.0,0.0,0.0,0.0,0.0,0.0,0.0,0.0,0.0,0.0,0.0,0.0,0.0,-1.6578,-2.3878,-2.7619,-2.7544,-2.8083,-2.8441,-2.8529,-2.5043,0.0,0.0,0.0,0.0,0.0,0.0,0.0,0.0,0.0,0.0,0.0,0.0,0.0,0.0,0.0,0.0,0.0,0.0,0.0,0.0,0.0,0.0,0.0,0.0,0.0,0.0,0.0,-0.8028,0.0,0.0,0.0,0.0,0.0,0.0,0.0,0.0,0.0,0.0,0.0,0.0,0.0,0.0,-2.0665,-2.3215,-2.1897,-2.1633,0.0,0.0,-2.2899,-2.2247,-2.67,-2.7925,0.0,0.0,0.0,0.0,0.0,0.0,0.0,0.0,0.0,0.0,0.0,0.0,0.0,0.0,0.0,0.0,0.0,0.0,0.0,0.0,0.0,0.0,0.0,0.0,0.0,0.0,0.0,0.0,0.0,0.0,0.0,0.0,0.0,0.0,0.0,0.0,0.0,0.0,0.0,0.0,0.0,0.0,0.0,0.0,0.0,0.0,0.0,0.0,0.0,0.0,0.0,0.0,0.0,0.0,-1.724,-1.6784,-2.4428,-2.8468,-2.8355,-2.9007,-2.938,-2.94,-2.7031,-2.3435,0.0,0.0,0.0,0.0,0.0,0.0,0.0,0.0,0.0,0.0,0.0,0.0,0.0,0.0,0.0,0.0,0.0,0.0,0.0,0.0,0.0,0.0,0.0,0.0,0.0,0.0,0.0,0.0,0.0,0.0,0.0,0.0,0.0,0.0,0.0,0.0,0.0,0.0,0.0,0.0,0.0,-1.9654,-2.2248,-2.2844,-2.4599,0.0,-2.749,-2.7308,-3.1349,-3.3955,-3.2679,-2.3942,0.0,0.0,0.0,0.0,0.0,0.0,0.0,0.0,0.0,0.0,0.0,0.0,0.0,0.0,0.0,0.0,0.0,0.0,0.0,0.0,0.0,0.0,0.0,0.0,0.0,0.0,0.0,0.0,0.0,0.0,0.0,0.0,0.0,0.0,0.0,0.0,0.0,0.0,0.0,0.0,0.0,0.0,0.0,0.0,0.0,0.0,0.0,0.0,0.0,0.0,0.0,0.0,0.0,-1.7191,-1.7524,-2.5297,-2.9565,-2.9997,-3.0177,-3.0269,-3.0315,-2.8251,-2.4991,0.0,0.0,0.0,0.0,0.0,0.0,0.0,0.0,0.0,0.0,0.0,0.0,0.0,0.0,0.0,0.0,0.0,0.0,0.0,0.0,0.0,0.0,0.0,0.0,0.0,0.0,0.0,0.0,-1.4144,-1.4056,-1.1638,0.0,0.0,0.0,0.0,0.0,0.0,0.0,0.0,0.0,0.0,-2.2932,-2.5428,-2.5762,0.0,0.0,-2.9104,-2.8682,-3.0173,-3.1661,-3.0384,-2.3865,-2.2147,0.0,0.0,0.0,0.0,0.0,0.0,0.0,0.0,0.0,0.0,0.0,0.0,0.0,0.0,0.0,0.0,0.0,0.0,0.0,0.0,0.0,0.0,0.0,0.0,0.0,0.0,0.0,0.0,0.0,0.0,0.0,0.0,0.0,0.0,0.0,0.0,0.0,0.0,0.0,0.0,0.0,0.0,0.0,0.0,0.0,0.0,0.0,0.0,0.0,0.0,0.0,0.0,-1.7471,-1.7744,-2.6062,-3.0601,-3.0995,-3.1108,-3.1146,-3.1087,-2.9592,-2.6842,0.0,0.0,0.0,0.0,0.0,0.0,0.0,0.0,0.0,0.0,0.0,0.0,0.0,0.0,0.0,0.0,0.0,0.0,0.0,0.0,0.0,0.0,0.0,0.0,0.0,0.0,0.0,0.0,-1.4606,-1.4213,-1.1722,0.0,0.0,0.0,0.0,0.0,0.0,0.0,0.0,0.0,0.0,-2.5765,-2.767,-2.7751,-2.8202,-2.977,-2.8867,-2.8236,-2.887,-2.9506,-2.8501,-2.4488,0.0,0.0,0.0,0.0,0.0,0.0,0.0,0.0,0.0,0.0,0.0,0.0,0.0,0.0,0.0,0.0,0.0,0.0,0.0,0.0,0.0,0.0,0.0,0.0,0.0,0.0,0.0,-0.4287,0.0,0.0,-0.5668,0.0,0.0,0.0,0.0,0.0,0.0,0.0,0.0,0.0,0.0,0.0,0.0,0.0,0.0,0.0,0.0,0.0,0.0,0.0,0.0,0.0,0.0,-1.8183,-1.7197,-2.6758,-3.1511,-3.108,-3.1647,-3.1981,-3.1966,-3.1313,-2.9052,-2.5045,0.0,0.0,0.0,0.0,0.0,0.0,0.0,0.0,0.0,0.0,0.0,0.0,0.0,0.0,0.0,0.0,0.0,0.0,0.0,0.0,0.0,0.0,0.0,0.0,0.0,0.0,-0.9139,-1.0227,-1.1633,0.0,0.0,0.0,0.0,0.0,0.0,0.0,0.0,0.0,-2.1933,-2.5351,-2.7528,-2.8131,-2.8318,-2.8572,-2.8952,-2.6792,-2.6061,-2.9036,-2.9017,-2.8123,0.0,0.0,0.0,0.0,0.0,0.0,0.0,0.0,0.0,0.0,0.0,0.0,0.0,0.0,0.0,0.0,0.0,0.0,0.0,0.0,0.0,0.0,0.0,0.0,0.0,0.0,0.0,-0.7594,-0.78,0.0,0.0,0.0,0.0,0.0,0.0,0.0,0.0,0.0,0.0,0.0,-1.5372,-1.6895,0.0,0.0,0.0,0.0,0.0,0.0,0.0,0.0,0.0,0.0,0.0,0.0,-1.8515,-1.9494,-2.7567,-3.2081,-3.2444,-3.2219,-3.2135,-3.215,-3.1921,-2.9666,-2.5188,0.0,0.0,0.0,0.0,0.0,0.0,0.0,0.0,0.0,0.0,0.0,0.0,0.0,0.0,0.0,0.0,0.0,0.0,0.0,0.0,0.0,0.0,0.0,0.0,0.0,-1.2443,0.0,0.0,0.0,0.0,0.0,0.0,0.0,0.0,0.0,0.0,-1.837,-2.1422,-2.3989,-2.6185,-2.8056,-2.9506,-2.9782,-3.0731,0.0,0.0,0.0,0.0,0.0,0.0,0.0,0.0,0.0,0.0,0.0,0.0,0.0,0.0,-2.5631,-1.3999,-1.5808,-1.9609,-2.1132,0.0,0.0,0.0,0.0,0.0,0.0,0.0,0.0,0.0,0.0,0.0,0.0,0.0,0.0,-1.0574,0.0,-1.0858,0.0,0.0,0.0,0.0,0.0,0.0,0.0,0.0,-1.6644,-1.818,-1.9089,-2.0546,-2.0519,-1.9221,-1.9137,-1.7171,0.0,0.0,0.0,0.0,0.0,0.0,0.0,0.0,-1.9649,-2.1972,-2.9182,-3.3048,-3.3166,-3.2803,-3.2437,-3.2287,-3.2237,-3.0807,-2.7816,-2.5187,-2.2333,0.0,0.0,0.0,0.0,0.0,0.0,0.0,0.0,0.0,0.0,0.0,0.0,0.0,0.0,0.0,0.0,0.0,0.0,0.0,0.0,0.0,0.0,0.0,-1.341,0.0,0.0,0.0,0.0,0.0,0.0,0.0,0.0,0.0,-1.9637,-2.2652,-2.5362,-2.7179,-2.91,-3.0317,-3.0219,0.0,0.0,0.0,0.0,0.0,0.0,0.0,-2.5959,-2.6799,-2.5815,-2.5468,-2.7258,-3.0631,-3.2814,-3.1979,0.0,0.0,-2.3391,-2.4008,-2.7706,-3.2695,-3.0156,-2.7285,-2.7851,-2.8636,-2.9299,0.0,0.0,0.0,0.0,-1.0081,0.0,0.0,0.0,-1.4069,-1.3501,0.0,-1.3738,0.0,0.0,0.0,0.0,-1.1541,-1.4876,0.0,0.0,-2.2129,-2.3668,-2.3111,-2.3051,-2.3416,-2.4145,-2.3117,-2.1952,-2.0689,-1.8778,0.0,0.0,0.0,0.0,0.0,0.0,-2.1645,-2.49,-3.1374,-3.4317,-3.3303,-3.3235,-3.2986,-3.2477,-3.239,-3.245,-3.2606,-2.8592,-2.577,-2.464,-1.5,0.0,0.0,0.0,0.0,0.0,0.0,0.0,0.0,0.0,0.0,0.0,0.0,0.0,0.0,0.0,0.0,0.0,0.0,0.0,0.0,-1.355,0.0,0.0,0.0,0.0,0.0,0.0,0.0,0.0,0.0,-2.4498,-2.5171,-2.6482,-2.8414,-3.1142,0.0,0.0,0.0,0.0,-3.1642,-2.7656,-2.6249,-2.5884,-2.6103,-2.8416,-3.126,-3.4236,0.0,0.0,-3.5823,-3.5751,-3.5392,-3.2908,-3.6745,-3.8546,-3.4234,-3.2822,-3.4866,-4.1698,-3.7539,-3.2947,-3.2827,-3.4731,-3.6356,-1.3869,0.0,0.0,0.0,0.0,-1.3821,-1.5193,-1.7877,-1.7307,-1.6735,-1.62,-1.6643,0.0,0.0,0.0,0.0,0.0,0.0,-1.6937,-2.0146,-2.0939,-2.2353,-2.4297,-2.4859,-2.5277,-2.5634,-2.6596,-2.691,-2.6672,-2.6809,-2.1584,-1.1412,0.0,0.0,0.0,0.0,-2.5225,-2.7897,-3.243,-3.4673,-3.4366,-3.3969,-3.3716,-3.3527,-3.3974,-3.3763,-3.2864,-3.2014,-2.977,-2.5844,-2.5343,0.0,0.0,0.0,0.0,0.0,0.0,0.0,0.0,0.0,0.0,0.0,0.0,0.0,0.0,0.0,0.0,0.0,0.0,0.0,-1.1982,-1.597,-1.7957,0.0,0.0,0.0,0.0,0.0,0.0,0.0,0.0,0.0,-2.9338,-2.9362,-2.9305,0.0,0.0,-3.0129,-2.8421,-3.0719,-3.3176,-3.4717,-3.4477,0.0,-3.6795,-3.5321,-3.5454,-3.9863,-4.1279,-4.138,-4.0249,-4.1628,-4.2684,-4.1976,-4.3233,-4.3873,-4.268,-4.123,-4.1595,-4.4464,-4.2695,-4.0918,-4.1992,-4.2388,-4.2526,-1.7701,-1.6587,-1.5045,-1.554,-1.7355,-1.7023,-1.8468,-2.1079,-2.0638,-2.0092,-1.956,-1.9872,-1.8446,-1.5765,-1.4962,0.0,0.0,0.0,-1.8733,-2.1873,-2.17,-2.2643,-2.4476,-2.4946,-2.5609,-2.6475,-2.718,-2.8178,-2.9287,-2.9009,-2.481,-1.6922,0.0,-1.8404,-1.7992,-2.3539,-2.7892,-3.0734,-3.3627,-3.5021,-3.4769,-3.4284,-3.4086,-3.4333,-3.4769,-3.4568,-3.366,-3.3803,-3.2303,-2.8932,-3.0683,-2.7627,0.0,0.0,0.0,0.0,0.0,0.0,0.0,0.0,0.0,0.0,0.0,-1.1582,-0.8224,0.0,0.0,0.0,-1.7643,-1.7852,-1.7624,-2.0558,0.0,0.0,0.0,0.0,0.0,0.0,0.0,-2.4505,-2.8665,-3.1941,-3.3315,-3.3043,-3.2632,-3.2593,-3.2939,-3.269,-3.1261,0.0,-3.6036,-3.793,-3.794,-3.8126,-3.9234,-3.9164,-4.0224,-4.4065,-4.4605,-4.4282,-4.3724,-4.49,-4.5905,-4.6072,-4.6164,-4.622,-4.6201,-4.5326,-4.4949,-4.6035,-4.5488,-4.5156,-4.6133,-4.582,-4.5587,-2.1071,-2.0814,-1.718,-1.7006,-1.9179,-1.98,-2.1242,-2.31,-2.3564,-2.3103,-2.2185,-2.2929,-2.139,-1.8235,-1.6908,0.0,-1.9034,-2.0361,-2.1904,-2.3607,-2.3753,-2.3865,-2.4005,-2.3923,-2.4867,-2.6602,-2.5964,-2.6997,-2.9343,-2.7623,-2.6225,-2.5481,-2.5824,-2.553,-2.4729,-2.6879,-2.9816,-3.3339,-3.4742,-3.5244,-3.4864,-3.4382,-3.4366,-3.4864,-3.5021,-3.5019,-3.488,-3.4343,-3.3675,-3.2988,-3.2219,-2.9851,-2.5754,0.0,0.0,0.0,0.0,0.0,0.0,0.0,0.0,0.0,0.0,0.0,0.0,0.0,0.0,0.0,-2.4664,0.0,-2.748,-2.6308,0.0,0.0,0.0,-2.2057,-2.5454,-2.8418,-3.0527,-3.1299,0.0,0.0,-3.7131,-3.7043,-3.7507,-3.8891,-3.9485,-3.8932,-3.6722,-3.8501,-3.9785,-3.8804,-3.8757,-3.8486,-3.8516,-4.1351,-4.4655,-4.6695,-4.72,-4.6673,-4.5951,-4.5921,-4.613,-4.6183,-4.6268,-4.63,-4.6287,-4.6293,-4.6426,-4.6543,-4.6387,-4.6269,-4.6426,-4.6367,-4.6365,-2.1071,-2.1055,-2.0629,-2.1098,-2.2114,-2.223,-2.2648,-2.3125,-2.3065,-2.3153,-2.3193,-2.2832,-2.2149,-2.1289,-2.1156,-2.1869,-2.3205,-2.2704,-2.3242,-2.4462,-2.3569,-2.3165,-2.3194,-2.3673,-2.4349,-2.5319,-2.6592,-2.7762,-2.8871,-2.9821,-2.9725,-2.8665,-2.9722,-2.8592,-2.5456,-2.8547,-3.1297,-3.3372,-3.3744,-3.4401,-3.5391,-3.5287,-3.5333,-3.556,-3.5694,-3.5501,-3.4992,-3.4922,-3.4559,-3.3844,-3.2545,-3.1219,-2.9843,-2.4504,0.0,0.0,0.0,0.0,0.0,0.0,0.0,0.0,0.0,-1.8172,-1.9657,0.0,-2.3586,0.0,-3.1292,-3.1765,-2.8115,-2.964,0.0,0.0,-2.8188,-2.86,-3.3355,-3.4391,-3.4984,-3.562,-3.7672,-3.9246,-3.9844,-3.9672,-4.0635,-4.3463,-4.0719,-3.7942,-3.6912,-4.0352,-4.294,-4.2809,-4.4718,-4.6424,-4.5693,-4.6139,-4.679,-4.7543,-4.7337,-4.6848,-4.6097,-4.6044,-4.6139,-4.6254,-4.6284,-4.6303,-4.6323,-4.6812,-4.7519,-4.8008,-4.7246,-4.6523,-4.7129,-4.728,-4.7396,-2.204,-2.1514,-2.2199,-2.2628,-2.2909,-2.309,-2.3078,-2.3017,-2.3138,-2.3471,-2.3872,-2.3399,-2.2927,-2.2489,-2.2628,-2.298,-2.3461,-2.3365,-2.3747,-2.444,-2.3995,-2.3659,-2.3383,-2.3731,-2.4187,-2.4791,-2.6114,-2.7312,-2.8517,-3.0222,-3.1014,-3.0924,-3.2077,-3.138,-2.8968,-3.0261,-3.1139,-3.1404,-3.2763,-3.4134,-3.5554,-3.5639,-3.4718,-3.2904,-3.4184,-3.3863,-3.1566,-3.2713,-3.2508,-3.0762,-3.2034,-3.1411,-2.8405,-2.5937,-2.3557,0.0,0.0,0.0,0.0,0.0,0.0,0.0,0.0,0.0,0.0,0.0,-2.9838,-3.2641,-3.5174,-3.4696,-2.9932,-3.2891,-3.5134,-3.5127,-3.441,-3.541,-3.9037,-3.9553,-3.9772,-4.0084,-4.1234,-4.2177,-4.2607,-4.2517,-4.3239,-4.5621,-4.3724,-4.1964,-4.1731,-4.3885,-4.5745,-4.6581,-4.8013,-4.9174,-4.93,-4.8504,-4.7832,-4.7788,-4.7183,-4.6503,-4.614,-4.6118,-4.6337,-4.6758,-4.6875,-4.6894,-4.6975,-4.7567,-4.8308,-4.8732,-4.8177,-4.7615,-4.7977,-4.8048,-4.8168,-2.3244,-2.2234,-2.269,-2.2848,-2.2739,-2.2957,-2.2957,-2.2909,-2.3292,-2.3695,-2.4163,-2.4292,-2.3785,-2.2725,-2.2745,-2.2611,-2.2376,-2.332,-2.3918,-2.4128,-2.4611,-2.4573,-2.4036,-2.3934,-2.4156,-2.4687,-2.5349,-2.6518,-2.8168,-2.9734,-3.1084,-3.222,-3.3115,-3.315,-3.2419,-3.1439,-3.0398,-2.9256,-3.1692,-3.3609,-3.4861,-3.4726,-3.2805,-2.9253,-3.1893,-3.1688,-2.8001,-3.0048,-3.0044,-2.744,-3.0692,-3.0575,-2.6088,-2.8264,-2.7479,0.0,-2.0948,0.0,0.0,0.0,0.0,0.0,0.0,0.0,0.0,-2.9437,-3.2242,-3.5027,-3.7102,-3.6858,-3.3422,-3.6562,-3.9369,-4.0626,-4.0948,-4.1602,-4.2908,-4.3628,-4.4026,-4.4005,-4.457,-4.4943,-4.4867,-4.4909,-4.5236,-4.6291,-4.6805,-4.701,-4.7591,-4.7737,-4.8353,-4.9791,-4.9219,-4.8958,-4.9491,-4.8779,-4.7896,-4.7665,-4.7058,-4.6286,-4.6337,-4.6552,-4.6914,-4.7558,-4.7773,-4.7832,-4.8004,-4.8497,-4.9025,-4.9547,-4.9264,-4.8914,-4.8864,-4.8793,-4.874,-2.3866,-2.3542,-2.3095,-2.2909,-2.2848,-2.28,-2.2739,-2.2739,-2.2653,-2.2871,-2.3386,-2.4421,-2.4469,-2.3703,-2.3335,-2.3683,-2.4542,-2.3888,-2.4163,-2.5277,-2.4833,-2.4693,-2.4675,-2.4152,-2.4156,-2.4687,-2.5826,-2.6738,-2.7423,-2.9908,-3.1013,-3.0846,-3.1556,-3.1073,-2.9482,0.0,0.0,0.0,-3.0751,-3.0852,-3.1077,-3.0034,-2.9104,-2.8442,-3.0974,0.0,-3.1307,-3.1978,-3.2152,-3.1472,-2.7447,0.0,0.0,0.0,0.0,0.0,0.0,0.0,0.0,0.0,0.0,0.0,-2.588,-2.6446,-2.7663,-3.1361,-3.347,-3.3112,-3.676,-3.976,-4.0984,-4.2367,-4.33,-4.3386,-4.4075,-4.4557,-4.4554,-4.4897,-4.5151,-4.5033,-4.5148,-4.5225,-4.5203,-4.5058,-4.5592,-4.7199,-4.7698,-4.845,-4.9856,-5.0157,-5.0298,-4.9974,-4.9305,-4.8985,-4.962,-4.7867,-4.6714,-4.7059,-4.7303,-4.714,-4.7201,-4.7851,-4.8379,-4.8652,-4.8652,-4.8802,-4.9174,-4.954,-4.9958,-5.0632,-5.0666,-5.0444,-4.9827,-4.9625,-4.9749,-2.458,-2.4241,-2.3492,-2.3133,0.0,-2.2604,-2.2432,-2.2445,-2.242,-2.2811,-2.3623,-2.4593,-2.4821,-2.4452,-2.3904,-2.4163,-2.5061,-2.4541,-2.4901,-2.5845,-2.5644,-2.5416,-2.5243,-2.4945,-2.4805,-2.4749,-2.5621,-2.6502,-2.7428,-2.9675,-3.1014,-3.1419,-3.2504,-3.2652,-3.1892,-3.279,-3.2934,-3.2388,-3.2015,-3.219,-3.2934,-3.231,-3.0936,-2.8973,-3.1507,0.0,0.0,0.0,0.0,0.0,0.0,0.0,0.0,-3.3944,0.0,-3.0782,-2.893,-2.8177,-2.8679,-2.8913,-3.0482,-3.3776,-3.4133,-3.3111,-3.0674,-3.5173,-3.8056,-3.7815,-4.0372,-4.2543,-4.3788,-4.4664,-4.509,-4.4983,-4.5368,-4.5547,-4.5362,-4.5475,-4.5568,-4.5513,-4.551,-4.5509,-4.5493,-4.5398,-4.5896,-4.7255,-4.7889,-4.8636,-4.9978,-5.0702,-5.0849,-5.0506,-5.0894,-5.0699,-4.9718,-4.7637,-4.6245,-4.7028,-4.7347,-4.7446,-4.7494,-4.8281,-4.9023,-4.9394,-4.9497,-4.9624,-5.0245,-5.0486,-5.0658,-5.0925,-5.1003,-5.089,-5.0468,-5.0349,-5.0387,-2.5281,-2.4726,-2.3998,-2.3499,-2.3186,-2.2636,-2.233,-2.2392,-2.2567,0.0,0.0,-2.4821,-2.5174,-2.5104,-2.4452,-2.4536,-2.5213,-2.5174,-2.5564,-2.6155,-2.6394,-2.6251,-2.5842,-2.58,-2.5458,-2.4863,-2.5405,-2.6133,-2.7149,-2.9249,-3.0924,-3.2262,-3.3742,-3.4752,-3.5258,-3.5503,-3.5074,-3.4057,-3.3335,-3.3673,-3.4976,-3.477,-3.2911,-2.93,-3.2053,-3.2055,-2.89,-3.1387,-3.1827,-2.9698,-3.0051,-3.0046,-2.9606,-3.5539,-3.7326,-3.3571,-3.3504,-3.4412,-3.5954,-3.6266,-3.7565,-4.0346,-4.0712,-3.9038,-3.4775,-3.9108,-4.2505,-4.3634,-4.4266,-4.4639,-4.4808,-4.5394,-4.5805,-4.5815,-4.58,-4.5765,-4.5715,-4.5703,-4.5706,-4.5706,-4.57,-4.5715,-4.57,-4.5723,-4.6129,-4.698,-4.7855,-4.8817,-4.9765,-5.0549,-5.0902,-5.0955,-5.1438,-5.1702,-4.9865,-4.7649,-4.6557,-4.7182,-4.7579,-4.7786,-4.8066,-4.873,-4.9551,-5.0293,-5.0312,-5.05,-5.1014,-5.1082,-5.1041,-5.0945,-5.0909,-5.0893,-5.088,-5.0827,-5.0773,-2.5548,-2.5448,-2.4738,-2.406,-2.3413,-2.3201,-2.2986,-2.2962,-2.3482,-2.3859,-2.4079,-2.5245,-2.5784,-2.5715,-2.516,-2.5257,-2.5882,-2.5453,-2.5647,-2.6415,-2.6476,-2.6534,-2.662,-2.6054,-2.5473,-2.4999,-2.5912,-2.6249,-2.618,-2.8748,-3.0672,-3.1758,-3.2948,-3.4159,-3.522,-3.5458,-3.5554,-3.5617,-3.2361,-3.0882,-3.1253,-3.0056,-2.9145,-2.8713,-3.1133,-3.2369,-3.2138,-3.2853,-3.3208,-3.3172,-3.4134,-3.4674,-3.4733,-3.745,-3.8902,-3.8573,-3.8647,-3.8991,-3.9431,-3.9682,-4.0019,-4.0554,-4.133,-4.1177,-3.992,-4.1087,-4.2957,-4.5117,-4.4929,-4.4891,-4.5529,-4.5713,-4.5815,-4.5815,-4.5731,-4.5731,-4.5781,-4.5785,-4.577,-4.5719,-4.5761,-4.5757,-4.5712,-4.5757,-4.609,-4.696,-4.7811,-4.8972,-5.0306,-5.089,-5.0909,-5.077,-5.0229,-4.9571,-4.8909,-4.7298,-4.6776,-4.7326,-4.8153,-4.8866,-4.9492,-5.0273,-5.0879,-5.1172,-5.1072,-5.1092,-5.1208,-5.1145,-5.1041,-5.0925,-5.0893,-5.0916,-5.0899,-5.0793,-5.072,-2.5424,-2.5419,-2.514,-2.4781,-2.4337,-2.3782,-2.3465,-2.3518,-2.413,-2.4416,-2.4504,-2.5395,-2.5869,-2.5853,-2.5619,-2.5633,-2.599,-2.5784,-2.5892,-2.6279,-2.6428,-2.6563,-2.663,-2.646,-2.6184,-2.6003,-2.6425,-2.6698,-2.6831,-2.9092,-3.0698,-3.1694,-3.3416,-3.4645,-3.5287,-3.5429,-3.5594,-3.5854,-3.4226,-3.3436,-3.3635,-3.2986,-3.2738,-3.2997,-3.4191,-3.503,-3.5666,-3.5814,-3.6103,-3.6497,-3.7043,-3.7358,-3.7414,-3.8479,-3.9165,-3.9331,-3.9637,-3.984,-3.9963,-4.0339,-4.0583,-4.0673,-4.1479,-4.2066,-4.2164,-4.2937,-4.4078,-4.5606,-4.5452,-4.5374,-4.5761,-4.5805,-4.5824,-4.5805,-4.5757,-4.5757,-4.5791,-4.5815,-4.5781,-4.5765,-4.5776,-4.5795,-4.5765,-4.5791,-4.5896,-4.6438,-4.7521,-4.8933,-5.0225,-5.0798,-5.1056,-5.101,-5.0596,-5.0035,-4.9393,-4.8658,-4.8191,-4.8275,-4.8977,-4.966,-5.0215,-5.0859,-5.1308,-5.1362,-5.1306,-5.1224,-5.1145,-5.1061,-5.0964,-5.0929,-5.0913,-5.088,-5.0846,-5.0757,-5.0702,-2.5158,-2.5264,-2.5362,-2.5265,-2.4982,-2.419,-2.3899,-2.3996,-2.4448,-2.4823,-2.5214,-2.5654,-2.5917,-2.6063,-2.5964,-2.5893,-2.6002,-2.6125,-2.6172,-2.6256,-2.6453,-2.6578,-2.6578,-2.6712,-2.6721,-2.6605,-2.6707,-2.7004,-2.752,-2.9378,-3.1068,-3.2337,-3.4147,-3.5152,-3.5308,-3.5383,-3.5566,-3.5773,-3.5905,-3.6105,-3.6326,-3.6426,-3.6597,-3.6978,-3.6999,-3.7377,-3.8034,-3.8101,-3.8285,-3.8658,-3.8792,-3.8815,-3.8815,-3.8989,-3.9137,-3.9279,-3.9614,-3.9861,-4.0003,-4.0389,-4.0728,-4.0996,-4.1782,-4.2582,-4.3285,-4.4272,-4.5104,-4.5684,-4.578,-4.578,-4.58,-4.58,-4.58,-4.58,-4.58,-4.58,-4.58,-4.581,-4.5815,-4.5815,-4.5815,-4.5795,-4.5815,-4.5805,-4.5916,-4.6355,-4.7516,-4.8793,-4.9732,-5.0647,-5.1175,-5.1237,-5.1184,-5.079,-5.0147,-4.9756,-4.9473,-4.9199,-4.9707,-5.0195,-5.0508,-5.1035,-5.1316,-5.1315,-5.1217,-5.1159,-5.1106,-5.1006,-5.0929,-5.0893,-5.0861,-5.0793,-5.0644,-5.0606,-5.0624,-2.4636,-2.5241,-2.5298,-2.5241,-2.5087,-2.4335,-2.4183,-2.4434,-2.4514,-2.5195,-2.6257,-2.6002,-2.6164,-2.6596,-2.6146,-2.6045,-2.6207,-2.6301,-2.6433,-2.6683,-2.6765,-2.6779,-2.6779,-2.6779,-2.646,-2.6054,-2.6504,-2.6799,-2.6905,-2.9215,-3.1694,-3.4007,-3.469,-3.5024,-3.5274,-3.5291,-3.5458,-3.5773,-3.5817,-3.6062,-3.6533,-3.6759,-3.7017,-3.7356,-3.7395,-3.765,-3.8101,-3.8101,-3.8285,-3.8658,-3.8822,-3.8892,-3.8892,-3.9017,-3.9305,-3.9687,-3.9775,-4.0003,-4.0457,-4.0612,-4.1015,-4.184,-4.264,-4.3175,-4.3363,-4.4775,-4.5703,-4.58,-4.58,-4.58,-4.58,-4.58,-4.58,-4.58,-4.58,-4.58,-4.58,-4.58,-4.5805,-4.5815,-4.5824,-4.5805,-4.5829,-4.5824,-4.6123,-4.672,-4.7829,-4.888,-4.9687,-5.0681,-5.1307,-5.1336,-5.1314,-5.0947,-5.0273,-4.9841,-4.9922,-5.0058,-5.0156,-5.0527,-5.0996,-5.1199,-5.13,-5.1266,-5.1188,-5.1126,-5.1072,-5.1009,-5.0916,-5.0841,-5.0754,-5.0587,-5.0342,-5.0119,-5.0147,-2.3644,-2.4009,-2.4957,-2.5496,-2.5691,-2.5333,-2.5152,-2.5126,-2.5139,-2.5859,-2.6948,-2.6446,-2.6451,-2.6807,-2.654,-2.63,-2.6099,-2.6247,-2.6365,-2.651,-2.6712,-2.6794,-2.6794,-2.6794,-2.6634,-2.6416,-2.6663,-2.6931,-2.7465,-2.9366,-3.1405,-3.3129,-3.3919,-3.4349,-3.4685,-3.5318,-3.581,-3.6105,-3.6426,-3.6816,-3.715,-3.6939,-3.7114,-3.7667,-3.7809,-3.8016,-3.8419,-3.8433,-3.8546,-3.8707,-3.8822,-3.891,-3.891,-3.9017,-3.9313,-3.9735,-3.9945,-4.0211,-4.0612,-4.0687,-4.1081,-4.1944,-4.2808,-4.3305,-4.3382,-4.4833,-4.58,-4.58,-4.58,-4.58,-4.58,-4.58,-4.58,-4.58,-4.58,-4.58,-4.58,-4.58,-4.5819,-4.5902,-4.5935,-4.5949,-4.596,-4.5974,-4.6132,-4.6674,-4.7738,-4.8831,-4.9325,-5.0457,-5.1287,-5.138,-5.1372,-5.1232,-5.0859,-5.0777,-5.0762,-5.0859,-5.0918,-5.1133,-5.125,-5.1345,-5.1289,-5.1235,-5.1157,-5.1061,-5.0983,-5.0971,-5.0899,-5.075,-5.0125,-4.9697,-4.9526,-4.8948,-4.8724,-2.2777,-2.3191,-2.4507,-2.5402,-2.5873,-2.5578,-2.5558,-2.5569,-2.5448,-2.6195,-2.7352,-2.6895,-2.677,-2.7029,-2.6891,-2.6469,-2.6004,-2.6165,-2.6258,-2.6322,-2.6578,-2.6712,-2.6727,-2.6765,-2.6794,-2.6794,-2.6779,-2.7189,-2.8102,-2.9754,-3.1273,-3.2368,-3.3116,-3.3591,-3.3943,-3.4908,-3.5547,-3.5797,-3.6493,-3.7091,-3.7376,-3.717,-3.734,-3.8068,-3.8219,-3.8401,-3.8676,-3.8707,-3.8707,-3.8719,-3.8921,-3.8979,-3.891,-3.9147,-3.9477,-3.988,-4.0175,-4.0434,-4.0687,-4.0926,-4.1422,-4.2299,-4.3169,-4.3769,-4.4136,-4.5104,-4.5761,-4.5877,-4.5858,-4.5858,-4.5838,-4.5858,-4.5858,-4.5858,-4.5877,-4.5877,-4.5877,-4.5877,-4.5916,-4.6007,-4.6028,-4.6035,-4.6079,-4.6118,-4.615,-4.6339,-4.7467,-4.8468,-4.8633,-4.9702,-5.0672,-5.072,-5.0683,-5.0898,-5.125,-5.1308,-5.1387,-5.1387,-5.1348,-5.1308,-5.1359,-5.1307,-5.1231,-5.1138,-5.108,-5.1022,-5.0948,-5.0913,-5.0653,-5.0333,-4.9702,-4.8879,-4.8548,-4.7764,-4.7422,-2.2327,-2.3073,-2.4073,-2.474,-2.5004,-2.4798,-2.4988,-2.5569,-2.5107,-2.587,-2.7324,-2.7124,-2.7269,-2.7619,-2.7058,-2.6539,-2.6113,-2.6125,-2.6179,-2.6258,-2.6472,-2.6525,-2.6525,-2.6712,-2.6794,-2.6727,-2.6794,-2.7587,-2.9166,-3.04,-3.1528,-3.2335,-3.2504,-3.2673,-3.3106,-3.394,-3.4398,-3.4865,-3.5862,-3.658,-3.7034,-3.745,-3.7879,-3.8415,-3.8578,-3.8676,-3.8707,-3.8707,-3.8719,-3.8792,-3.9091,-3.9173,-3.9007,-3.9469,-3.9905,-4.0177,-4.0469,-4.0673,-4.0777,-4.1422,-4.2241,-4.3111,-4.3904,-4.4833,-4.5355,-4.5645,-4.5858,-4.6065,-4.6027,-4.6007,-4.5988,-4.5976,-4.6015,-4.6073,-4.6079,-4.606,-4.6079,-4.6067,-4.6085,-4.6106,-4.6105,-4.6113,-4.6113,-4.6162,-4.6192,-4.6362,-4.7068,-4.7714,-4.791,-4.855,-4.9118,-4.9199,-4.9295,-4.957,-5.0957,-5.1191,-5.125,-5.1387,-5.1382,-5.1343,-5.1268,-5.1203,-5.1119,-5.1041,-5.0967,-5.0913,-5.0874,-5.0632,-5.0236,-4.9779,-4.9079,-4.8403,-4.7511,-4.7173,-4.6769,-2.1977,-2.3043,-2.3876,-2.4625,-2.5252,-2.5592,-2.5828,-2.5943,-2.5632,-2.617,-2.7124,-2.7095,-2.7051,-2.7129,-2.6909,-2.6493,-2.599,-2.6056,-2.6111,-2.6179,-2.6326,-2.6379,-2.6379,-2.6447,-2.65,-2.65,-2.6592,-2.7343,-2.8627,-2.9546,-3.0303,-3.1006,-3.1588,-3.2109,-3.2747,-3.3694,-3.4656,-3.5574,-3.6395,-3.7077,-3.7719,-3.8068,-3.8285,-3.8609,-3.859,-3.8609,-3.8707,-3.8707,-3.8773,-3.8971,-3.9181,-3.9313,-3.9402,-3.9963,-4.0286,-4.0283,-4.0549,-4.0733,-4.0842,-4.1513,-4.2222,-4.2783,-4.3924,-4.4949,-4.5606,-4.58,-4.5877,-4.6046,-4.6162,-4.6162,-4.6145,-4.6088,-4.6066,-4.6085,-4.6105,-4.6124,-4.6124,-4.6124,-4.6113,-4.6162,-4.6201,-4.6222,-4.6211,-4.625,-4.6257,-4.6347,-4.7027,-4.7486,-4.7732,-4.8333,-4.8789,-4.8875,-4.8918,-4.9094,-4.957,-5.0293,-5.0664,-5.1152,-5.1347,-5.1265,-5.1179,-5.099,-5.0861,-5.0748,-5.0711,-5.0593,-5.0477,-5.0077,-4.9681,-4.8945,-4.827,-4.7376,-4.6399,-4.596,-4.5536,-2.1492,-2.2291,-2.321,-2.4025,-2.4847,-2.545,-2.592,-2.6114,-2.6046,-2.6354,-2.6878,-2.6878,-2.6867,-2.685,-2.6532,-2.6208,-2.5869,-2.5896,-2.5962,-2.6056,-2.6165,-2.6233,-2.6233,-2.6272,-2.6326,-2.6433,-2.6707,-2.7348,-2.824,-2.8951,-2.955,-3.025,-3.0838,-3.1422,-3.2169,-3.3144,-3.4257,-3.5315,-3.6303,-3.7166,-3.7802,-3.8223,-3.8465,-3.8609,-3.8609,-3.8609,-3.8707,-3.8766,-3.8933,-3.9171,-3.94,-3.9678,-3.9926,-4.0348,-4.054,-4.0462,-4.0626,-4.0765,-4.0887,-4.1545,-4.2222,-4.2763,-4.3885,-4.4968,-4.5684,-4.58,-4.5919,-4.6113,-4.6241,-4.628,-4.6231,-4.6192,-4.6158,-4.6156,-4.6162,-4.6177,-4.6177,-4.6182,-4.6183,-4.622,-4.6253,-4.6289,-4.6289,-4.6289,-4.6289,-4.6307,-4.6839,-4.7162,-4.7279,-4.7631,-4.806,-4.806,-4.79,-4.804,-4.8371,-4.8833,-4.9731,-5.0302,-5.0661,-5.075,-5.0817,-5.0658,-5.0484,-5.0428,-5.0294,-5.0177,-4.9926,-4.9523,-4.8836,-4.8063,-4.7267,-4.6436,-4.5555,-4.4707,-4.4573,-2.0834,-2.0739,-2.1954,-2.3052,-2.379,-2.4316,-2.5018,-2.6095,-2.6105,-2.6297,-2.6661,-2.6609,-2.6831,-2.6816,-2.6022,-2.5633,-2.5854,-2.5617,-2.5647,-2.5907,-2.6002,-2.6111,-2.6111,-2.6233,-2.6326,-2.6457,-2.7108,-2.77,-2.8304,-2.8779,-2.9398,-3.0064,-3.0293,-3.0788,-3.1357,-3.2262,-3.289,-3.3934,-3.5595,-3.657,-3.6764,-3.7853,-3.8446,-3.8541,-3.864,-3.8719,-3.8719,-3.8952,-3.9167,-3.9371,-3.9794,-4.0223,-4.0466,-4.0593,-4.0635,-4.0655,-4.0752,-4.079,-4.0868,-4.1545,-4.2338,-4.2937,-4.4059,-4.5028,-4.5711,-4.5854,-4.5958,-4.6202,-4.6269,-4.6289,-4.6289,-4.6286,-4.6268,-4.6289,-4.6269,-4.6269,-4.6289,-4.6289,-4.6289,-4.6289,-4.6289,-4.6289,-4.6289,-4.6289,-4.6306,-4.6332,-4.6401,-4.6475,-4.6495,-4.6647,-4.6433,-4.6425,-4.6635,-4.6936,-4.7125,-4.7436,-4.8455,-4.9326,-4.9632,-4.9827,-4.9988,-4.9922,-4.9599,-4.9467,-4.9199,-4.9082,-4.9122,-4.8643,-4.774,-4.695,-4.6235,-4.5583,-4.4881,-4.4221,-4.411,-2.0276,-2.0665,-2.2498,-2.3144,-2.3269,-2.4982,-2.6146,-2.649,-2.6231,-2.6427,-2.6828,-2.6712,-2.6474,-2.625,-2.5801,-2.5741,-2.5846,-2.5418,-2.53,-2.5647,-2.5853,-2.5948,-2.5948,-2.6002,-2.6111,-2.6379,-2.6578,-2.7276,-2.8158,-2.848,-2.9091,-3.0004,-3.0185,-3.0794,-3.1722,-3.2104,-3.2792,-3.4228,-3.5439,-3.6345,-3.7021,-3.7945,-3.8523,-3.8683,-3.8732,-3.8862,-3.9082,-3.9208,-3.9352,-3.9566,-3.9907,-4.0245,-4.0534,-4.0673,-4.0713,-4.0694,-4.0759,-4.079,-4.0887,-4.1506,-4.1835,-4.2048,-4.3473,-4.5055,-4.5962,-4.6046,-4.6075,-4.625,-4.6289,-4.6289,-4.6289,-4.6297,-4.6289,-4.6289,-4.6289,-4.6289,-4.6289,-4.6289,-4.6289,-4.6289,-4.6289,-4.6289,-4.6289,-4.6306,-4.6295,-4.6306,-4.63,-4.63,-4.6277,-4.6216,-4.617,-4.6164,-4.6099,-4.6037,-4.6366,-4.6596,-4.7132,-4.8004,-4.8445,-4.8972,-4.9148,-4.9039,-4.8715,-4.8315,-4.8066,-4.7989,-4.8029,-4.7607,-4.6694,-4.5917,-4.5231,-4.4701,-4.4266,-4.4048,-4.3942,-1.982,-2.0163,-2.2173,-2.2887,-2.2744,-2.5036,-2.6165,-2.6309,-2.6414,-2.6577,-2.6685,-2.6445,-2.6149,-2.5805,-2.5411,-2.5361,-2.5539,-2.5175,-2.5131,-2.5369,-2.5743,-2.5893,-2.5948,-2.6002,-2.6125,-2.6286,-2.6447,-2.6982,-2.7963,-2.824,-2.8826,-2.9754,-3.0119,-3.0788,-3.1896,-3.2056,-3.2769,-3.416,-3.5048,-3.5957,-3.6851,-3.7729,-3.8412,-3.8828,-3.8989,-3.9165,-3.9458,-3.9575,-3.9698,-3.9859,-4.0101,-4.0356,-4.0588,-4.0706,-4.0778,-4.0733,-4.0765,-4.079,-4.0848,-4.1235,-4.1564,-4.1622,-4.2834,-4.4292,-4.5345,-4.5803,-4.6011,-4.5176,-4.582,-4.6152,-4.5898,-4.6172,-4.6269,-4.6289,-4.6289,-4.6289,-4.6289,-4.6289,-4.6289,-4.6289,-4.6289,-4.6306,-4.6301,-4.6301,-4.6306,-4.6303,-4.63,-4.6269,-4.624,-4.615,-4.6098,-4.6033,-4.5968,-4.5914,-4.5871,-4.5924,-4.5947,-4.6587,-4.721,-4.7882,-4.8386,-4.8006,-4.7662,-4.6935,-4.653,-4.659,-4.6608,-4.6271,-4.5593,-4.4909,-4.443,-4.4308,-4.4121,-4.4005,-4.3897,-1.9536,-1.9404,-2.1237,-2.212,-2.2468,-2.4402,-2.546,-2.5827,-2.6572,-2.6612,-2.6172,-2.6031,-2.5864,-2.5616,-2.486,-2.4695,-2.4971,-2.5003,-2.4948,-2.5188,-2.5578,-2.5839,-2.5893,-2.6125,-2.6233,-2.634,-2.6553,-2.7049,-2.7715,-2.8158,-2.8701,-2.9532,-3.0054,-3.0781,-3.1711,-3.2002,-3.2537,-3.3556,-3.4415,-3.5352,-3.6201,-3.7116,-3.7988,-3.8894,-3.9119,-3.9376,-3.9728,-4.0,-4.0158,-4.0177,-4.0356,-4.0489,-4.0603,-4.072,-4.0746,-4.072,-4.0759,-4.079,-4.079,-4.0906,-4.1158,-4.1757,-4.2157,-4.275,-4.411,-4.5097,-4.5152,-4.3711,-4.4687,-4.5469,-4.5117,-4.5488,-4.5937,-4.6211,-4.6211,-4.6289,-4.6289,-4.6289,-4.6289,-4.6289,-4.63,-4.6303,-4.6306,-4.6293,-4.629,-4.6277,-4.6269,-4.6211,-4.6125,-4.6041,-4.5996,-4.5919,-4.5841,-4.5694,-4.565,-4.5591,-4.559,-4.5649,-4.6147,-4.6647,-4.7204,-4.6858,-4.657,-4.5831,-4.5418,-4.5371,-4.5314,-4.5166,-4.4844,-4.4354,-4.4121,-4.4121,-4.4079,-4.3929,-4.38,-1.9502,-2.002,-2.1499,-2.2145,-2.2474,-2.4682,-2.5634,-2.5733,-2.6263,-2.643,-2.6261,-2.6004,-2.5743,-2.5461,-2.5031,-2.4951,-2.5051,-2.4847,-2.4821,-2.5061,-2.5425,-2.5702,-2.5853,-2.5948,-2.6125,-2.6272,-2.6486,-2.6982,-2.8046,-2.8352,-2.8951,-2.9983,-3.0205,-3.0734,-3.1494,-3.1891,-3.2385,-3.3206,-3.4236,-3.4903,-3.5394,-3.637,-3.7363,-3.8189,-3.8592,-3.9186,-3.9947,-4.0286,-4.0408,-4.0408,-4.0457,-4.0534,-4.0593,-4.0654,-4.07,-4.0759,-4.079,-4.079,-4.079,-4.0829,-4.1003,-4.1235,-4.1828,-4.2441,-4.2802,-4.3787,-4.4004,-4.3354,-4.3164,-4.3047,-4.3789,-4.4297,-4.4687,-4.5312,-4.5762,-4.6172,-4.6289,-4.6289,-4.6289,-4.6289,-4.6289,-4.628,-4.6273,-4.6277,-4.6249,-4.6183,-4.6151,-4.6105,-4.6007,-4.5947,-4.5902,-4.5829,-4.5723,-4.5543,-4.5419,-4.5342,-4.5241,-4.5026,-4.5152,-4.5289,-4.5601,-4.5525,-4.5327,-4.4991,-4.4927,-4.49,-4.4833,-4.4745,-4.425,-4.3878,-4.3897,-4.3942,-4.3897,-4.3753,-4.3701,-1.9528,-2.0183,-2.1358,-2.195,-2.2357,-2.4353,-2.5227,-2.5321,-2.5719,-2.6075,-2.6161,-2.5741,-2.5391,-2.5186,-2.482,-2.4728,-2.478,-2.4625,-2.4664,-2.4821,-2.5257,-2.5647,-2.5839,-2.5948,-2.6125,-2.6326,-2.6578,-2.7174,-2.7947,-2.8511,-2.92,-2.9785,-3.0244,-3.084,-3.1641,-3.1891,-3.2401,-3.3232,-3.3993,-3.4483,-3.5037,-3.5773,-3.6708,-3.7516,-3.7991,-3.8671,-3.9674,-4.0249,-4.0489,-4.0489,-4.0504,-4.0519,-4.0598,-4.0673,-4.0694,-4.0759,-4.079,-4.079,-4.0829,-4.0868,-4.0926,-4.1054,-4.1557,-4.1742,-4.1914,-4.2388,-4.2655,-4.2407,-4.1047,-4.1305,-4.2732,-4.3427,-4.3844,-4.4277,-4.48,-4.5431,-4.6165,-4.6289,-4.6269,-4.6245,-4.6221,-4.6183,-4.6137,-4.6144,-4.6111,-4.6044,-4.6016,-4.5949,-4.5894,-4.5835,-4.5771,-4.5712,-4.5632,-4.5475,-4.5303,-4.5222,-4.4943,-4.4726,-4.4538,-4.4565,-4.465,-4.465,-4.4624,-4.4591,-4.4511,-4.4448,-4.4402,-4.4289,-4.3999,-4.3767,-4.3753,-4.3719,-4.3652,-4.3479,-4.3426,-1.9584,-2.0302,-2.1135,-2.1753,-2.2371,-2.364,-2.4481,-2.4758,-2.5271,-2.5663,-2.5897,-2.5368,-2.5157,-2.4948,-2.4553,-2.4197,-2.4151,-2.4345,-2.4465,-2.4694,-2.5174,-2.5688,-2.5934,-2.6056,-2.6218,-2.6472,-2.7056,-2.7515,-2.8094,-2.8904,-2.937,-2.9756,-3.0244,-3.0931,-3.1642,-3.1968,-3.255,-3.3309,-3.3621,-3.4119,-3.4741,-3.5306,-3.6006,-3.6925,-3.7604,-3.8165,-3.9103,-3.9838,-4.0312,-4.0373,-4.0469,-4.0519,-4.0603,-4.072,-4.0778,-4.0765,-4.0797,-4.0829,-4.0887,-4.0926,-4.0977,-4.1093,-4.1133,-4.1135,-4.1308,-4.1465,-4.1463,-4.1448,-3.9598,-3.9997,-4.1511,-4.2721,-4.3155,-4.3314,-4.3391,-4.4323,-4.5484,-4.5996,-4.5986,-4.6072,-4.6063,-4.5901,-4.5933,-4.5902,-4.5899,-4.5947,-4.5906,-4.5859,-4.5783,-4.5737,-4.57,-4.5635,-4.5549,-4.5438,-4.5262,-4.5094,-4.4751,-4.4438,-4.4192,-4.4181,-4.4402,-4.443,-4.4346,-4.4279,-4.421,-4.414,-4.4079,-4.391,-4.3649,-4.3356,-4.3178,-4.3286,-4.3391,-4.316,-4.3069,-2.0291,-2.0933,-2.1678,-2.231,-2.2957,-2.3777,-2.4274,-2.4533,-2.5118,-2.5543,-2.575,-2.5519,-2.5257,-2.4991,-2.4593,-2.4319,-2.4112,-2.4216,-2.4261,-2.458,-2.5245,-2.5742,-2.6028,-2.615,-2.6418,-2.6864,-2.7261,-2.7947,-2.8795,-2.9257,-2.977,-3.0163,-3.0425,-3.0943,-3.1476,-3.1987,-3.2435,-3.3142,-3.3473,-3.3799,-3.422,-3.4749,-3.5392,-3.6291,-3.7271,-3.7951,-3.837,-3.9146,-3.9623,-3.98,-4.0219,-4.0539,-4.0631,-4.0733,-4.081,-4.0861,-4.0861,-4.0892,-4.0958,-4.1021,-4.1067,-4.1106,-4.1136,-4.1162,-4.119,-4.1191,-4.117,-4.0821,-3.9505,-3.9237,-4.0221,-4.1048,-4.168,-4.2202,-4.2725,-4.3298,-4.3908,-4.4072,-4.4703,-4.5464,-4.5393,-4.518,-4.5706,-4.5755,-4.5774,-4.5822,-4.5808,-4.5752,-4.5712,-4.5668,-4.5618,-4.5586,-4.5419,-4.5302,-4.5007,-4.4776,-4.4438,-4.4221,-4.4017,-4.3915,-4.414,-4.4132,-4.4042,-4.3986,-4.3947,-4.3851,-4.3832,-4.3442,-4.3142,-4.2846,-4.2577,-4.2732,-4.279,-4.2675,-4.2675,-2.0666,-2.1616,-2.1916,-2.2494,-2.3125,-2.3484,-2.4103,-2.4799,-2.4936,-2.5474,-2.6015,-2.5743,-2.5313,-2.5005,-2.4637,-2.4363,-2.4216,-2.439,-2.4708,-2.5133,-2.5742,-2.6269,-2.6692,-2.6811,-2.7086,-2.7464,-2.7981,-2.867,-2.9227,-2.9766,-3.0136,-3.0405,-3.0618,-3.1043,-3.1619,-3.2004,-3.2565,-3.3273,-3.3652,-3.3902,-3.4141,-3.4572,-3.5077,-3.581,-3.6803,-3.743,-3.7512,-3.833,-3.8792,-3.9165,-3.9988,-4.0669,-4.0723,-4.0842,-4.0906,-4.0931,-4.0917,-4.0943,-4.101,-4.1038,-4.105,-4.111,-4.114,-4.1133,-4.1166,-4.1175,-4.114,-4.0891,-4.0193,-3.9611,-3.9544,-3.9835,-4.0453,-4.0592,-4.0843,-4.1075,-4.1577,-4.2559,-4.3643,-4.4475,-4.4233,-4.444,-4.4794,-4.5163,-4.5524,-4.5499,-4.5712,-4.5665,-4.5648,-4.5618,-4.562,-4.5531,-4.5342,-4.5115,-4.4776,-4.4457,-4.4091,-4.3974,-4.3897,-4.3818,-4.3929,-4.3878,-4.3781,-4.3734,-4.3667,-4.3686,-4.3582,-4.3142,-4.258,-4.2032,-4.1839,-4.205,-4.2198,-4.232,-4.236,-2.0974,-2.2101,-2.2175,-2.2555,-2.3078,-2.3138,-2.3978,-2.5076,-2.4749,-2.5293,-2.6329,-2.5855,-2.5425,-2.5075,-2.4821,-2.4536,-2.4492,-2.4721,-2.509,-2.5577,-2.6215,-2.6797,-2.7312,-2.7715,-2.8027,-2.8125,-2.8654,-2.9196,-2.9605,-3.0103,-3.0485,-3.0576,-3.0766,-3.1353,-3.1969,-3.2296,-3.2745,-3.3484,-3.3868,-3.413,-3.4311,-3.4735,-3.516,-3.5624,-3.6155,-3.662,-3.6818,-3.7486,-3.8053,-3.8125,-3.9591,-4.041,-4.0765,-4.0959,-4.102,-4.1003,-4.0968,-4.0968,-4.1026,-4.1035,-4.1048,-4.1113,-4.1113,-4.111,-4.113,-4.1139,-4.1109,-4.0901,-4.047,-3.999,-3.9489,-3.949,-3.9527,-3.9514,-3.8815,-3.8623,-3.9456,-4.1448,-4.237,-4.304,-4.3148,-4.3361,-4.3914,-4.438,-4.4831,-4.522,-4.5393,-4.5528,-4.549,-4.5432,-4.5299,-4.515,-4.4879,-4.4643,-4.4308,-4.4138,-4.3786,-4.3416,-4.3476,-4.3262,-4.3225,-4.2742,-4.2582,-4.3351,-4.3444,-4.3426,-4.3232,-4.279,-4.2139,-4.1328,-4.1209,-4.1552,-4.1796,-4.1948,-4.1913,-2.1365,-2.2163,-2.2689,-2.3005,-2.3078,-2.3138,-2.3726,-2.4527,-2.4603,-2.5089,-2.6007,-2.5895,-2.5647,-2.5425,-2.5383,-2.5244,-2.5118,-2.5174,-2.5425,-2.596,-2.664,-2.7327,-2.7815,-2.8511,-2.9059,-2.9289,-2.9438,-2.9661,-3.0087,-3.0526,-3.0747,-3.1077,-3.1304,-3.1811,-3.2382,-3.276,-3.3063,-3.3625,-3.3998,-3.4232,-3.4445,-3.4813,-3.5184,-3.5495,-3.5824,-3.5907,-3.6132,-3.6826,-3.7374,-3.7464,-3.8399,-3.9243,-3.9975,-4.0662,-4.1066,-4.1028,-4.1003,-4.1004,-4.1054,-4.1087,-4.1101,-4.1099,-4.1105,-4.1103,-4.1108,-4.1097,-4.1056,-4.0785,-4.0257,-3.9618,-3.9355,-3.9355,-3.9649,-3.9796,-3.945,-3.9008,-3.933,-3.9937,-4.0906,-4.1817,-4.2071,-4.2325,-4.2986,-4.3585,-4.3991,-4.4414,-4.4741,-4.4879,-4.4938,-4.4803,-4.4669,-4.448,-4.4262,-4.4018,-4.3769,-4.3688,-4.3424,-4.2805,-4.2555,-4.1983,-4.175,-4.1176,-4.1251,-4.1996,-4.2723,-4.2978,-4.2718,-4.2346,-4.1538,-4.0602,-4.0764,-4.103,-4.1063,-4.0996,-4.1,-2.1604,-2.2628,-2.3005,-2.3125,-2.3078,-2.3017,-2.3782,-2.4864,-2.4611,-2.5154,-2.5967,-2.6062,-2.5743,-2.555,-2.5508,-2.5494,-2.5479,-2.5688,-2.6042,-2.6817,-2.7473,-2.8125,-2.8511,-2.9243,-2.9665,-2.993,-3.0,-3.0044,-3.0401,-3.0568,-3.0937,-3.1261,-3.1517,-3.2004,-3.2624,-3.2931,-3.3361,-3.3788,-3.4179,-3.4461,-3.4656,-3.5047,-3.5355,-3.5476,-3.5611,-3.5662,-3.5805,-3.6145,-3.6526,-3.6615,-3.7006,-3.7706,-3.8768,-4.0049,-4.1113,-4.1014,-4.1033,-4.1074,-4.1097,-4.1108,-4.1111,-4.1111,-4.1116,-4.1097,-4.1072,-4.1061,-4.0986,-4.0664,-4.0474,-3.9962,-3.9946,-3.9565,-3.9527,-3.9604,-3.92,-3.8969,-3.9161,-3.9262,-3.9996,-4.0918,-4.1127,-4.1527,-4.2217,-4.2722,-4.3129,-4.3571,-4.4013,-4.4171,-4.4269,-4.3982,-4.3733,-4.3399,-4.3164,-4.319,-4.2976,-4.2871,-4.2732,-4.2206,-4.1617,-4.1045,-4.0599,-4.0149,-4.0161,-4.0596,-4.1307,-4.1818,-4.2153,-4.1772,-4.0788,-3.9836,-3.9761,-3.9715,-3.9954,-4.0048,-4.0065,-2.1854,-2.3125,-2.3125,-2.3125,-2.3078,-2.2969,-2.3786,-2.4964,-2.4606,-2.5151,-2.64,-2.6132,-2.5798,-2.5605,-2.5578,-2.5605,-2.5813,-2.6193,-2.6817,-2.7685,-2.8152,-2.8795,-2.9457,-2.977,-2.9946,-3.0231,-3.0359,-3.0459,-3.0543,-3.0757,-3.1099,-3.1539,-3.1718,-3.221,-3.2883,-3.3183,-3.3616,-3.4012,-3.442,-3.4754,-3.5086,-3.534,-3.5515,-3.5515,-3.5654,-3.5766,-3.5784,-3.5914,-3.5994,-3.6013,-3.6151,-3.6484,-3.7441,-3.9101,-4.0249,-4.0586,-4.0873,-4.1069,-4.1108,-4.1108,-4.1108,-4.1108,-4.1108,-4.1061,-4.1003,-4.0964,-4.0863,-4.0582,-4.0466,-4.0427,-4.0296,-3.9931,-3.9665,-3.9473,-3.8992,-3.8477,-3.9,-3.9272,-3.941,-4.0002,-4.0213,-4.0732,-4.1407,-4.1632,-4.1999,-4.252,-4.2944,-4.3271,-4.3254,-4.2795,-4.2487,-4.2136,-4.1983,-4.2184,-4.2088,-4.1908,-4.1728,-4.1346,-4.0711,-4.0073,-3.9662,-3.9262,-3.9221,-3.8983,-3.9399,-3.9953,-4.0528,-4.0768,-3.9485,-3.8614,-3.8414,-3.8511,-3.8995,-3.917,-3.9217,-2.231,-2.3125,-2.3125,-2.3125,-2.3078,-2.2957,-2.3509,-2.45,-2.439,-2.4935,-2.6035,-2.5964,-2.5893,-2.5798,-2.5661,-2.603,-2.65,-2.6698,-2.724,-2.8235,-2.851,-2.8904,-2.9499,-2.9722,-3.0044,-3.0359,-3.0443,-3.0568,-3.0733,-3.1044,-3.1493,-3.1933,-3.2433,-3.3032,-3.3306,-3.3476,-3.3788,-3.4124,-3.4461,-3.487,-3.5285,-3.5495,-3.5573,-3.5662,-3.5755,-3.5869,-3.5846,-3.5875,-3.5891,-3.5896,-3.5946,-3.6404,-3.7008,-3.6687,-3.76,-3.8827,-4.0112,-4.1108,-4.101,-4.1069,-4.1108,-4.1108,-4.1085,-4.1056,-4.096,-4.0837,-4.0711,-4.053,-4.0489,-4.0508,-4.0492,-4.0399,-4.0326,-4.0021,-3.9506,-3.909,-3.9227,-3.9387,-3.9522,-3.9527,-3.9891,-4.0138,-4.0614,-4.0687,-4.0818,-4.1393,-4.1875,-4.2126,-4.2144,-4.1601,-4.1187,-4.0853,-4.0851,-4.1051,-4.1102,-4.0956,-4.0836,-4.0524,-3.9777,-3.912,-3.867,-3.8173,-3.7323,-3.728,-3.7698,-3.8425,-3.9276,-3.9118,-3.7916,-3.7483,-3.7342,-3.7706,-3.8193,-3.8308,-3.8355,-2.2431,-2.3065,-2.3125,-2.3125,-2.3078,-2.2957,-2.3365,-2.4047,-2.4337,-2.4808,-2.5495,-2.5893,-2.5948,-2.5893,-2.5948,-2.6408,-2.6951,-2.7152,-2.7834,-2.8622,-2.8935,-2.9273,-2.9782,-3.0,-3.0172,-3.0426,-3.0526,-3.0609,-3.0878,-3.124,-3.166,-3.2144,-3.2666,-3.316,-3.3549,-3.3643,-3.3954,-3.433,-3.4756,-3.5165,-3.5424,-3.556,-3.5635,-3.5715,-3.5841,-3.5882,-3.5872,-3.5893,-3.5882,-3.5852,-3.5891,-3.602,-3.645,-3.6635,-3.7235,-3.7578,-3.8792,-3.9694,-4.0278,-4.0773,-4.0987,-4.1081,-4.1046,-4.0981,-4.084,-4.0681,-4.0579,-4.0504,-4.0489,-4.0508,-4.0495,-4.0499,-4.0485,-4.0296,-3.9921,-3.9755,-3.9528,-3.9528,-3.9623,-3.9578,-3.9529,-3.9764,-3.9918,-3.9975,-4.0074,-4.0361,-4.0585,-4.0637,-4.0579,-4.0201,-3.9846,-3.9533,-3.9695,-3.9907,-3.9982,-3.9937,-4.0015,-3.9662,-3.8776,-3.8151,-3.7662,-3.7031,-3.6474,-3.6174,-3.6577,-3.7305,-3.8117,-3.7929,-3.7171,-3.674,-3.6389,-3.6854,-3.7301,-3.7403,-3.7403,-2.2114,-2.2749,-2.2952,-2.3125,-2.3078,-2.2957,-2.3365,-2.4047,-2.4337,-2.4808,-2.5384,-2.5839,-2.6002,-2.5948,-2.6218,-2.6529,-2.7083,-2.759,-2.8306,-2.8903,-2.9377,-2.9694,-3.0017,-3.0231,-3.0384,-3.0634,-3.0593,-3.0838,-3.1201,-3.149,-3.1808,-3.2179,-3.2749,-3.322,-3.3559,-3.3815,-3.4111,-3.4595,-3.5013,-3.535,-3.5531,-3.5607,-3.5689,-3.5793,-3.5869,-3.5898,-3.5857,-3.5814,-3.5803,-3.5792,-3.5794,-3.5842,-3.5959,-3.6326,-3.6589,-3.689,-3.7625,-3.8335,-3.9129,-3.9838,-4.0554,-4.0774,-4.0928,-4.0859,-4.0738,-4.0568,-4.0508,-4.0492,-4.0492,-4.0499,-4.0485,-4.0468,-4.0362,-4.0289,-4.0157,-4.0081,-3.9922,-3.9705,-3.9583,-3.9532,-3.943,-3.9339,-3.9439,-3.9396,-3.9421,-3.9481,-3.9419,-3.9295,-3.9264,-3.9256,-3.912,-3.9017,-3.9087,-3.9271,-3.9215,-3.9227,-3.9213,-3.8915,-3.8025,-3.7449,-3.7076,-3.6643,-3.6114,-3.5932,-3.5861,-3.6106,-3.6882,-3.6729,-3.6559,-3.6231,-3.6017,-3.6118,-3.6344,-3.6434,-3.6535,-2.108,-2.1681,-2.2639,-2.3075,-2.3015,-2.2957,-2.3505,-2.4306,-2.4315,-2.4869,-2.5711,-2.5877,-2.5779,-2.5835,-2.5859,-2.6279,-2.7053,-2.7372,-2.8179,-2.8917,-2.9528,-2.9842,-3.0162,-3.0401,-3.0593,-3.0942,-3.0902,-3.1223,-3.1714,-3.1825,-3.2109,-3.2435,-3.2957,-3.3321,-3.3689,-3.4055,-3.4379,-3.4813,-3.5181,-3.5386,-3.554,-3.5648,-3.5774,-3.586,-3.5898,-3.5897,-3.5881,-3.5785,-3.5723,-3.5723,-3.5723,-3.5673,-3.5697,-3.5836,-3.5952,-3.6123,-3.659,-3.7152,-3.7661,-3.8809,-3.9607,-3.9896,-4.0294,-4.0713,-4.0636,-4.0559,-4.0508,-4.0479,-4.0444,-4.0398,-4.0381,-4.0344,-4.012,-4.004,-3.9937,-3.981,-3.9675,-3.9561,-3.9451,-3.9439,-3.9331,-3.9165,-3.9101,-3.9082,-3.9119,-3.9208,-3.901,-3.891,-3.9053,-3.9036,-3.8939,-3.8851,-3.878,-3.8799,-3.87,-3.8629,-3.8474,-3.8184,-3.7558,-3.7132,-3.6786,-3.6333,-3.5888,-3.5817,-3.5728,-3.5684,-3.5639,-3.5949,-3.6034,-3.5802,-3.5707,-3.5825,-3.5859,-3.5977,-3.596,-2.0655,-2.1531,-2.1958,-2.2121,-2.2121,-2.2076,-2.2508,-2.3181,-2.3444,-2.404,-2.502,-2.4874,-2.4822,-2.4888,-2.5146,-2.5697,-2.6556,-2.7303,-2.814,-2.8992,-2.9601,-2.9973,-3.0274,-3.0526,-3.0902,-3.1089,-3.1227,-3.1511,-3.1914,-3.2161,-3.2512,-3.2867,-3.3291,-3.3597,-3.3972,-3.4371,-3.4736,-3.499,-3.5278,-3.5492,-3.5666,-3.5767,-3.5866,-3.595,-3.5925,-3.5884,-3.5824,-3.5764,-3.5723,-3.5704,-3.5704,-3.5601,-3.5483,-3.5457,-3.5438,-3.5425,-3.5912,-3.6095,-3.643,-3.7744,-3.8917,-3.9544,-4.0127,-4.0579,-4.0506,-4.0457,-4.0457,-4.0408,-4.0286,-4.0215,-4.0103,-3.9949,-3.975,-3.9698,-3.9604,-3.9502,-3.9376,-3.9298,-3.921,-3.9137,-3.9017,-3.8881,-3.884,-3.881,-3.8881,-3.8931,-3.8719,-3.8571,-3.8755,-3.8844,-3.8762,-3.875,-3.8689,-3.8323,-3.8223,-3.7943,-3.7649,-3.7307,-3.6993,-3.6685,-3.6331,-3.6182,-3.5817,-3.5728,-3.5684,-3.5639,-3.5622,-3.5639,-3.5622,-3.5622,-3.5622,-3.5656,-3.5656,-3.5594,-3.5594,-2.0031,-2.0827,-2.0894,-2.1149,-2.1468,-2.1437,-2.1882,-2.2456,-2.2818,-2.3409,-2.4219,-2.4168,-2.4118,-2.4204,-2.4533,-2.5098,-2.5938,-2.6728,-2.7578,-2.8351,-2.9049,-2.9538,-2.9898,-3.0279,-3.0683,-3.1056,-3.1388,-3.1673,-3.2533,-3.2497,-3.2949,-3.3441,-3.3743,-3.3983,-3.425,-3.4675,-3.503,-3.5196,-3.5405,-3.5621,-3.5794,-3.5841,-3.5884,-3.5936,-3.5888,-3.5838,-3.5786,-3.5723,-3.5704,-3.5662,-3.5596,-3.5457,-3.5355,-3.5247,-3.52,-3.5187,-3.5226,-3.5339,-3.5801,-3.6761,-3.8241,-3.9174,-3.9653,-4.0119,-4.0329,-4.0394,-4.0392,-4.0161,-4.0043,-3.993,-3.9808,-3.9669,-3.9513,-3.9433,-3.9401,-3.9298,-3.9101,-3.8979,-3.891,-3.8792,-3.8738,-3.8738,-3.8689,-3.8658,-3.859,-3.8664,-3.8621,-3.8523,-3.8584,-3.8652,-3.859,-3.8578,-3.8596,-3.8172,-3.7708,-3.7058,-3.6434,-3.6107,-3.5857,-3.5943,-3.5734,-3.571,-3.5756,-3.5684,-3.5639,-3.5639,-3.5577,-3.5532,-3.5577,-3.556,-3.5577,-3.5532,-3.5503,-3.5503,-3.5566,-1.9088,-1.9405,-1.9506,-2.0246,-2.1274,-2.1356,-2.1847,-2.2617,-2.2657,-2.309,-2.3856,-2.3935,-2.3949,-2.4021,-2.4175,-2.4679,-2.5326,-2.5938,-2.6614,-2.7438,-2.8375,-2.8592,-2.9015,-2.9534,-3.0341,-3.0923,-3.1364,-3.2072,-3.3245,-3.3234,-3.365,-3.4061,-3.4279,-3.4394,-3.4524,-3.4888,-3.5189,-3.5387,-3.5609,-3.5721,-3.5806,-3.5832,-3.5876,-3.5864,-3.5827,-3.5768,-3.5737,-3.5662,-3.5631,-3.5589,-3.5391,-3.5258,-3.5216,-3.4944,-3.4851,-3.487,-3.4908,-3.5,-3.5181,-3.6182,-3.7318,-3.8631,-3.9073,-3.9643,-4.0219,-4.0358,-4.0208,-3.9923,-3.9812,-3.9717,-3.9596,-3.9444,-3.9264,-3.9192,-3.9129,-3.9073,-3.8881,-3.881,-3.875,-3.8689,-3.8707,-3.8676,-3.8627,-3.8546,-3.8396,-3.8396,-3.8415,-3.8415,-3.8446,-3.8364,-3.8267,-3.8168,-3.8168,-3.7803,-3.7113,-3.5935,-3.5236,-3.4906,-3.4936,-3.5208,-3.5386,-3.5477,-3.5514,-3.5588,-3.5594,-3.5549,-3.5549,-3.5487,-3.5333,-3.5161,-3.5379,-3.5379,-3.5367,-3.5321,-3.5321,-1.8363,-1.8857,-1.9251,-1.9682,-2.0163,-2.0441,-2.0992,-2.1693,-2.2205,-2.2623,-2.2817,-2.2817,-2.2994,-2.3169,-2.3411,-2.3985,-2.4894,-2.5304,-2.5936,-2.7001,-2.7778,-2.8197,-2.856,-2.9172,-2.9937,-3.0539,-3.1151,-3.1921,-3.2837,-3.3298,-3.3957,-3.4435,-3.4737,-3.4928,-3.4979,-3.518,-3.5412,-3.5621,-3.5745,-3.5811,-3.5851,-3.5859,-3.5854,-3.5831,-3.5749,-3.5704,-3.5646,-3.5558,-3.5489,-3.5432,-3.5224,-3.5114,-3.4978,-3.4713,-3.4607,-3.4586,-3.4609,-3.4812,-3.487,-3.5325,-3.5947,-3.723,-3.8372,-3.9199,-4.0192,-4.0139,-3.991,-3.9642,-3.9494,-3.9362,-3.9248,-3.9042,-3.8881,-3.8862,-3.8822,-3.8822,-3.8719,-3.8719,-3.8707,-3.8658,-3.8658,-3.8318,-3.8168,-3.7982,-3.7843,-3.7911,-3.7948,-3.8016,-3.8032,-3.7964,-3.7895,-3.7667,-3.7542,-3.7253,-3.6602,-3.5349,-3.4805,-3.4691,-3.4679,-3.4814,-3.5018,-3.5226,-3.5453,-3.5577,-3.5549,-3.552,-3.5412,-3.5211,-3.4833,-3.4673,-3.4721,-3.4833,-3.4849,-3.4866,-3.4913,-1.7765,-1.8081,-1.8697,-1.8987,-1.9028,-1.9617,-2.022,-2.0957,-2.1874,-2.2263,-2.2259,-2.2245,-2.2352,-2.2569,-2.2873,-2.3186,-2.4309,-2.4747,-2.528,-2.6412,-2.712,-2.7536,-2.811,-2.8886,-2.9527,-3.0149,-3.0884,-3.173,-3.2256,-3.3027,-3.3721,-3.4375,-3.5078,-3.5319,-3.5398,-3.5514,-3.5611,-3.5775,-3.5817,-3.5847,-3.5877,-3.5874,-3.5797,-3.5714,-3.564,-3.5562,-3.5476,-3.5372,-3.5268,-3.5209,-3.5098,-3.4961,-3.4755,-3.4569,-3.4344,-3.4165,-3.4213,-3.4445,-3.4529,-3.4651,-3.5248,-3.5855,-3.7261,-3.867,-3.9662,-3.9654,-3.9377,-3.9156,-3.9085,-3.9045,-3.8909,-3.8689,-3.8634,-3.8615,-3.8615,-3.8615,-3.8414,-3.8414,-3.8627,-3.8609,-3.8303,-3.7982,-3.7614,-3.7396,-3.721,-3.734,-3.7469,-3.7524,-3.756,-3.7506,-3.7396,-3.7173,-3.6949,-3.6671,-3.5854,-3.4594,-3.4271,-3.4455,-3.4576,-3.4678,-3.4847,-3.5098,-3.5385,-3.5549,-3.5458,-3.5367,-3.5182,-3.4913,-3.4382,-3.3969,-3.3716,-3.3869,-3.4185,-3.4399,-3.4496,-1.7324,-1.7313,-1.7863,-1.8147,-1.8309,-1.9052,-1.9811,-2.0709,-2.1746,-2.2231,-2.217,-2.217,-2.231,-2.2449,-2.2994,-2.3377,-2.3666,-2.4223,-2.4791,-2.5436,-2.6341,-2.685,-2.7519,-2.8272,-2.8953,-2.9656,-3.0375,-3.1059,-3.1589,-3.2445,-3.3261,-3.4162,-3.4976,-3.536,-3.5582,-3.5747,-3.5773,-3.5822,-3.5852,-3.5876,-3.5873,-3.58,-3.5671,-3.5551,-3.5437,-3.5315,-3.522,-3.5127,-3.5078,-3.4994,-3.4851,-3.4774,-3.4634,-3.4375,-3.3906,-3.3616,-3.3697,-3.3956,-3.4152,-3.4265,-3.4439,-3.4851,-3.5375,-3.7364,-3.8531,-3.8628,-3.8527,-3.8561,-3.8607,-3.8649,-3.8658,-3.8554,-3.8469,-3.8469,-3.8487,-3.8322,-3.8028,-3.8126,-3.8449,-3.8368,-3.7933,-3.7541,-3.7117,-3.6847,-3.6643,-3.6626,-3.6724,-3.6764,-3.6825,-3.6981,-3.6825,-3.6603,-3.6336,-3.6063,-3.5211,-3.4362,-3.4108,-3.4372,-3.4542,-3.4643,-3.4837,-3.4941,-3.5098,-3.5287,-3.5321,-3.5182,-3.4835,-3.435,-3.3818,-3.3407,-3.3055,-3.3161,-3.3527,-3.4002,-3.4218,-1.6866,-1.7257,-1.7863,-1.8333,-1.8815,-1.9344,-2.022,-2.1202,-2.1935,-2.217,-2.217,-2.217,-2.2402,-2.2994,-2.3231,-2.3537,-2.3991,-2.4471,-2.4847,-2.5438,-2.6045,-2.6535,-2.7108,-2.7792,-2.8358,-2.9006,-2.9734,-3.0513,-3.126,-3.2034,-3.3144,-3.4301,-3.4564,-3.5056,-3.5527,-3.5838,-3.582,-3.5859,-3.5873,-3.5834,-3.5756,-3.5655,-3.5521,-3.5387,-3.5234,-3.5111,-3.5045,-3.4959,-3.4906,-3.4774,-3.4614,-3.4486,-3.4325,-3.3993,-3.3552,-3.316,-3.3306,-3.3552,-3.3625,-3.3839,-3.4012,-3.4037,-3.4333,-3.4731,-3.6043,-3.7071,-3.7347,-3.7173,-3.7948,-3.823,-3.8236,-3.8169,-3.8206,-3.831,-3.8334,-3.8297,-3.8077,-3.8076,-3.8314,-3.7846,-3.7445,-3.6978,-3.6568,-3.6274,-3.6097,-3.6011,-3.6011,-3.6054,-3.6139,-3.6333,-3.6333,-3.6097,-3.5994,-3.5797,-3.5437,-3.4694,-3.4457,-3.4329,-3.4523,-3.4648,-3.4661,-3.4796,-3.4901,-3.4816,-3.4642,-3.4513,-3.4399,-3.3799,-3.3161,-3.2895,-3.2602,-3.2711,-3.2873,-3.3387,-3.3697,-1.5772,-1.6113,-1.6859,-1.7612,-1.8413,-1.8958,-1.9639,-2.0489,-2.1431,-2.1996,-2.217,-2.217,-2.2463,-2.2768,-2.3142,-2.3494,-2.3867,-2.4542,-2.5051,-2.5454,-2.6071,-2.6707,-2.7224,-2.7718,-2.8316,-2.8877,-2.9433,-3.009,-3.08,-3.1714,-3.2767,-3.3306,-3.3704,-3.4488,-3.5025,-3.5247,-3.5498,-3.5658,-3.5792,-3.5723,-3.56,-3.548,-3.5355,-3.5155,-3.4994,-3.4943,-3.4832,-3.4736,-3.4675,-3.4588,-3.4394,-3.4321,-3.4012,-3.3505,-3.3124,-3.2766,-3.2844,-3.3032,-3.3136,-3.3284,-3.339,-3.3465,-3.355,-3.3923,-3.4666,-3.5743,-3.5183,-3.4786,-3.6515,-3.7809,-3.7765,-3.7752,-3.7911,-3.8101,-3.8248,-3.8394,-3.8282,-3.8154,-3.7791,-3.7312,-3.6864,-3.6392,-3.6037,-3.5739,-3.5622,-3.5694,-3.5739,-3.5756,-3.5756,-3.5871,-3.5827,-3.565,-3.5639,-3.5588,-3.5228,-3.4981,-3.4874,-3.4695,-3.4667,-3.4739,-3.4655,-3.4399,-3.43,-3.4037,-3.3751,-3.3732,-3.3764,-3.314,-3.2547,-3.2342,-3.216,-3.2089,-3.2312,-3.2857,-3.3108,-1.4447,-1.4374,-1.5433,-1.658,-1.7412,-1.8003,-1.8525,-1.9015,-2.0509,-2.1499,-2.1913,-2.2058,-2.2136,-2.2476,-2.2995,-2.3392,-2.3937,-2.4608,-2.5198,-2.5561,-2.6264,-2.6922,-2.7482,-2.8057,-2.8535,-2.9095,-2.9551,-2.9851,-3.0224,-3.1027,-3.1767,-3.202,-3.2787,-3.3619,-3.4315,-3.4587,-3.4866,-3.5219,-3.5493,-3.5591,-3.5393,-3.5244,-3.5076,-3.4794,-3.4695,-3.463,-3.448,-3.4413,-3.4394,-3.4363,-3.4311,-3.4282,-3.3643,-3.2867,-3.2506,-3.2491,-3.2506,-3.2603,-3.2749,-3.289,-3.2921,-3.2983,-3.3075,-3.3476,-3.4211,-3.4215,-3.3515,-3.262,-3.389,-3.5684,-3.6064,-3.7184,-3.7789,-3.8026,-3.8227,-3.8245,-3.8159,-3.7887,-3.7376,-3.6881,-3.6412,-3.6028,-3.5854,-3.5639,-3.5639,-3.5639,-3.5594,-3.5566,-3.5475,-3.5503,-3.5412,-3.5274,-3.5383,-3.5383,-3.5144,-3.4994,-3.5199,-3.5107,-3.4905,-3.4795,-3.4615,-3.4137,-3.3601,-3.3339,-3.3093,-3.3093,-3.3002,-3.2492,-3.212,-3.2007,-3.1781,-3.1522,-3.1762,-3.2127,-3.2376,-1.4389,-1.4903,-1.6036,-1.686,-1.7363,-1.7557,-1.8094,-1.8924,-1.9311,-2.0021,-2.0803,-2.1346,-2.1782,-2.2236,-2.2892,-2.3387,-2.4009,-2.4547,-2.5249,-2.5809,-2.6438,-2.706,-2.7648,-2.8192,-2.8706,-2.903,-2.9381,-2.9794,-3.0241,-3.0733,-3.1255,-3.1916,-3.2333,-3.2713,-3.3519,-3.3807,-3.4257,-3.4689,-3.5065,-3.531,-3.5311,-3.5011,-3.4755,-3.4653,-3.4588,-3.4458,-3.4363,-3.4386,-3.434,-3.4264,-3.4235,-3.3879,-3.3219,-3.2299,-3.1965,-3.2018,-3.2161,-3.2231,-3.2317,-3.2451,-3.2517,-3.2699,-3.289,-3.3302,-3.3359,-3.2755,-3.2049,-3.106,-3.1192,-3.3045,-3.4848,-3.63,-3.7585,-3.7877,-3.8204,-3.8063,-3.7972,-3.7453,-3.6952,-3.6485,-3.6036,-3.5783,-3.565,-3.5622,-3.5639,-3.5594,-3.552,-3.5475,-3.5321,-3.5274,-3.5182,-3.5088,-3.5228,-3.5182,-3.4897,-3.4738,-3.4769,-3.4752,-3.4463,-3.4431,-3.4431,-3.3665,-3.2895,-3.2625,-3.2477,-3.2532,-3.2367,-3.1992,-3.1667,-3.1625,-3.1507,-3.1232,-3.0758,-3.093,-3.1317,-1.3522,-1.4084,-1.4952,-1.5754,-1.6327,-1.6597,-1.7231,-1.8096,-1.8489,-1.9057,-1.9807,-2.0642,-2.1298,-2.1789,-2.2494,-2.305,-2.3639,-2.4365,-2.4999,-2.5664,-2.633,-2.713,-2.7713,-2.8304,-2.8879,-2.9263,-2.9706,-3.0125,-3.0372,-3.0548,-3.0987,-3.1423,-3.1519,-3.1822,-3.2568,-3.3056,-3.3551,-3.412,-3.4549,-3.4868,-3.5063,-3.4887,-3.4693,-3.4607,-3.4409,-3.4269,-3.4203,-3.4203,-3.4179,-3.4124,-3.4104,-3.366,-3.2993,-3.2214,-3.1873,-3.1783,-3.1802,-3.1768,-3.1806,-3.1773,-3.1899,-3.1987,-3.2195,-3.2429,-3.2699,-3.2117,-3.1118,-3.0201,-2.9572,-3.1037,-3.3234,-3.4889,-3.6287,-3.6991,-3.7448,-3.7648,-3.7308,-3.6829,-3.6409,-3.6045,-3.5671,-3.544,-3.5385,-3.5504,-3.5453,-3.5121,-3.5161,-3.5345,-3.5178,-3.4781,-3.4719,-3.4574,-3.4475,-3.4463,-3.4119,-3.4003,-3.4103,-3.4037,-3.3858,-3.3547,-3.3198,-3.2711,-3.2191,-3.2079,-3.1951,-3.1894,-3.1667,-3.1509,-3.1351,-3.1234,-3.1087,-3.0925,-3.0423,-2.995,-3.0345,-1.2337,-1.2735,-1.3344,-1.4186,-1.5062,-1.5591,-1.6318,-1.7267,-1.7949,-1.8517,-1.9075,-2.0157,-2.0616,-2.1193,-2.1816,-2.2202,-2.2818,-2.3823,-2.458,-2.5173,-2.5781,-2.6764,-2.7681,-2.8361,-2.8955,-2.9599,-3.0117,-3.0317,-3.0491,-3.0599,-3.0678,-3.0739,-3.0857,-3.1017,-3.1516,-3.1912,-3.2378,-3.3286,-3.3868,-3.4298,-3.4561,-3.4794,-3.4651,-3.4431,-3.4197,-3.4023,-3.4005,-3.4012,-3.3993,-3.3979,-3.3928,-3.331,-3.2491,-3.1708,-3.1756,-3.1539,-3.121,-3.1147,-3.1043,-3.065,-3.0717,-3.0864,-3.1125,-3.1431,-3.1721,-3.1498,-3.0487,-2.9636,-2.9027,-2.9633,-3.184,-3.3491,-3.4863,-3.6041,-3.6541,-3.6978,-3.6531,-3.6246,-3.5994,-3.5677,-3.5453,-3.5233,-3.5267,-3.5385,-3.5115,-3.4766,-3.4745,-3.4964,-3.4918,-3.4231,-3.3844,-3.3404,-3.3044,-3.3035,-3.3034,-3.2927,-3.2819,-3.2835,-3.2554,-3.2292,-3.212,-3.2023,-3.1868,-3.164,-3.1524,-3.1495,-3.1452,-3.1351,-3.1132,-3.0955,-3.0573,-3.0324,-2.9912,-2.9545,-2.9719,-1.1628,-1.2638,-1.3198,-1.4071,-1.5062,-1.5355,-1.6139,-1.7186,-1.7841,-1.8383,-1.9008,-1.9657,-2.0369,-2.1225,-2.1949,-2.2393,-2.2678,-2.3424,-2.3899,-2.4469,-2.5196,-2.6348,-2.7387,-2.8172,-2.8933,-2.9673,-3.0309,-3.0482,-3.0563,-3.063,-3.0698,-3.0774,-3.0722,-3.0779,-3.0857,-3.129,-3.1826,-3.2564,-3.3363,-3.3968,-3.4206,-3.4377,-3.4464,-3.4335,-3.4216,-3.4092,-3.403,-3.3988,-3.3975,-3.391,-3.3687,-3.2954,-3.2014,-3.0993,-3.0871,-3.117,-3.0785,-3.0533,-3.0329,-2.9815,-2.9749,-2.9865,-3.0156,-3.0463,-3.0933,-3.1585,-3.0553,-2.9554,-2.9194,-2.9619,-3.1272,-3.2227,-3.3491,-3.4447,-3.5132,-3.5483,-3.5457,-3.5742,-3.5874,-3.5664,-3.5504,-3.5351,-3.5284,-3.5131,-3.4641,-3.4351,-3.4097,-3.428,-3.4104,-3.3549,-3.2932,-3.2326,-3.1715,-3.1612,-3.1595,-3.1321,-3.1218,-3.1296,-3.1461,-3.152,-3.1642,-3.1766,-3.1625,-3.1215,-3.1232,-3.1334,-3.1248,-3.119,-3.094,-3.0689,-3.0075,-2.9668,-2.9274,-2.9024,-2.908]}]]